GFSMW_prec_cthk_000.txt.gz
RH
12 11 11 12 12 13 15 16 18 19 21 21 22 21 18 16 17 20 21 24 27 29 30 32 34 34 35 35 38 39 38 35 34 35 32 29 27 27 27 25 26 26 25
12 11 10 9 9 10 12 14 15 17 19 22 23 23 20 16 19 19 19 21 24 27 30 32 35 37 39 40 42 44 44 42 42 39 39 37 33 31 29 27 27 28 28
15 15 13 8 6 7 10 13 16 16 18 21 22 20 18 16 16 15 16 17 21 24 28 32 34 36 37 36 39 42 44 46 47 45 45 43 37 35 33 32 32 33 35
19 19 17 16 13 11 9 12 14 16 19 21 21 19 16 14 14 15 14 16 19 22 27 30 32 34 34 34 36 39 44 48 50 52 46 46 41 41 39 39 39 40 40
22 21 20 19 19 18 17 16 16 15 15 16 17 16 15 14 14 14 14 17 20 22 26 29 30 30 31 32 35 40 43 47 51 51 51 49 47 45 48 44 45 46 44
25 23 22 21 20 20 20 19 19 21 20 19 18 16 14 15 16 18 21 23 23 22 26 29 30 30 29 31 33 38 42 48 51 52 54 54 54 49 49 54 45 47 48
28 27 25 24 24 23 23 23 22 21 21 22 23 24 25 25 23 24 24 24 24 25 28 30 30 29 29 31 34 41 44 46 52 54 54 57 58 58 54 50 48 49 49
35 35 33 32 30 29 28 27 27 28 27 26 25 25 25 26 27 31 34 33 33 33 33 33 34 37 39 40 41 43 44 46 49 54 56 57 61 62 62 56 54 53 51
38 38 36 36 34 33 32 32 31 30 29 28 28 27 28 27 28 28 30 31 32 33 34 37 38 40 43 44 46 47 48 52 53 54 58 61 61 63 63 62 64 62 59
35 34 34 33 34 35 33 32 31 30 29 29 28 28 27 27 29 30 31 31 33 36 38 41 45 46 46 47 54 56 59 59 58 60 59 60 61 66 68 70 66 64 67
32 30 31 32 32 33 34 35 34 34 35 35 34 33 32 32 32 33 34 34 35 37 41 45 49 51 54 55 55 55 57 58 61 61 64 62 64 64 68 67 67 73 70
26 26 28 29 30 31 32 33 34 36 37 40 44 45 44 43 39 40 40 41 42 44 46 49 51 54 56 57 58 61 62 60 59 58 57 57 61 62 64 69 75 77 69
31 33 35 36 36 37 36 37 39 39 40 41 41 44 46 50 52 52 51 50 48 46 46 47 49 50 53 57 59 61 62 60 60 63 60 62 66 63 65 74 78 77 75
45 49 51 51 50 49 49 49 49 48 46 44 43 42 42 46 47 50 52 53 55 56 57 58 58 59 62 64 67 66 63 60 59 63 64 63 65 66 67 79 81 82 81
56 55 53 52 53 53 54 53 50 49 48 48 49 47 47 48 47 47 47 48 52 55 56 57 59 59 58 58 60 63 63 65 62 62 65 70 69 70 70 71 78 85 84
58 57 57 56 56 55 54 52 50 49 47 49 50 49 49 47 49 50 50 50 50 52 54 56 58 60 61 59 60 63 71 73 71 69 64 69 72 75 74 73 76 86 87
63 62 60 59 60 59 57 57 55 53 52 50 49 47 44 42 42 46 50 49 52 54 56 57 57 56 61 65 68 68 67 70 71 70 72 73 78 77 76 77 76 87 93
62 63 64 62 63 64 64 58 53 50 50 52 50 47 45 45 43 41 41 48 53 53 55 56 59 62 60 67 69 67 70 67 63 70 70 74 81 80 78 75 76 81 86
65 65 64 65 67 69 66 60 57 55 53 51 50 48 46 43 41 40 40 41 42 46 52 58 65 67 65 76 77 71 67 63 65 73 69 71 79 77 78 81 74 77 87
68 68 71 71 71 72 67 64 63 62 62 59 56 55 53 50 47 45 45 45 45 44 45 49 61 70 69 83 86 82 76 70 67 72 78 81 80 80 82 85 79 81 82
74 73 71 70 71 71 70 67 67 64 61 58 56 55 54 53 51 50 51 51 50 49 49 50 54 61 69 84 88 91 88 80 70 66 74 80 82 82 84 87 86 86 86
80 80 78 76 74 72 70 66 63 60 57 55 53 53 54 53 54 54 54 57 58 57 54 55 55 60 68 74 83 87 93 86 77 71 73 78 81 84 85 89 92 91 97
84 81 77 74 72 66 61 55 52 51 49 48 47 49 51 54 57 57 56 58 64 65 62 59 57 56 61 71 82 83 85 88 81 75 69 78 83 85 85 89 94 91 96
78 74 67 56 48 43 39 37 34 33 35 37 39 42 43 47 53 58 59 59 60 63 66 64 56 57 64 72 81 88 84 85 87 81 72 77 87 90 88 89 92 96 97
57 43 35 31 27 21 17 16 15 16 18 19 21 24 29 37 47 54 58 59 63 64 60 62 62 58 59 70 80 84 83 85 91 88 81 81 86 86 88 88 93 96 95
30 25 24 21 17 15 16 15 15 17 17 16 16 17 17 18 23 32 44 59 60 61 67 64 60 61 59 63 78 84 82 85 89 93 92 83 82 88 92 95 96 98 96

GFSMW_prec_cthk_003.txt.gz
RH
16 15 13 12 12 13 15 16 19 19 24 26 26 24 23 24 25 23 18 20 24 26 25 25 27 32 33 33 37 39 37 36 37 38 38 40 37 35 33 31 30 28 28
15 14 14 13 11 11 12 13 15 18 22 24 27 28 27 27 26 23 18 19 21 21 23 21 21 29 34 36 37 40 40 38 40 43 45 44 39 37 38 37 36 32 33
18 16 17 17 15 12 9 9 11 15 18 20 22 25 26 28 27 22 18 16 20 20 19 18 21 26 33 35 37 39 41 40 41 44 47 47 44 41 41 41 40 37 37
21 20 20 20 20 19 18 17 16 17 20 21 20 21 22 23 21 21 19 17 18 17 17 18 21 26 31 34 37 40 41 45 45 48 47 47 49 53 51 49 46 45 45
23 22 23 22 21 20 20 21 22 22 23 25 24 25 24 25 24 23 23 20 21 21 21 25 29 30 31 35 37 41 43 45 49 47 52 53 54 57 62 59 55 54 53
26 25 25 25 24 24 23 23 23 24 26 26 26 27 29 31 32 33 33 34 34 34 34 33 33 32 34 37 39 41 41 43 47 50 53 54 55 57 62 64 61 62 58
29 30 31 31 30 28 28 27 26 26 26 26 27 27 28 28 29 30 32 32 33 34 34 35 32 32 34 37 38 39 41 44 48 50 53 58 64 69 69 70 66 69 70
36 36 36 35 35 36 35 34 33 33 32 31 30 30 31 32 33 35 36 37 38 37 38 38 38 37 39 39 42 45 45 47 50 55 60 63 63 67 71 72 73 71 71
36 35 34 33 34 34 35 35 34 33 32 32 32 32 31 30 29 30 32 32 35 36 35 37 40 41 43 45 49 51 51 55 58 57 60 61 61 67 71 72 70 75 73
35 33 31 30 29 29 30 32 34 36 36 35 35 35 36 37 36 36 35 34 36 38 40 42 44 44 46 50 54 57 58 61 62 65 64 63 64 67 68 67 70 75 75
34 32 28 27 28 28 28 28 31 33 34 35 37 40 41 41 43 45 45 43 43 44 44 47 48 50 52 56 60 63 64 64 65 68 68 68 68 69 73 69 67 69 71
35 30 30 33 38 40 41 43 44 44 43 43 43 43 43 44 46 48 49 50 51 52 52 52 52 50 51 54 58 59 60 61 63 64 69 66 69 70 69 74 70 74 73
33 36 41 45 49 51 50 51 51 49 49 49 48 48 48 48 46 45 46 50 50 51 53 56 58 60 60 61 62 64 66 70 69 71 80 80 77 68 69 75 75 70 73
46 49 51 53 54 55 57 56 53 51 50 47 46 47 48 46 46 45 45 45 46 47 47 50 52 55 58 61 65 67 69 67 67 72 76 82 83 78 74 76 80 77 77
56 58 58 57 57 57 58 55 55 53 51 50 49 50 49 47 44 43 41 41 41 41 42 48 50 50 53 56 60 66 68 68 67 70 77 79 76 79 78 79 83 80 84
58 58 59 60 60 59 57 55 55 56 53 52 52 51 49 46 44 42 39 37 36 36 38 39 42 50 55 58 64 71 68 66 68 69 74 76 76 82 84 83 82 83 83
59 59 58 58 61 60 58 60 60 58 55 54 55 55 53 51 49 48 47 45 43 41 40 39 39 40 43 51 61 67 78 72 70 68 66 74 82 80 85 82 85 88 89
57 57 60 60 59 60 63 61 62 60 59 59 59 58 56 54 53 52 51 49 47 46 45 44 43 42 42 45 52 65 71 74 73 74 71 68 74 78 83 84 88 87 92
58 60 61 62 64 66 65 64 64 63 63 61 60 57 56 54 53 53 51 48 47 46 46 46 46 48 49 52 56 59 64 66 68 76 74 79 80 81 88 92 94 93 92
63 65 67 69 70 69 68 67 65 63 62 60 59 57 55 54 51 49 48 47 46 45 44 44 48 52 51 51 53 60 63 60 63 64 83 87 88 87 89 95 96 97 93
73 75 77 79 78 74 70 68 63 61 60 57 52 46 44 44 44 42 42 42 42 43 46 47 48 48 48 47 49 57 64 68 65 67 81 93 96 91 84 90 96 93 92
83 83 81 77 72 69 66 60 54 45 36 31 30 28 27 26 26 29 33 37 41 43 46 48 46 45 46 50 52 51 66 72 73 73 81 87 93 95 85 91 93 95 97
84 80 76 72 66 57 45 34 29 26 23 22 21 19 18 17 18 17 19 23 29 39 44 45 45 46 45 46 56 60 59 65 72 76 82 85 93 95 90 91 95 97 96
84 76 69 59 48 35 30 27 25 23 21 19 18 16 16 17 17 17 18 20 21 23 32 40 50 52 46 47 54 61 60 62 70 77 79 87 90 94 93 91 93 95 96
71 65 56 44 34 31 27 24 20 19 18 17 17 16 16 15 14 15 16 20 20 21 20 24 39 50 53 54 53 61 59 62 74 79 79 85 88 93 93 91 95 96 97
57 50 40 34 29 27 23 21 21 21 20 20 19 19 18 17 17 16 16 16 17 18 19 19 26 38 51 59 53 60 59 66 81 82 85 89 92 93 97 93 96 96 96

GFSMW_prec_cthk_006.txt.gz
RH
21 18 15 14 14 15 14 16 16 17 19 21 22 22 22 24 24 24 23 25 25 24 20 21 21 23 25 24 25 28 32 34 37 42 40 40 39 38 37 37 36 34 35
19 18 17 16 16 15 13 14 15 18 20 20 19 22 22 23 26 26 25 28 29 26 24 23 24 24 25 25 26 29 33 37 42 44 47 45 40 37 38 38 38 37 41
20 19 18 17 18 17 18 17 17 19 21 24 25 25 26 25 26 27 30 33 31 30 31 29 29 28 27 26 30 36 40 42 45 47 49 47 43 40 39 40 42 44 47
20 20 20 20 20 20 20 20 21 21 23 26 29 31 32 32 32 32 34 34 33 30 27 27 28 32 34 35 37 39 38 41 42 47 48 49 48 52 51 49 51 56 60
23 24 24 23 23 22 22 23 23 24 26 28 30 31 33 33 33 34 36 38 39 37 35 33 33 35 37 39 40 41 42 44 48 46 48 51 54 55 59 58 58 62 62
26 25 25 26 27 28 28 28 28 27 27 27 29 32 32 33 32 32 34 35 36 38 41 41 41 41 42 44 44 44 46 49 51 49 48 53 59 55 62 65 64 66 64
26 28 30 30 30 31 33 33 31 30 30 31 31 31 32 34 36 38 40 40 41 42 45 47 47 46 45 44 45 47 48 50 51 52 53 55 56 59 65 69 65 67 65
34 36 36 33 30 29 29 29 32 34 34 33 33 33 34 34 34 33 33 35 38 41 43 46 48 49 49 48 49 53 55 57 59 58 59 63 64 69 72 73 75 75 71
36 35 34 32 30 29 27 26 25 26 27 30 33 35 36 36 36 38 39 39 39 38 37 39 44 48 54 55 58 59 59 58 60 63 67 70 72 76 76 76 75 80 73
38 38 36 33 31 29 25 26 26 27 28 27 28 29 31 33 36 39 41 42 44 45 46 46 47 47 48 51 57 59 65 69 70 70 71 72 73 74 75 77 75 79 79
36 36 34 31 30 29 30 35 38 41 42 42 42 42 42 42 43 44 45 45 46 48 52 55 55 54 55 56 56 57 60 63 69 73 75 78 81 82 82 82 82 84 83
30 33 35 36 38 40 44 46 47 47 47 46 45 44 43 43 43 43 43 44 44 44 43 43 46 51 57 62 64 64 65 67 68 70 74 80 85 87 94 93 94 92 92
39 43 45 48 49 50 51 53 53 50 48 47 47 47 47 46 46 45 44 43 42 43 42 41 41 43 46 51 54 59 64 68 71 73 75 74 77 79 82 87 89 87 90
47 50 52 53 53 53 52 52 50 47 47 48 48 46 46 45 44 44 45 45 45 44 43 41 39 39 41 43 47 55 60 62 63 65 67 68 71 72 75 81 81 82 89
47 49 49 50 51 51 53 51 50 50 51 51 50 48 48 48 47 46 46 46 46 46 45 44 44 44 43 42 46 46 48 53 55 58 61 64 66 67 67 79 76 83 86
46 46 47 49 52 53 52 50 52 54 54 56 55 55 53 52 50 49 48 48 49 49 48 48 47 46 47 47 46 50 51 48 48 50 51 58 61 64 66 71 78 83 85
45 46 49 52 51 51 52 55 57 59 60 60 59 58 56 53 52 53 52 51 50 49 50 50 51 49 48 50 54 55 54 53 51 51 51 52 58 66 71 71 72 77 80
52 53 56 55 54 57 61 64 65 63 61 60 58 56 56 55 53 50 48 46 46 46 44 44 47 50 51 56 57 53 49 45 45 48 50 53 53 60 72 78 75 74 74
61 60 61 62 65 66 65 64 63 62 59 57 55 51 48 43 38 32 31 32 34 37 38 40 43 47 50 49 43 42 40 38 38 45 47 51 54 55 63 70 77 81 87
63 64 68 72 71 69 65 63 61 58 55 50 46 42 37 31 27 27 27 26 26 24 25 24 29 35 39 36 36 37 40 41 42 37 37 46 54 54 61 68 71 85 91
67 72 75 76 72 67 64 61 56 52 48 44 40 33 30 28 26 24 22 23 20 22 20 21 22 24 26 32 36 38 40 48 43 40 41 43 52 56 62 69 78 92 96
77 78 77 76 73 69 64 57 50 47 40 34 31 29 27 24 22 21 21 19 18 18 20 21 20 18 15 16 25 38 46 51 48 45 48 51 59 63 63 73 81 95 98
77 77 77 75 70 64 56 50 45 38 33 32 28 23 20 19 18 19 18 16 16 16 20 20 19 15 12 14 15 29 44 51 53 51 55 62 71 73 70 75 83 92 95
81 80 72 66 59 53 48 41 35 32 29 25 22 21 20 20 19 18 19 18 17 20 21 19 18 18 17 17 22 27 33 43 52 51 57 71 79 81 79 78 82 93 98
79 70 60 55 50 43 38 34 30 27 25 24 23 22 21 20 19 19 20 21 22 24 26 26 27 26 25 24 29 32 28 40 52 54 63 72 77 79 86 87 90 96 97
68 62 53 46 40 39 34 27 25 26 27 27 25 23 24 23 23 24 22 22 26 27 29 30 34 34 29 27 31 25 25 31 52 58 66 73 82 87 90 94 96 95 96

GFSMW_prec_cthk_009.txt.gz
RH
27 25 22 19 18 17 18 19 19 20 21 20 21 21 21 24 25 27 28 29 31 32 35 36 33 31 30 29 30 31 30 28 30 35 35 41 41 39 39 39 37 38 39
22 20 18 18 18 17 17 18 20 22 23 26 27 28 27 29 30 32 33 34 34 35 37 37 32 31 33 31 29 32 31 30 34 42 48 45 41 38 38 39 40 42 44
23 22 20 18 18 19 19 20 20 20 22 24 27 31 31 31 32 33 34 36 39 40 43 44 43 42 39 37 36 40 45 44 44 47 51 51 47 42 41 40 44 46 47
24 24 21 20 20 20 21 21 22 23 25 26 28 31 34 36 37 39 40 40 43 44 45 46 48 47 46 45 45 46 47 50 52 53 49 53 55 55 50 44 49 54 52
24 24 24 24 25 25 26 27 26 27 27 29 32 34 37 39 40 41 42 43 44 46 47 47 47 49 51 51 52 53 55 55 56 53 52 55 59 59 58 55 50 54 57
25 25 25 26 27 29 30 30 29 30 30 30 29 30 31 32 33 35 36 38 40 42 44 46 47 49 53 54 54 55 55 55 55 58 59 62 61 59 63 62 59 58 60
24 25 26 30 32 32 29 27 26 26 28 30 32 32 33 34 34 34 34 34 34 35 36 42 47 47 49 53 57 56 56 56 58 60 64 66 68 71 72 73 68 68 66
33 35 35 36 37 35 34 32 31 28 26 26 26 27 29 31 33 34 34 35 36 37 37 37 39 41 46 48 52 57 61 61 68 71 70 72 78 79 83 85 87 84 81
37 38 38 39 39 38 35 31 28 28 29 31 33 35 36 37 37 38 39 40 42 44 45 47 49 51 52 52 52 54 58 60 64 71 79 84 84 87 88 90 93 95 91
37 36 36 35 35 34 34 34 34 36 39 39 39 40 41 42 42 43 43 43 43 43 44 44 44 44 46 51 56 59 60 59 59 58 62 71 78 83 86 88 93 96 97
32 32 32 33 35 39 41 44 47 48 46 45 44 44 43 43 43 43 42 43 43 43 43 43 43 43 44 45 47 50 54 59 64 68 69 68 69 72 75 77 79 85 91
33 34 38 44 49 49 49 49 48 47 45 42 42 42 42 41 41 41 41 40 40 40 41 42 42 42 42 44 45 47 50 59 63 66 67 68 70 73 76 78 77 80 83
42 48 51 51 47 45 46 46 46 46 42 42 43 43 43 42 42 42 42 42 41 41 42 44 45 46 47 48 49 51 52 52 53 55 58 59 62 64 65 66 68 67 66
49 48 47 46 46 47 47 48 48 43 44 46 47 47 48 48 48 48 46 44 43 42 43 44 46 48 48 50 53 53 52 53 53 53 54 53 54 56 56 60 66 68 69
46 46 46 46 47 48 50 50 46 47 49 50 52 52 52 51 50 48 46 44 44 43 43 44 44 45 47 50 51 53 55 55 54 51 51 50 49 49 51 59 62 68 71
45 47 47 47 49 51 50 50 51 53 55 56 54 52 51 50 46 41 37 33 32 34 35 38 38 37 37 40 45 52 52 53 52 45 42 43 45 47 49 51 55 62 67
47 48 49 50 50 51 54 57 58 58 57 55 53 50 44 36 32 31 29 27 27 27 25 27 24 27 28 33 44 49 47 48 42 41 43 41 44 41 42 43 45 48 53
49 50 53 56 56 57 59 62 63 60 56 52 44 39 35 32 31 30 29 28 26 28 29 27 28 27 24 32 49 46 45 39 37 38 39 39 37 39 41 46 46 42 44
51 52 57 63 66 65 69 66 61 58 52 44 41 37 36 33 32 30 28 29 28 27 23 23 22 24 25 33 35 32 26 29 33 39 41 40 37 37 43 50 50 45 39
56 61 65 64 66 66 62 60 56 49 44 41 38 39 37 35 32 32 30 28 25 22 21 20 20 22 25 23 19 16 21 23 28 35 35 35 37 37 42 53 53 49 45
63 65 66 68 66 60 56 53 49 43 39 40 39 37 35 33 31 28 24 22 21 19 18 18 18 19 17 13 12 17 20 24 32 29 28 31 36 39 48 59 63 61 60
67 67 69 66 62 58 53 47 43 41 41 39 37 35 33 29 25 23 21 21 22 21 20 21 21 20 19 15 17 19 24 31 35 32 24 29 37 47 56 60 64 71 75
66 67 68 67 65 58 54 47 44 41 39 38 37 31 26 24 23 24 24 24 24 24 25 25 25 24 22 20 22 27 29 30 33 28 24 31 46 54 58 65 72 82 85
65 68 71 65 61 56 51 48 44 43 42 36 30 27 26 26 27 26 27 26 26 26 27 27 28 29 27 29 33 32 32 29 28 25 25 35 51 63 65 73 82 85 87
71 68 65 64 60 54 52 47 45 41 34 29 30 31 31 30 28 27 27 26 25 30 33 33 37 39 38 39 40 45 38 34 33 34 33 38 56 69 73 83 88 87 91
65 61 58 54 50 48 43 38 33 29 31 33 34 34 34 32 30 28 24 23 25 31 33 37 42 40 42 44 43 41 38 34 34 34 32 43 63 72 77 92 92 96 95

GFSMW_prec_cthk_012.txt.gz
RH
29 28 27 25 22 20 19 21 21 22 24 26 28 30 31 30 31 32 33 36 37 38 40 40 40 42 44 41 39 40 40 37 38 43 38 37 35 34 36 41 43 43 43
28 24 23 21 20 21 20 19 19 19 21 23 26 30 32 33 34 36 39 41 41 41 42 43 44 44 46 46 46 47 47 45 44 46 51 49 43 39 39 40 42 41 42
25 24 23 23 23 22 20 20 20 21 23 25 27 31 34 37 41 44 44 46 47 47 47 47 48 48 48 50 51 52 53 54 53 54 59 61 58 53 47 46 48 49 48
27 26 26 26 26 24 22 23 25 27 28 29 31 35 38 40 42 43 43 45 46 47 47 47 48 47 48 48 50 55 56 58 57 59 57 56 60 61 56 48 49 54 52
28 27 26 26 25 25 27 28 29 28 27 26 26 28 30 32 33 34 35 36 37 39 41 42 43 43 44 45 46 51 55 56 56 55 58 58 58 60 61 57 54 58 57
28 26 25 25 26 28 30 31 31 30 30 30 30 30 32 32 31 30 31 32 32 33 33 33 36 39 43 43 44 50 54 56 63 66 68 64 65 62 66 69 73 74 68
26 26 28 31 33 34 36 37 36 34 33 30 30 30 31 32 34 35 35 36 37 39 41 43 45 47 49 50 53 54 56 58 65 73 79 81 84 88 89 85 81 83 83
32 33 35 37 39 40 39 39 39 36 34 33 33 34 35 36 38 40 40 40 39 39 38 38 39 40 41 44 48 52 56 58 60 62 65 73 78 83 88 88 96 90 84
36 39 41 40 39 38 36 37 37 37 37 38 39 41 42 42 42 39 38 37 37 36 34 34 33 34 35 36 38 40 42 47 52 56 61 65 66 67 71 80 87 89 91
41 41 40 38 37 36 38 40 42 45 48 45 42 41 40 38 37 37 37 37 37 36 36 36 36 37 37 37 38 38 39 41 44 49 55 62 66 68 72 76 80 84 90
41 41 39 38 38 42 48 51 52 50 46 42 39 38 39 40 41 40 39 39 39 39 38 39 39 40 41 42 42 42 43 46 48 49 52 54 58 61 67 70 72 73 77
38 38 38 44 51 54 51 47 45 44 42 40 40 40 41 42 43 42 42 42 41 40 39 38 39 41 42 43 45 47 49 50 52 53 56 56 57 56 57 60 63 67 70
39 43 48 53 50 46 46 45 44 44 43 44 44 45 46 46 45 44 42 40 38 37 36 35 35 36 39 41 43 49 48 51 54 57 57 56 57 55 53 54 56 56 57
48 52 51 47 46 47 47 48 49 48 49 50 50 50 49 47 44 41 37 33 29 25 23 23 23 22 23 24 28 31 37 41 43 45 46 48 45 43 43 50 53 56 60
51 49 48 49 49 50 50 49 48 50 52 54 53 51 47 43 37 31 28 25 23 23 22 20 20 20 20 22 23 27 32 38 38 38 39 40 37 38 49 52 43 47 55
47 47 49 51 51 51 51 53 56 57 57 55 52 47 42 37 32 28 25 23 22 20 20 20 20 21 24 26 24 27 34 35 35 34 35 36 34 38 42 39 40 44 52
47 49 51 52 53 57 57 59 57 59 56 51 46 42 37 31 28 26 25 25 23 23 25 27 27 25 24 23 23 28 29 30 29 27 25 22 24 35 37 34 36 37 42
51 53 55 57 58 58 56 59 58 55 49 47 43 37 32 30 28 27 26 26 28 28 26 24 22 20 18 19 23 22 19 16 15 18 14 14 20 25 32 33 35 34 38
50 51 53 56 59 63 62 59 56 51 47 45 40 34 30 29 31 31 31 31 28 26 24 22 19 18 19 21 19 20 20 21 21 20 19 26 25 22 28 36 41 41 41
52 57 60 66 67 66 64 57 50 48 46 40 35 33 35 36 35 34 33 31 27 24 23 22 22 23 24 23 25 26 27 28 30 30 28 27 24 24 24 32 44 52 51
60 65 68 71 68 60 56 53 48 43 39 35 37 41 41 40 39 38 34 29 27 26 26 26 24 25 26 26 28 30 36 36 41 37 31 25 21 23 24 31 53 62 67
59 62 62 62 59 56 53 47 44 42 41 41 43 44 42 40 35 30 30 28 27 27 27 28 27 27 26 27 30 37 39 44 45 40 32 29 30 28 30 37 58 69 73
63 63 63 62 60 51 47 43 43 43 42 43 42 36 30 30 32 32 30 28 28 28 29 30 31 30 29 28 34 38 40 40 42 38 36 32 33 32 29 43 66 74 80
62 63 63 56 54 49 45 41 39 40 37 29 28 30 33 34 32 29 27 26 27 32 35 38 40 40 38 40 41 46 43 39 39 37 34 31 31 29 37 55 77 81 82
59 57 56 49 43 40 36 33 29 27 28 31 34 34 32 28 26 25 27 28 31 39 44 42 45 45 43 43 50 51 49 49 48 39 35 26 26 30 46 71 79 84 96
55 47 40 36 31 28 25 26 28 31 35 36 34 29 27 27 27 27 25 25 30 36 40 43 48 46 48 52 51 52 52 52 46 41 35 27 29 39 62 73 81 93 97

GFSMW_prec_cthk_015.txt.gz
RH
26 28 29 29 28 25 22 22 22 22 22 24 26 28 30 33 35 37 38 40 43 45 47 47 48 48 49 49 50 52 54 55 56 58 53 51 49 45 42 44 43 42 42
25 26 28 26 24 24 24 23 22 21 20 20 24 28 31 35 39 41 44 46 48 49 50 51 51 52 52 53 54 57 57 57 60 62 62 57 52 49 48 48 47 47 48
27 28 28 26 25 25 26 25 24 23 22 24 27 29 32 36 40 42 44 47 48 48 48 48 47 46 46 44 45 46 48 49 51 54 59 58 55 52 47 47 45 45 48
29 30 29 29 29 28 27 25 25 25 26 26 26 28 30 31 34 36 37 37 37 38 40 40 40 41 41 42 44 47 49 52 53 55 60 62 63 66 63 57 53 50 49
31 32 31 29 28 28 27 27 28 28 29 30 30 30 30 31 32 33 35 35 36 37 37 38 39 40 42 44 46 49 52 57 59 60 63 66 66 67 74 68 71 89 71
32 32 31 30 28 28 28 29 30 34 36 36 35 34 34 35 35 35 35 35 36 37 38 38 37 36 37 37 38 40 42 45 50 56 61 66 71 76 81 84 78 83 78
30 31 30 28 28 30 35 38 38 37 37 36 36 35 34 35 35 36 37 37 36 34 33 32 32 32 32 31 31 31 33 35 39 45 49 53 58 63 68 73 69 74 68
33 34 32 32 35 38 40 39 38 38 38 37 36 36 37 39 39 37 35 34 34 34 34 33 33 33 33 33 33 33 34 34 34 35 38 45 51 56 60 65 72 68 65
35 35 36 38 41 41 41 41 41 41 42 43 44 44 41 38 36 36 37 36 37 36 36 36 35 35 35 35 35 36 37 38 39 42 44 47 48 51 57 64 73 82 75
38 40 43 44 43 42 41 42 45 48 50 47 42 40 38 38 39 40 40 40 39 37 36 35 34 33 32 33 34 35 36 38 41 43 44 47 51 53 55 60 66 72 80
43 45 44 42 40 41 43 50 55 51 44 41 40 40 40 41 42 42 42 40 37 35 33 30 27 25 24 23 23 24 28 34 33 37 42 46 51 53 56 61 62 62 70
43 41 37 39 43 47 56 56 49 45 44 43 42 43 44 45 45 44 42 37 33 30 26 23 21 19 18 17 17 16 20 20 24 28 31 37 41 41 44 45 45 50 54
37 38 43 49 55 55 53 51 49 49 48 47 48 48 49 47 44 40 35 31 27 24 22 21 19 18 17 16 16 19 19 18 22 30 33 35 37 38 40 39 37 42 50
41 46 50 51 53 53 54 53 52 52 52 53 52 49 47 42 36 33 30 27 25 24 23 22 20 19 19 20 20 21 22 26 30 33 32 32 35 35 34 34 39 47 45
47 48 50 53 54 54 53 51 52 53 52 51 48 46 40 36 33 31 29 27 26 24 21 20 21 22 22 22 23 23 24 28 26 23 22 21 24 24 25 27 32 29 34
49 50 52 53 54 52 53 54 53 52 52 51 50 43 38 34 34 31 29 26 24 24 24 25 26 26 27 26 24 25 26 24 21 17 16 15 15 16 21 22 24 30 34
46 48 51 54 53 54 56 54 54 58 60 54 45 40 37 39 36 31 28 27 28 28 30 33 33 31 28 26 23 25 26 24 22 22 21 18 20 22 23 21 22 24 30
46 51 52 52 54 54 55 58 64 62 55 47 42 42 40 34 32 30 31 31 31 34 34 32 29 28 26 24 24 27 26 27 27 27 27 27 29 31 30 28 28 27 23
48 49 50 49 53 58 63 61 60 57 49 45 44 39 35 34 33 33 33 34 32 28 28 28 27 26 24 24 26 28 28 29 30 32 34 35 34 35 34 34 33 29 27
45 46 51 56 59 59 57 54 51 48 45 44 40 37 35 34 33 31 28 27 29 29 28 25 23 22 21 22 28 32 36 36 37 38 39 34 36 36 35 42 42 42 34
48 51 56 56 59 56 54 51 50 47 44 39 37 35 31 27 25 26 28 29 28 24 21 19 18 19 23 25 29 36 40 48 49 47 38 36 38 39 36 37 39 39 42
50 53 57 56 57 56 55 51 48 43 39 35 29 24 22 25 28 30 27 23 20 20 20 20 19 23 26 29 33 40 43 51 52 45 42 43 42 39 36 34 36 40 46
55 58 59 57 53 52 52 45 38 34 28 22 21 23 26 30 28 23 21 21 21 23 23 25 27 29 30 31 34 38 44 46 47 48 50 45 44 40 28 29 38 45 59
57 57 56 52 53 47 39 31 24 21 21 22 24 30 30 26 22 23 23 23 24 24 27 31 36 37 36 37 39 47 48 45 47 51 48 44 41 38 30 31 40 59 83
58 56 54 49 40 31 25 21 21 22 23 27 32 31 27 24 24 23 23 24 24 30 36 40 41 40 39 43 51 53 52 54 55 52 46 40 41 34 29 33 50 74 83
55 54 43 33 27 24 22 23 24 25 30 33 32 28 26 26 25 23 21 23 27 32 34 38 42 42 44 46 51 50 52 58 57 52 47 45 43 35 32 42 64 76 93

GFSMW_prec_cthk_018.txt.gz
RH
32 28 24 23 26 28 27 26 25 23 23 24 26 28 30 34 38 40 42 44 46 48 50 51 52 53 52 52 52 51 50 48 50 51 46 47 46 45 45 45 44 43 42
28 25 24 25 26 28 28 27 26 25 25 25 27 29 31 34 37 39 41 43 45 46 46 46 46 46 44 42 41 42 43 44 47 51 53 51 49 45 48 50 50 50 50
23 23 25 28 30 30 29 28 27 27 26 26 28 28 31 34 35 37 39 40 40 39 38 38 38 38 38 39 41 44 47 49 50 54 58 60 56 54 49 49 49 51 53
25 27 29 31 32 30 31 31 30 28 27 27 28 29 32 34 35 36 36 37 38 38 38 38 38 39 39 38 36 35 36 37 39 42 48 54 57 59 54 54 61 60 65
29 31 33 33 33 34 32 30 29 28 28 28 30 33 36 37 39 38 38 36 35 34 35 35 32 30 29 29 29 29 29 30 30 33 37 41 44 49 55 48 49 52 58
32 33 33 34 35 33 32 30 29 31 33 33 34 35 37 37 36 36 35 36 37 35 34 33 33 33 32 32 32 32 32 32 32 32 33 35 40 43 51 53 50 52 49
34 34 34 34 33 33 32 32 35 36 36 38 39 39 39 39 39 40 39 35 33 33 34 35 34 34 33 32 32 31 31 32 32 33 35 37 41 44 46 51 50 51 45
34 35 36 35 35 35 36 38 40 41 42 43 42 43 43 42 37 34 34 35 36 36 36 34 33 32 30 28 27 25 25 26 27 30 33 36 37 41 46 55 56 52 47
36 37 36 36 39 39 41 44 45 44 44 44 46 46 41 38 38 38 39 39 39 37 35 31 28 25 23 21 19 18 17 17 20 25 26 28 32 40 49 58 62 69 65
38 38 38 41 43 45 45 45 44 44 47 51 49 43 40 41 42 44 43 40 35 32 29 26 23 20 19 18 18 18 17 17 19 19 17 20 26 31 40 41 44 48 57
42 42 45 46 46 44 45 44 47 53 54 48 44 44 45 46 46 43 39 34 31 27 24 22 21 21 21 21 20 18 16 16 15 16 19 26 26 29 30 33 36 39 41
47 47 46 44 43 45 50 55 54 49 46 47 48 48 45 45 43 39 34 30 26 25 25 24 22 21 20 19 18 17 17 18 19 23 28 28 30 30 29 31 30 31 33
45 43 42 44 50 56 55 51 51 49 49 51 51 48 46 43 39 35 32 29 28 28 25 23 22 21 21 21 22 22 23 24 27 32 32 29 26 23 25 25 25 26 31
41 43 50 55 55 54 53 53 51 51 52 52 50 49 46 43 39 36 31 30 29 26 25 25 23 23 24 26 25 25 24 25 30 33 32 28 27 27 28 28 31 33 39
47 53 52 51 52 54 53 52 53 54 53 52 51 46 45 44 39 33 33 31 28 27 25 24 25 26 24 21 21 22 23 26 29 27 25 23 23 26 28 35 33 37 37
53 49 48 50 51 52 52 52 54 56 53 51 46 45 45 44 37 33 32 29 27 25 25 24 21 19 21 22 21 24 24 23 22 21 20 22 23 27 32 35 36 37 44
47 44 47 48 50 52 52 54 55 56 56 53 50 44 39 34 33 32 30 28 27 23 19 19 20 19 18 16 16 23 24 23 22 22 23 25 29 34 35 35 37 38 39
44 43 44 46 48 51 54 57 57 56 52 49 45 38 34 34 32 30 28 22 18 19 20 19 17 16 16 16 18 24 24 24 26 30 32 35 35 36 42 46 46 44 35
42 43 45 48 50 55 57 59 55 51 45 44 41 36 35 33 28 22 18 20 21 20 17 17 17 17 16 17 23 27 30 31 32 30 31 40 40 41 49 52 49 44 34
43 45 49 53 56 58 56 49 48 45 43 43 38 35 30 23 19 20 22 23 21 19 18 18 18 18 17 18 26 34 37 35 33 33 39 38 43 48 52 52 52 46 33
46 49 52 53 55 55 55 50 44 44 43 37 31 25 19 20 22 25 25 22 21 20 20 19 18 18 23 25 29 37 37 39 44 45 37 36 49 51 48 47 48 43 40
47 50 53 53 54 55 48 45 43 39 33 26 21 20 22 25 28 26 23 23 23 22 21 19 18 23 26 28 31 37 39 45 48 43 41 50 52 46 42 43 43 40 41
48 51 55 55 55 49 45 42 36 29 22 21 22 24 27 30 28 25 25 25 24 23 21 23 25 25 27 29 31 35 40 44 46 47 54 55 47 42 39 42 37 35 42
51 55 57 54 49 45 40 32 25 23 23 24 25 28 30 28 27 28 27 25 23 24 26 28 31 30 31 35 36 40 42 43 46 51 57 51 44 43 44 39 30 36 48
55 53 51 50 46 39 28 25 25 25 26 27 29 31 29 28 28 27 26 25 24 28 30 32 37 38 37 39 45 50 51 52 54 53 51 46 45 41 41 34 32 41 68
52 51 50 41 32 28 27 27 28 29 29 30 31 30 29 29 28 27 24 24 24 28 28 31 39 41 42 44 47 50 53 56 52 48 50 51 45 44 41 35 41 66 85

GFSMW_prec_cthk_021.txt.gz
RH
30 32 34 33 28 24 23 25 28 29 29 28 29 31 33 36 39 39 40 42 44 46 47 46 46 44 42 40 39 39 38 37 40 43 41 41 39 38 39 42 42 43 44
31 32 31 27 24 23 25 28 30 30 30 28 29 30 33 35 36 37 39 40 41 40 38 38 39 39 38 37 36 35 35 34 33 38 36 38 36 39 40 40 42 43 45
29 27 25 23 26 29 30 31 31 31 30 31 33 34 34 34 36 36 36 36 38 39 38 36 34 34 34 33 32 29 28 27 28 29 34 40 39 39 35 37 38 40 42
26 24 24 27 30 34 35 35 33 32 32 31 30 29 30 30 32 35 36 36 36 36 36 36 37 34 31 30 30 30 30 30 30 30 31 31 32 36 32 33 35 34 38
28 27 28 31 34 37 37 36 35 34 31 29 30 31 32 34 36 37 38 38 38 39 37 34 32 32 32 31 30 30 29 29 29 30 31 32 35 37 39 33 34 32 36
30 31 32 33 37 38 37 38 36 33 30 30 32 35 38 40 41 41 41 39 36 34 34 34 33 32 30 27 25 24 22 21 21 22 24 31 34 36 38 38 33 35 36
31 33 34 37 38 38 38 37 37 35 35 37 39 41 42 44 43 42 38 36 35 35 32 30 27 25 23 21 20 19 18 17 17 16 18 22 23 25 29 32 34 37 37
35 35 37 39 40 41 40 40 41 40 40 41 44 45 46 47 45 42 39 38 36 33 29 26 23 22 21 20 19 18 17 17 16 17 18 18 17 20 27 30 43 41 35
37 37 38 40 42 43 43 44 44 43 44 44 47 49 49 46 42 41 38 35 34 30 28 25 23 22 20 19 18 18 18 18 18 17 17 18 19 28 29 36 38 44 41
37 39 41 43 47 48 48 49 48 46 48 50 50 47 44 44 44 39 38 36 33 29 25 24 23 22 21 20 19 20 20 20 20 21 21 23 29 26 26 26 26 30 43
39 42 47 49 52 53 50 49 52 53 52 49 46 47 48 44 42 40 38 36 33 28 26 25 24 22 22 21 21 22 21 20 18 17 18 24 23 21 22 22 26 35 41
47 50 51 52 51 49 50 56 57 53 50 49 49 49 45 44 43 39 38 35 33 28 26 24 23 23 24 23 21 18 15 14 15 18 21 20 19 19 20 22 27 36 40
47 50 49 49 51 55 59 57 54 53 51 51 50 49 47 46 39 40 36 32 29 26 25 24 24 24 22 18 15 15 14 13 14 16 18 18 18 18 20 23 29 33 37
54 51 49 50 58 59 56 54 54 53 53 51 50 50 49 47 43 38 32 29 27 26 25 25 23 18 16 16 14 12 13 15 17 18 19 19 20 21 26 31 32 38 38
53 47 47 59 59 54 54 53 53 54 53 52 53 51 49 41 36 33 30 29 27 26 23 19 17 18 16 14 14 14 16 18 18 19 19 21 24 27 34 37 37 42 44
49 48 58 63 59 55 52 52 54 54 55 53 49 43 41 36 32 31 30 28 24 21 18 19 18 16 15 15 14 16 22 23 22 21 21 24 27 30 35 36 37 44 47
48 57 63 58 53 48 50 53 55 56 53 47 43 41 39 34 33 31 26 22 19 20 20 18 16 16 16 16 17 25 25 24 24 26 28 27 34 37 37 35 42 47 47
61 62 50 47 45 49 52 55 57 55 50 43 41 41 37 33 29 23 20 20 21 21 19 18 18 17 17 18 21 25 24 23 26 30 33 35 36 38 42 48 52 44 36
51 43 43 44 48 52 55 57 54 53 48 43 41 39 31 25 20 20 22 23 22 20 19 19 18 18 18 20 23 26 27 24 29 32 36 39 36 40 51 60 54 38 34
37 39 43 48 52 52 52 52 53 51 45 41 36 29 22 20 22 24 24 23 21 20 20 19 19 20 19 19 24 30 32 32 33 36 38 38 41 48 61 59 52 43 38
40 44 47 51 53 54 53 52 52 46 41 35 26 22 22 23 25 25 23 22 22 21 20 19 19 20 22 25 26 32 34 38 40 42 38 38 46 57 56 57 50 48 48
44 46 51 54 57 57 51 50 46 41 31 25 23 23 25 27 27 24 23 24 22 22 22 20 21 24 26 27 29 34 37 43 47 43 42 47 49 46 51 49 47 48 44
47 48 50 54 55 50 49 46 39 29 25 24 24 26 29 29 25 23 24 23 24 24 23 25 28 28 26 28 31 35 41 46 49 48 52 48 43 46 45 42 44 42 41
46 49 54 54 51 50 44 37 28 26 25 25 27 30 29 25 24 24 25 26 26 26 29 32 34 33 31 32 35 41 48 49 50 51 47 43 42 50 45 42 40 42 59
49 54 54 52 49 41 32 28 27 26 27 29 31 30 26 24 24 26 27 28 29 31 36 36 41 41 39 39 43 51 53 56 56 52 48 44 47 46 41 41 44 57 74
53 53 53 48 36 30 28 27 27 28 31 33 30 27 25 26 29 28 26 29 30 34 36 38 42 43 43 43 46 50 54 60 53 53 52 49 51 46 45 47 58 77 98

GFSMW_prec_cthk_024.txt.gz
RH
31 32 31 30 30 32 33 29 25 26 29 34 40 41 38 40 42 45 46 44 44 44 43 39 37 36 35 34 33 33 33 35 34 31 31 30 32 36 35 43 42 38 39
31 31 30 30 31 30 28 24 25 29 34 37 37 36 36 38 40 39 37 35 35 35 35 35 34 35 36 37 36 33 30 30 31 31 30 29 29 30 34 28 28 33 32
31 32 32 30 29 27 24 25 30 33 36 38 39 39 38 35 32 32 33 32 32 34 37 39 40 39 37 32 29 28 30 30 29 30 31 34 31 29 27 27 27 30 32
32 33 31 27 24 25 27 31 34 36 37 37 37 36 33 31 31 32 35 38 41 43 42 40 36 32 29 27 26 24 23 24 23 23 23 24 27 31 28 27 26 26 29
32 33 32 28 28 29 32 35 37 38 37 36 35 32 32 34 37 40 42 44 44 43 39 35 30 27 25 22 20 18 18 19 20 21 22 23 24 23 27 24 24 24 25
32 34 32 32 33 34 34 36 38 38 38 37 36 36 38 42 44 46 48 47 44 39 33 29 27 24 21 20 19 19 18 18 18 19 23 24 23 21 26 23 20 24 25
31 33 33 34 36 36 36 38 39 40 39 37 38 39 43 47 50 49 47 44 38 32 30 28 26 23 22 21 20 19 19 18 18 18 24 22 22 23 25 29 31 30 29
34 35 36 38 38 38 39 40 40 40 40 40 41 46 50 51 49 46 42 36 33 33 32 30 27 23 21 21 20 20 19 20 21 25 24 24 23 24 27 33 31 30 19
36 37 39 41 40 41 41 42 44 45 43 43 49 51 50 48 46 43 39 35 33 33 31 29 27 23 22 22 21 21 21 21 22 20 19 18 18 20 22 21 25 27 25
39 38 39 41 43 44 46 48 49 47 48 52 52 50 48 46 46 41 36 34 35 32 29 27 25 24 23 22 22 22 19 17 17 17 17 16 16 22 21 21 22 23 28
41 40 42 46 49 50 52 50 51 53 55 51 51 50 49 49 46 43 40 40 36 32 28 26 24 24 24 22 19 17 17 17 16 16 16 16 20 23 24 24 24 25 34
44 46 49 52 52 51 52 53 57 59 54 52 52 52 52 48 46 44 40 38 33 29 27 26 25 24 20 17 17 16 16 17 16 16 18 20 24 23 25 25 27 35 38
47 49 50 54 54 54 54 59 60 55 53 53 54 54 51 47 44 39 38 32 30 29 27 26 23 19 19 17 16 17 17 17 17 19 23 25 27 26 27 29 35 38 39
50 54 56 59 58 54 59 65 59 57 56 56 55 51 47 44 39 35 32 31 30 28 26 23 20 20 18 16 16 15 17 18 20 23 28 28 28 29 29 34 39 41 43
54 59 64 64 55 56 67 66 63 60 55 54 52 48 43 38 35 34 33 31 28 25 22 22 22 18 16 16 14 15 19 20 22 28 28 29 30 31 36 41 42 45 44
61 67 64 57 57 67 67 63 58 55 54 54 50 46 42 38 38 33 30 26 24 23 24 23 19 17 16 15 14 16 23 23 30 29 29 30 32 36 36 40 44 46 50
60 61 60 58 68 69 61 54 53 55 56 53 48 45 43 40 33 28 25 24 24 25 24 19 18 17 16 16 16 24 24 32 31 31 31 30 33 36 38 41 44 46 55
63 62 62 68 64 51 49 53 56 58 51 47 47 44 39 32 28 25 25 25 26 25 20 20 18 19 19 20 24 26 27 32 32 34 38 35 35 43 45 44 48 55 53
55 62 65 52 44 47 52 55 54 48 48 48 44 39 33 28 25 25 26 27 24 20 19 19 20 20 21 23 26 28 34 33 32 33 37 41 43 46 48 53 55 47 44
67 56 42 41 48 53 54 54 50 50 49 45 38 32 27 25 25 26 27 24 20 19 19 20 21 24 25 27 29 34 36 34 34 35 40 45 48 48 52 53 50 49 45
48 38 41 47 50 52 53 52 52 52 45 39 31 28 25 25 27 28 25 21 20 20 20 22 25 27 29 30 31 37 38 38 37 39 39 47 53 53 53 53 52 54 53
37 42 46 49 51 54 53 54 52 46 40 30 28 25 26 29 29 25 22 21 22 22 25 26 28 33 36 34 35 39 39 42 46 44 46 53 55 53 52 49 53 51 49
43 45 47 49 50 51 54 50 45 39 29 27 25 27 31 30 27 24 22 23 25 28 28 28 32 36 37 39 39 39 40 41 47 51 56 56 53 51 48 50 50 51 58
45 45 47 49 51 54 49 44 34 27 25 25 29 32 31 28 25 24 25 27 30 30 31 33 34 35 39 41 40 39 38 44 49 55 56 52 53 52 51 46 46 57 71
44 45 47 53 52 48 38 28 26 25 27 30 33 32 29 26 25 28 30 31 30 31 37 37 38 39 41 42 43 44 46 50 56 58 52 53 53 50 45 45 54 74 96
42 49 53 51 45 32 26 25 25 28 31 34 34 31 29 28 30 31 31 32 33 38 38 36 41 42 45 44 43 43 47 55 59 55 56 56 55 49 49 55 81 98 98

GFSMW_prec_cthk_027.txt.gz
RH
28 31 35 36 37 37 36 36 36 37 38 36 33 38 43 46 48 50 52 52 48 42 38 35 34 35 36 38 38 39 37 32 30 27 27 24 24 25 30 28 33 33 31
29 31 34 34 36 36 35 35 35 35 35 33 36 40 43 44 45 44 41 37 33 33 34 36 38 41 42 40 34 29 26 25 25 24 22 23 20 24 22 19 20 21 24
30 31 32 33 33 33 34 32 32 30 29 32 38 41 41 39 38 36 32 32 34 38 42 45 44 41 35 30 26 23 22 22 19 20 21 23 23 20 20 19 22 22 20
30 31 31 32 33 31 30 28 27 28 32 36 39 40 39 37 35 34 35 38 42 45 45 44 41 35 30 26 21 19 19 21 20 18 20 20 21 26 26 21 18 20 21
32 34 34 34 33 31 29 28 30 31 34 35 36 37 37 37 37 38 41 44 46 46 43 38 32 28 24 23 20 19 19 20 20 19 20 21 23 23 22 21 20 19 18
34 35 34 34 33 32 32 33 33 33 35 37 38 39 38 37 39 43 46 48 45 40 34 29 28 26 25 24 22 21 20 20 20 20 20 25 25 21 20 18 17 19 21
36 34 33 32 35 34 35 36 36 37 39 41 40 39 40 42 46 49 49 45 39 32 29 29 27 25 25 24 23 22 22 22 22 21 20 19 18 18 19 19 19 25 19
36 34 33 33 35 37 39 39 41 41 42 42 43 40 41 48 52 48 43 40 36 34 33 29 28 27 26 24 24 24 24 23 19 18 18 17 16 16 17 18 26 21 17
36 37 37 37 38 41 42 43 42 43 46 45 42 47 52 51 48 45 43 41 38 34 32 30 29 27 26 25 25 23 19 18 18 17 16 16 15 16 17 20 23 26 23
36 40 41 39 39 41 43 45 48 48 46 46 52 54 51 48 47 46 45 41 35 32 31 29 27 27 27 25 21 19 19 18 17 16 16 16 17 17 19 21 24 25 28
39 42 43 42 42 46 48 51 50 48 50 55 56 52 49 48 48 47 42 37 31 28 28 29 29 28 24 20 20 20 18 17 17 17 18 19 20 22 24 25 25 27 35
41 45 46 47 48 50 52 51 52 53 57 59 55 52 49 50 49 44 38 28 26 28 30 30 28 23 22 22 21 19 18 17 17 18 20 22 24 26 27 27 29 36 37
46 47 49 50 49 52 54 56 56 54 61 63 58 54 54 51 46 42 33 29 30 31 30 27 23 23 24 22 19 17 16 17 18 19 23 25 29 29 29 33 37 36 40
48 51 53 53 54 57 60 61 56 59 68 64 59 57 51 48 45 40 33 31 31 29 25 24 25 25 22 19 16 16 16 17 19 21 26 30 30 31 33 36 40 42 42
49 51 53 55 60 65 67 60 60 70 65 61 59 53 50 46 41 36 33 31 28 25 25 26 26 21 18 16 16 17 19 20 22 26 32 32 32 36 42 44 45 44 49
48 51 57 62 67 66 61 60 70 67 63 57 53 52 47 41 37 34 32 28 25 25 27 26 21 18 16 16 18 21 22 24 28 32 32 32 34 37 42 44 44 54 56
50 56 64 68 67 65 63 71 64 58 55 54 52 48 41 37 35 32 28 26 26 27 25 21 18 17 17 18 20 24 26 28 33 34 34 34 35 41 41 44 46 49 55
53 61 65 68 66 66 67 58 56 53 54 51 48 41 38 36 32 28 26 26 27 24 21 19 18 18 19 21 24 27 29 34 37 38 40 40 39 42 46 50 51 54 52
60 64 67 65 67 63 54 52 53 55 52 48 43 41 37 31 27 24 24 25 24 21 19 18 18 20 23 25 28 32 36 37 39 41 43 45 47 46 50 58 61 52 48
61 65 67 70 58 49 50 53 54 52 48 46 44 38 31 26 23 24 26 24 21 20 20 20 22 24 24 29 33 40 42 40 41 40 42 45 47 49 58 62 59 54 47
66 67 66 54 40 48 52 54 53 49 45 44 40 30 24 23 26 26 24 21 21 22 22 24 24 26 31 35 39 43 46 50 48 45 42 44 48 59 58 58 57 54 55
61 53 41 40 46 51 54 51 45 44 45 40 27 23 23 27 27 24 23 23 24 25 25 25 25 29 35 37 41 44 48 50 51 47 45 46 56 56 56 57 56 55 54
43 38 41 47 51 50 46 45 48 45 34 25 22 25 28 28 26 24 25 27 27 27 26 27 29 32 36 38 43 44 43 44 48 47 48 53 53 52 53 52 51 53 63
39 45 49 47 47 46 47 50 42 28 24 23 26 29 29 28 27 28 28 28 28 28 30 32 35 38 39 41 42 42 43 42 44 49 53 50 52 54 52 48 48 67 94
47 46 44 44 44 50 48 36 26 24 24 27 30 32 31 30 30 30 30 30 31 34 36 38 39 41 40 41 45 50 47 47 52 55 51 51 55 51 47 49 78 98 98
43 42 43 46 50 45 32 25 24 26 28 32 35 36 35 33 32 32 31 32 34 36 37 39 44 44 46 45 45 45 45 55 56 55 54 56 55 50 56 86 97 98 98

GFSMW_prec_cthk_030.txt.gz
RH
32 27 27 28 31 35 39 40 38 38 37 40 42 42 41 41 43 49 52 50 46 42 38 33 30 32 35 38 39 37 33 28 23 19 16 15 16 17 18 24 21 20 20
35 27 29 32 35 39 40 40 41 40 38 37 38 39 38 40 45 47 43 39 36 34 33 33 36 39 40 40 38 32 25 20 19 18 17 17 16 19 16 16 16 17 18
36 29 30 33 37 39 38 39 37 37 38 38 36 36 37 38 38 38 38 37 38 37 38 39 40 40 40 36 27 22 20 20 19 18 19 21 21 18 19 19 18 18 14
39 32 31 33 34 35 35 34 34 35 34 32 32 33 35 36 38 39 40 41 40 40 41 40 40 37 29 24 22 22 22 20 19 19 19 20 21 25 26 19 13 14 13
41 37 33 32 32 32 33 34 34 34 34 34 34 34 35 38 40 41 40 40 42 42 41 40 34 27 24 23 22 22 21 20 21 21 21 20 18 18 18 17 15 15 15
42 41 36 35 35 35 35 33 33 34 34 35 36 37 39 40 40 41 43 44 45 44 39 33 28 27 24 23 22 22 22 23 23 22 19 17 19 18 19 18 16 16 16
41 42 37 35 35 35 34 33 34 36 37 38 40 41 41 42 44 44 46 47 44 40 36 32 28 26 25 24 24 24 24 23 19 18 18 18 17 17 18 19 18 20 17
39 41 39 38 35 34 34 36 38 39 41 43 43 44 46 44 45 49 48 44 42 40 34 30 27 25 25 25 25 25 21 19 20 19 17 16 16 17 18 19 22 20 19
37 38 37 36 37 37 39 41 42 43 43 44 47 47 43 49 52 49 44 44 41 37 29 25 25 25 26 26 24 21 21 20 17 16 15 15 15 16 18 20 22 26 26
38 37 37 39 39 40 41 43 43 44 47 48 46 45 52 56 52 48 45 42 39 32 25 25 26 27 26 24 21 22 20 17 15 15 14 15 16 17 18 21 25 27 30
37 37 40 41 41 43 44 45 47 51 50 48 49 53 60 57 52 49 45 44 37 28 26 27 27 25 23 22 22 20 17 15 15 13 13 14 16 18 21 24 28 31 35
39 40 43 43 44 45 47 50 52 52 52 53 55 57 63 59 53 51 47 39 29 27 27 26 25 24 23 23 21 17 14 14 13 12 13 15 18 21 26 30 31 34 37
44 44 46 48 48 49 50 51 54 56 58 60 59 65 61 56 54 48 41 33 28 28 27 25 25 24 23 19 15 13 14 13 13 13 16 18 23 28 32 33 35 37 42
46 48 49 52 53 54 54 55 58 63 67 63 64 65 60 58 49 44 35 29 28 27 26 25 24 21 17 15 14 14 14 15 17 18 20 25 31 35 37 40 44 47 48
51 51 53 56 56 56 55 59 65 68 65 65 69 61 57 50 45 36 30 28 28 26 25 23 19 17 16 15 16 17 18 20 21 21 25 31 37 38 44 47 49 49 48
51 53 53 55 56 58 60 65 68 67 69 69 60 59 52 47 38 31 29 28 26 24 22 19 17 16 16 16 19 21 22 23 24 26 32 36 37 39 45 48 48 52 58
52 51 52 54 56 61 66 69 67 70 65 61 59 51 49 42 33 30 29 26 23 22 19 17 16 16 17 19 21 23 25 27 29 34 36 37 39 41 42 44 49 51 55
47 49 51 55 61 66 67 66 72 63 61 55 52 50 45 35 32 30 25 23 22 19 17 16 17 18 19 20 22 25 29 32 37 39 42 42 42 43 48 49 52 55 57
46 49 56 63 66 67 68 73 64 59 53 52 50 43 37 34 30 24 24 22 20 18 18 19 18 19 20 22 25 35 37 38 38 42 45 49 47 48 50 57 58 58 53
58 63 67 67 68 71 70 61 51 52 53 50 44 39 35 29 24 25 23 21 20 20 20 20 20 20 22 24 31 39 40 43 42 41 44 44 48 48 57 62 61 58 52
61 68 71 69 68 62 50 49 51 53 49 42 39 34 27 24 26 25 23 22 22 22 21 21 21 22 25 28 32 40 45 49 48 47 40 39 48 57 60 59 61 58 57
62 60 64 64 53 46 47 51 52 47 42 39 33 26 25 27 27 26 24 23 24 24 24 23 23 25 28 31 34 42 44 50 50 46 40 48 56 57 58 60 57 56 65
65 62 52 45 43 48 53 51 45 42 39 30 25 26 29 30 29 27 25 26 27 27 26 26 27 28 31 33 36 41 43 44 46 44 53 58 55 55 55 52 55 76 96
46 39 39 44 50 50 47 44 43 37 28 24 27 29 31 32 32 29 28 29 30 29 29 30 31 33 35 35 38 43 43 42 44 52 57 53 53 54 53 52 83 98 98
40 43 44 45 47 46 45 43 36 28 25 27 29 31 33 34 33 32 33 33 32 33 33 33 35 38 38 40 46 45 47 51 56 58 53 51 53 49 54 91 97 98 98
46 45 45 45 44 45 44 36 28 26 28 28 31 34 36 37 36 34 33 34 33 32 33 34 40 40 42 43 44 46 50 57 58 56 55 57 53 60 95 98 97 98 98

GFSMW_prec_cthk_033.txt.gz
RH
35 42 33 25 26 29 35 36 35 39 44 48 48 50 51 49 50 51 50 52 52 46 41 37 37 36 35 35 34 33 32 28 23 20 18 17 17 17 18 18 17 17 17
35 43 39 28 29 31 32 34 37 42 42 44 45 45 46 47 47 45 44 43 40 39 39 40 39 37 37 35 31 27 23 21 20 20 18 17 17 18 17 18 16 14 15
35 42 42 30 31 35 37 39 42 42 41 41 40 41 42 40 39 36 37 39 41 41 41 39 39 38 35 31 26 22 21 20 20 20 21 21 21 18 17 15 16 16 14
37 43 42 34 32 36 40 42 45 42 40 39 38 39 37 35 35 36 39 40 41 41 42 42 40 35 29 24 22 22 21 21 21 21 21 21 21 20 21 19 15 15 13
40 42 42 40 34 36 37 37 38 38 38 39 37 35 35 36 38 39 41 43 44 44 44 41 37 29 25 23 23 23 23 22 22 21 20 18 18 18 20 19 17 15 13
37 41 44 43 38 35 35 34 35 36 37 38 37 37 39 41 43 44 45 46 45 44 42 39 31 25 24 24 24 24 23 23 21 20 19 19 18 17 16 16 16 17 17
37 41 45 44 40 37 35 35 36 37 38 38 39 41 44 46 46 47 47 46 45 43 40 35 28 25 24 24 24 23 22 21 20 20 20 19 17 15 15 17 17 17 17
38 40 41 43 41 38 36 34 34 35 39 41 43 46 47 47 48 48 49 50 49 43 39 32 26 25 24 24 23 21 21 21 21 20 18 16 13 12 13 15 18 17 16
38 39 40 41 39 38 36 35 38 40 43 44 46 48 50 48 47 52 57 56 48 42 35 27 27 26 24 22 21 22 23 21 18 15 14 12 10 10 11 13 17 24 24
39 39 40 39 38 37 38 39 43 45 46 48 49 53 50 50 52 59 64 56 48 39 30 28 25 22 22 23 24 23 20 16 13 12 11 10 9 10 13 17 20 23 29
40 40 39 40 41 39 40 43 45 46 48 52 56 54 55 58 60 64 60 53 45 34 28 24 23 23 24 25 22 18 14 12 11 11 11 11 12 14 17 20 24 30 33
40 41 40 42 43 42 43 45 47 51 55 55 57 59 64 65 64 62 56 49 37 28 24 23 24 26 25 21 16 13 12 12 12 13 14 15 14 18 21 25 30 33 35
43 43 44 45 46 46 47 50 52 54 58 60 62 67 72 65 65 59 50 38 32 25 24 26 27 24 19 15 12 12 14 15 16 17 17 17 19 22 26 31 35 39 45
46 47 48 49 50 50 52 55 56 58 59 62 70 74 67 69 61 52 44 33 27 26 28 28 24 18 14 13 14 16 16 17 18 18 19 21 24 28 36 37 43 47 45
50 50 52 54 55 56 58 59 59 60 62 72 77 72 71 63 57 46 36 29 28 29 28 23 17 14 14 15 16 18 18 18 20 22 24 26 31 36 39 46 44 46 47
56 57 57 60 61 60 60 59 60 64 73 78 74 72 64 61 47 39 32 30 30 28 22 17 16 16 17 15 16 19 19 21 25 28 29 31 34 35 39 42 48 50 57
58 58 59 61 59 59 56 60 66 73 77 76 74 68 59 49 42 33 30 32 28 22 18 17 18 17 16 15 19 21 24 28 31 32 33 34 35 39 40 40 47 48 54
56 57 57 56 56 56 59 65 72 75 78 76 70 53 51 45 33 32 32 28 23 20 19 19 18 17 17 19 23 24 28 29 32 35 35 36 38 41 46 48 48 57 58
54 54 51 49 53 61 70 74 75 79 75 59 54 52 44 34 34 33 28 24 22 20 20 20 19 19 20 22 26 29 29 31 34 32 35 41 40 42 49 58 59 54 54
58 58 59 65 71 74 76 77 79 70 57 54 51 43 34 35 33 29 26 24 22 21 21 21 22 23 24 24 29 32 37 35 31 32 34 38 44 52 59 61 58 56 49
59 65 69 71 75 76 72 74 64 53 52 51 43 34 36 33 30 29 27 24 23 23 23 23 24 25 26 25 30 34 38 39 40 38 38 40 52 60 57 57 57 55 68
72 70 69 69 68 73 67 56 51 52 51 41 34 36 33 31 31 31 28 27 27 26 25 25 25 26 27 28 29 35 38 45 45 45 45 53 58 54 53 53 53 77 97
63 66 68 71 63 51 48 51 52 47 38 36 35 32 32 33 33 31 30 30 30 28 27 28 27 27 27 28 29 35 39 43 46 50 56 55 53 51 48 52 88 97 96
64 61 54 46 43 48 50 49 46 39 36 34 31 32 33 34 34 35 34 32 31 29 30 30 29 28 29 30 34 39 38 42 46 51 51 52 53 51 56 90 96 97 97
51 47 46 50 51 49 48 46 39 36 33 31 31 32 34 35 36 36 35 35 32 33 33 31 32 31 29 33 42 42 44 46 52 53 53 52 50 60 92 95 98 98 98
47 48 50 49 47 47 44 42 35 33 31 31 32 34 36 37 37 36 36 35 32 32 31 32 32 31 35 37 35 38 41 47 51 54 54 54 69 94 97 98 97 96 98

GFSMW_prec_cthk_036.txt.gz
RH
41 37 35 42 39 27 26 30 46 49 51 48 53 60 62 62 61 58 56 56 52 48 43 40 40 39 38 36 33 31 28 23 18 17 18 19 19 19 21 20 18 16 15
43 38 35 42 42 30 26 29 31 40 45 48 55 57 60 60 56 56 54 47 41 37 39 40 40 40 38 35 30 25 20 18 19 20 20 20 19 20 19 17 16 15 15
44 39 34 40 44 36 28 30 32 37 42 48 53 54 55 55 56 50 45 39 38 40 41 42 43 42 38 30 23 20 21 21 22 22 23 21 20 18 17 17 17 16 15
44 39 36 41 48 42 31 33 36 41 46 50 50 50 50 47 46 40 38 39 42 44 45 45 44 39 30 22 22 22 23 23 23 22 21 21 21 21 20 18 16 15 13
44 39 38 44 49 45 33 35 38 43 45 45 44 43 44 42 38 40 42 43 46 47 47 44 39 31 26 23 24 25 24 23 21 21 21 20 19 20 22 20 16 12 10
43 39 43 49 51 50 43 39 40 41 42 40 40 41 38 39 41 44 45 47 48 47 47 42 36 29 25 26 25 24 22 21 22 21 20 20 20 18 17 15 15 15 13
44 41 43 50 49 52 47 42 40 39 38 38 39 39 41 43 45 47 48 48 49 50 48 43 33 27 26 26 24 23 23 21 21 21 20 17 16 15 13 11 12 14 13
46 44 45 47 49 52 47 43 40 37 37 37 40 43 45 47 48 49 48 48 49 54 52 40 30 28 28 25 24 23 22 22 21 19 16 14 12 11 10 10 13 15 15
45 44 45 47 48 50 47 44 41 41 39 41 45 47 49 51 52 53 51 52 56 58 48 36 30 29 27 25 23 23 23 21 17 15 12 11 11 10 10 11 14 20 21
48 46 46 45 46 45 44 42 40 40 43 47 49 50 52 55 58 55 57 60 62 54 40 32 30 27 26 25 25 25 21 17 13 12 12 13 13 13 12 14 16 20 24
46 44 44 45 44 43 42 40 40 43 47 49 51 53 58 62 60 63 67 67 59 47 35 31 29 27 25 27 25 20 16 13 13 14 15 16 16 15 15 16 19 22 28
46 45 45 44 42 41 41 42 44 47 49 51 55 59 62 64 68 73 70 63 53 38 33 31 26 27 28 24 19 15 13 14 16 16 17 17 17 18 19 21 24 27 31
48 47 45 43 42 43 44 45 47 49 53 58 61 64 66 69 75 74 68 58 42 37 31 27 30 29 24 19 15 14 15 16 17 18 19 20 22 23 23 27 32 34 38
46 46 46 45 46 47 47 49 52 55 59 63 65 66 69 76 78 71 62 47 40 31 29 31 30 25 19 16 15 15 17 17 19 20 22 24 26 27 32 35 38 44 42
51 50 49 49 50 52 54 56 58 61 64 66 65 67 76 81 73 66 53 41 33 31 32 31 25 20 17 16 16 19 20 20 21 22 24 27 28 32 35 44 44 44 45
55 55 54 55 57 60 62 63 65 66 66 63 69 78 81 77 71 60 40 36 32 33 32 27 21 18 18 17 19 22 22 23 24 25 26 26 27 30 34 36 40 46 52
60 61 61 61 63 65 67 67 67 65 65 70 79 83 81 75 61 44 38 33 35 34 28 22 20 19 19 19 19 20 24 25 25 26 27 27 31 31 30 34 44 45 59
64 61 61 63 66 68 69 66 64 65 71 82 85 84 77 55 45 37 34 35 36 29 24 22 21 21 21 21 20 22 25 24 25 27 29 33 31 33 40 48 50 56 45
60 57 60 64 62 61 61 63 68 78 84 86 85 76 56 44 37 35 37 38 31 26 25 24 23 23 22 22 22 27 26 26 26 28 34 36 36 40 52 56 53 47 43
58 57 61 63 64 67 72 79 83 83 85 84 73 52 42 39 36 38 39 33 29 27 26 25 24 24 24 24 24 30 32 31 28 31 31 34 42 51 55 55 51 47 49
60 64 65 68 75 80 81 82 78 79 81 62 49 42 38 35 39 40 35 32 30 28 26 25 25 24 25 25 28 33 36 34 36 32 32 36 47 55 53 52 50 64 91
59 68 76 78 75 74 74 74 80 66 52 47 40 36 36 40 40 36 35 32 31 28 27 25 24 24 25 26 25 35 35 43 37 35 36 45 51 53 50 50 77 94 95
72 75 72 74 78 77 74 63 52 52 47 40 37 36 39 39 37 36 35 33 31 28 27 25 25 25 26 25 27 33 34 34 39 37 44 48 49 47 51 84 94 94 93
72 73 72 68 64 60 53 54 54 48 41 37 35 37 38 38 38 37 36 33 31 29 27 26 26 26 26 26 31 33 32 34 37 41 43 46 47 56 85 89 91 92 95
62 61 59 55 50 52 54 51 47 40 34 36 34 37 37 38 39 38 35 34 33 29 28 27 28 28 26 29 33 33 36 38 41 45 44 46 57 83 90 91 91 92 95
56 55 53 52 53 50 49 46 38 38 34 33 37 36 38 40 39 37 38 37 31 28 27 25 27 26 27 26 32 35 38 41 44 44 48 59 80 90 92 91 90 94 94

GFSMW_prec_cthk_039.txt.gz
RH
40 43 42 40 38 39 42 35 30 37 51 60 59 63 60 66 72 72 69 63 60 57 49 39 36 37 38 38 37 33 27 21 19 17 17 18 19 20 21 22 19 17 17
40 41 44 42 38 40 44 40 31 34 42 52 56 60 61 67 69 68 62 58 57 49 40 39 40 41 42 40 34 26 21 18 18 19 20 20 20 20 20 18 18 19 18
36 39 44 43 40 39 46 45 34 34 39 45 54 61 61 66 67 67 59 57 49 41 42 44 45 44 41 33 26 20 18 20 22 22 22 20 20 19 20 20 19 18 16
33 38 43 44 41 40 47 48 35 35 39 45 50 54 57 61 59 55 55 49 41 44 46 47 46 41 35 28 21 20 24 24 23 22 22 23 23 23 21 18 16 15 13
31 36 43 46 44 43 50 52 39 38 41 45 51 54 57 56 54 52 46 42 45 48 49 48 45 42 35 24 23 25 25 24 23 23 24 24 23 21 23 20 16 12 9
30 37 44 47 45 45 53 55 44 42 46 49 50 50 50 47 45 42 44 46 49 50 49 47 47 44 31 26 28 27 25 25 26 26 25 23 21 21 20 18 15 14 11
30 36 45 48 49 50 58 58 53 48 47 47 46 45 44 41 41 45 48 50 51 51 49 48 46 39 30 30 28 27 26 26 27 25 22 21 19 17 15 14 12 14 12
33 38 49 49 50 57 59 60 59 53 49 45 42 39 39 42 47 49 52 54 54 54 52 51 46 33 31 30 28 27 27 27 24 22 21 18 16 14 15 15 15 15 15
37 40 53 51 49 54 59 62 62 58 50 45 42 42 46 48 51 55 57 57 58 56 55 52 42 32 31 29 29 29 26 24 24 20 17 15 15 15 15 15 16 19 21
45 51 54 53 53 55 58 63 60 55 48 44 42 46 50 53 57 58 60 63 61 61 57 49 36 33 30 31 29 25 26 25 21 17 15 15 17 17 17 18 19 21 25
53 53 53 54 54 55 57 57 53 49 47 44 46 50 54 57 59 61 65 66 66 62 53 44 34 34 34 29 26 28 26 21 16 15 17 18 19 19 20 21 21 23 27
55 54 56 55 55 56 55 53 50 47 46 47 50 54 57 60 65 67 68 68 67 60 51 36 36 35 29 28 29 27 21 17 17 18 19 20 21 22 22 23 25 26 28
56 55 56 54 52 52 50 49 48 47 48 51 54 57 62 67 69 70 68 71 67 58 43 40 36 30 29 30 28 21 17 18 20 20 21 22 23 23 23 25 27 32 33
56 53 52 51 51 49 48 47 48 50 52 55 59 64 68 71 70 68 71 73 65 51 44 36 33 30 32 29 22 19 20 21 21 22 22 23 23 23 26 31 32 32 31
55 54 51 49 48 47 49 51 52 54 57 61 65 69 71 69 68 73 77 72 58 42 37 33 31 33 30 24 20 20 22 22 21 22 21 20 21 25 31 32 31 35 40
53 53 52 51 51 54 55 56 58 60 63 67 71 72 68 70 76 83 76 64 43 38 34 33 34 32 25 22 21 23 22 22 21 20 20 20 22 25 29 31 35 45 51
59 59 58 58 58 59 62 63 64 66 69 72 70 68 72 81 86 80 68 43 37 36 35 36 34 27 24 23 22 22 24 22 22 21 22 24 26 26 27 31 40 49 54
65 65 65 65 65 65 67 69 71 73 72 66 68 76 87 87 82 70 44 37 39 36 38 36 29 26 25 23 22 22 21 22 22 23 26 29 26 29 35 44 49 45 43
68 68 67 67 67 69 72 75 72 65 65 72 84 88 87 80 69 42 39 39 37 40 37 31 28 27 25 23 22 21 22 23 24 26 31 30 32 35 45 50 49 44 42
69 66 65 65 69 71 68 65 68 73 81 86 88 84 79 61 39 38 38 40 41 37 33 31 29 26 24 23 21 24 25 24 27 29 28 30 35 39 46 52 48 54 78
65 65 64 65 67 68 72 79 83 83 83 83 80 74 47 39 38 39 41 41 38 34 34 31 27 25 24 22 21 26 28 30 31 27 28 30 37 42 46 49 64 84 87
66 65 64 67 74 82 83 80 81 81 79 75 55 46 40 40 39 40 41 39 36 36 33 29 26 25 23 21 21 26 33 32 30 31 32 36 42 44 45 62 85 88 89
63 65 73 80 80 78 81 80 75 73 60 55 47 42 40 38 40 40 41 39 38 35 31 28 25 23 21 21 22 26 31 31 33 35 39 40 41 43 58 82 88 89 86
70 73 75 75 72 72 70 68 61 56 54 46 40 37 39 37 40 42 41 40 37 33 30 26 24 21 21 21 24 30 31 33 36 38 37 39 43 58 83 86 87 86 90
68 68 67 68 68 66 61 57 57 51 45 39 37 39 34 40 42 42 41 40 37 32 27 24 23 23 22 24 32 33 33 36 38 39 37 41 56 81 87 87 85 90 89
60 62 65 64 59 55 56 54 50 45 39 39 36 34 39 41 41 41 42 40 33 28 24 23 22 20 21 24 25 32 35 38 36 38 42 56 79 87 86 83 87 85 81

GFSMW_prec_cthk_042.txt.gz
RH
31 33 36 37 39 42 38 39 41 43 33 35 52 65 71 75 73 69 79 77 76 75 61 56 44 38 39 41 41 36 30 23 20 18 18 17 18 17 19 20 21 20 18
30 31 33 36 38 43 40 39 43 44 36 35 46 63 72 74 71 70 77 86 75 61 57 48 41 42 44 43 38 32 24 20 19 19 18 18 19 20 20 20 21 21 21
27 33 36 40 39 45 44 40 44 46 41 39 46 55 67 73 73 75 76 76 66 59 51 42 45 45 44 42 38 28 22 21 21 19 19 20 21 22 23 23 22 20 18
22 29 39 41 42 46 46 42 44 47 47 43 46 52 57 68 73 73 73 71 63 52 44 46 45 46 45 41 36 28 24 23 22 22 22 23 23 23 22 22 20 18 16
19 24 32 39 43 48 48 45 45 48 47 44 49 56 62 66 64 67 62 56 54 46 47 46 47 47 43 40 35 27 24 24 24 24 25 25 25 24 25 21 19 17 14
22 21 28 37 42 48 51 47 47 52 47 45 49 57 60 63 62 60 59 55 47 47 48 49 50 48 45 42 32 25 25 27 27 27 27 26 25 23 23 22 20 18 15
23 24 28 31 37 49 53 50 50 55 50 47 51 56 61 60 58 56 50 47 48 49 52 54 54 51 48 42 30 27 30 29 29 28 27 25 24 24 22 20 18 18 14
29 25 29 33 38 51 54 51 54 60 58 57 55 57 58 55 50 45 47 50 52 55 58 58 57 54 49 37 30 31 30 30 29 27 25 25 24 22 21 21 21 19 18
32 32 32 34 43 55 56 54 61 65 63 62 59 56 52 47 46 50 52 55 58 60 62 62 59 56 46 34 33 32 32 30 27 27 26 24 22 21 21 21 22 24 22
35 34 36 37 46 58 59 59 67 66 67 65 58 53 48 48 51 53 56 59 62 63 65 64 62 54 40 33 34 35 31 28 28 27 24 21 21 21 22 23 24 24 24
39 40 42 45 55 63 59 61 68 68 67 62 55 50 49 51 54 57 60 63 64 66 67 65 60 48 37 38 36 32 30 29 28 25 22 21 21 22 22 23 23 22 24
44 46 46 51 64 68 63 64 65 66 65 57 51 50 51 54 59 62 64 65 68 68 66 63 57 44 42 36 33 30 30 30 26 22 22 21 22 22 22 21 20 21 24
52 56 57 64 66 67 64 63 64 64 59 54 51 52 56 59 62 66 69 70 70 66 67 64 53 43 35 34 31 32 31 27 24 23 22 21 22 21 19 21 22 24 29
62 61 65 66 68 65 62 63 62 59 55 52 53 56 60 64 68 71 73 71 67 70 70 59 47 36 34 33 33 32 28 24 23 22 21 21 21 19 22 24 28 31 29
61 64 64 65 65 62 61 60 58 55 52 54 57 61 65 70 74 76 70 68 73 74 63 52 37 34 35 34 32 29 25 24 22 22 22 21 20 21 25 30 30 31 32
65 64 61 59 58 57 57 55 53 53 56 59 62 67 71 76 78 71 71 77 78 66 55 40 36 36 36 34 30 27 26 23 23 21 21 20 20 20 24 26 33 38 46
62 60 59 57 56 55 55 56 57 59 62 65 69 73 78 77 70 75 83 81 68 53 40 36 37 38 35 31 28 25 23 23 22 21 20 20 22 22 23 27 34 41 45
57 57 57 58 59 60 61 63 65 67 69 71 76 78 73 72 82 85 80 70 50 38 38 39 39 36 32 30 26 23 23 22 21 21 21 23 22 24 32 38 42 37 39
63 64 65 65 65 66 66 68 69 71 76 77 72 71 79 87 86 78 68 44 38 40 41 40 37 34 32 27 24 22 23 22 21 21 24 27 30 32 38 43 39 38 48
71 71 72 71 71 70 71 73 77 76 70 73 81 85 84 84 76 56 41 41 42 41 40 39 37 33 28 25 22 24 25 23 22 24 25 28 34 37 39 41 44 51 75
70 72 73 71 69 71 73 73 71 74 82 83 85 84 77 69 48 44 43 41 42 40 40 39 35 30 26 23 20 20 24 24 30 26 28 29 34 38 41 45 56 80 82
71 71 71 73 74 74 75 82 87 84 84 83 78 73 57 49 44 41 41 41 40 41 40 37 32 27 23 20 18 21 23 28 30 31 29 34 38 37 41 55 81 84 82
71 72 73 70 76 84 86 82 82 79 74 72 59 55 47 42 39 41 40 40 42 43 40 34 27 23 20 18 18 20 22 28 31 31 35 34 35 38 53 80 84 82 81
70 71 75 78 81 80 76 74 74 73 65 60 54 46 42 40 41 37 39 43 46 43 35 28 24 21 19 17 20 23 25 31 32 33 32 32 38 57 78 84 78 78 79
76 76 77 76 73 73 72 72 66 61 59 51 45 42 41 38 36 39 44 48 46 36 28 24 22 21 18 20 25 30 32 33 34 33 31 36 58 75 78 74 78 77 76
73 69 67 67 68 69 65 59 59 56 50 45 42 38 36 36 39 44 49 47 37 28 25 23 20 18 17 21 24 27 30 30 30 29 35 58 69 70 70 73 74 75 75

GFSMW_prec_cthk_045.txt.gz
RH
27 30 33 36 39 39 39 43 45 41 40 45 46 41 48 64 71 80 81 79 84 82 85 84 65 53 43 44 44 43 40 33 25 21 19 18 19 18 18 18 19 19 20
26 29 29 32 37 40 39 41 45 44 44 44 44 42 46 62 75 83 83 81 88 82 87 66 57 46 45 46 46 42 38 31 25 21 20 20 20 20 21 21 22 22 22
19 22 28 30 32 36 37 38 44 46 46 48 46 44 48 61 75 84 86 84 83 77 77 65 51 47 48 48 44 40 35 28 24 23 22 22 22 21 23 23 24 23 23
23 19 19 27 32 31 33 36 42 47 47 51 50 48 47 56 68 79 83 85 88 73 78 55 48 49 49 48 44 40 34 28 25 24 23 23 23 23 24 25 25 23 21
27 24 19 21 31 34 34 37 42 47 48 52 53 56 54 60 71 77 83 84 75 65 58 52 51 50 51 49 47 40 35 30 28 26 25 25 25 24 24 25 23 22 21
27 27 26 21 28 37 38 40 42 46 49 52 54 59 61 69 74 78 78 77 62 59 54 52 53 53 53 52 47 42 36 31 28 26 27 26 27 27 26 27 26 25 21
26 26 27 25 28 37 39 40 45 46 50 54 55 61 63 66 70 72 72 67 64 57 52 54 55 57 57 54 48 45 36 31 28 28 28 29 28 27 26 26 25 24 22
25 32 28 28 28 36 38 43 48 50 52 56 58 61 64 62 69 68 63 58 54 52 55 58 60 60 58 55 50 44 34 31 31 31 31 29 28 27 26 25 25 24 22
27 32 31 31 32 34 39 48 52 53 56 60 63 64 66 64 65 62 54 50 54 57 59 62 62 60 60 56 50 41 33 34 34 32 30 28 28 26 25 25 25 26 23
30 30 32 35 36 38 40 47 56 54 59 65 66 70 70 66 64 57 53 56 58 61 64 64 62 64 61 53 48 38 38 34 32 30 30 29 26 26 25 24 23 22 23
32 33 39 39 39 40 45 53 59 60 64 68 71 73 71 67 59 55 56 59 62 65 66 66 66 64 56 52 47 41 35 33 31 31 29 27 27 25 22 20 19 18 21
34 40 44 41 43 47 52 61 63 66 68 74 73 69 67 62 57 57 60 63 66 68 69 69 67 58 54 52 48 40 33 32 32 30 28 27 24 21 20 18 18 21 24
42 52 52 52 48 51 56 66 67 68 71 74 70 64 61 59 58 60 63 67 70 71 72 71 61 58 58 53 43 37 33 32 31 29 28 25 22 21 19 20 23 24 26
57 57 58 55 54 58 67 72 69 70 70 69 63 61 60 59 61 64 68 71 74 75 73 65 62 63 55 43 38 33 33 32 30 28 25 23 22 20 21 26 30 30 29
62 62 58 58 60 66 73 76 74 70 68 65 62 61 59 63 66 70 73 77 78 73 67 68 67 56 45 38 33 34 32 31 29 25 23 22 20 22 25 29 30 31 31
70 66 67 68 70 76 79 77 72 68 66 64 59 59 64 68 72 76 79 81 72 72 75 69 54 44 37 36 35 32 31 30 25 25 22 20 21 20 22 23 31 34 39
80 78 78 79 79 79 77 73 68 65 62 59 62 67 71 75 78 82 80 71 78 78 67 51 40 38 38 36 33 32 29 25 25 21 20 22 21 20 21 23 31 35 39
76 76 75 74 73 70 67 64 62 59 61 66 70 73 76 80 82 73 76 83 78 64 46 40 41 39 37 34 33 29 26 25 20 20 21 20 21 23 30 32 36 33 37
75 74 71 68 65 63 61 62 64 68 71 73 75 79 81 74 78 82 83 76 58 43 42 41 40 37 36 34 30 28 24 21 21 20 20 22 25 28 33 41 37 38 42
71 70 71 71 71 70 69 69 70 72 75 78 78 75 81 82 82 83 70 51 43 43 41 41 38 38 35 31 29 22 23 25 22 21 23 24 27 33 36 39 42 46 72
79 80 80 77 74 72 71 71 72 75 76 76 81 83 84 82 76 62 45 43 42 41 41 39 40 36 32 28 21 18 24 23 24 23 23 24 28 36 38 42 52 77 82
79 79 77 75 73 73 74 75 75 76 84 86 84 81 75 67 53 44 42 41 42 40 41 42 38 34 28 21 18 17 23 23 25 27 25 27 35 33 38 55 76 80 74
82 81 81 80 80 78 77 84 87 85 82 78 75 74 59 51 44 42 42 42 38 42 43 38 34 27 21 18 16 17 21 23 28 27 26 28 28 32 56 70 69 66 69
82 81 79 78 78 83 85 84 78 75 76 74 62 58 49 44 42 41 39 38 43 45 39 34 27 22 18 16 17 21 22 27 27 27 26 25 32 54 64 65 65 70 70
79 81 82 83 84 81 76 75 75 71 62 58 54 47 44 42 41 38 39 44 46 41 35 28 23 20 17 18 23 25 28 32 32 31 25 29 49 59 63 65 69 69 71
83 84 82 77 73 72 73 72 63 58 55 51 46 44 42 40 38 39 45 48 43 35 29 24 20 17 17 19 25 24 27 28 30 26 27 43 54 59 62 65 66 70 76

GFSMW_prec_cthk_048.txt.gz
RH
24 24 26 30 34 33 34 36 39 47 49 47 48 56 54 50 48 56 65 74 86 89 87 87 88 80 65 54 49 49 46 40 35 30 26 22 21 21 21 21 21 20 20
20 21 23 26 30 32 34 35 36 39 46 49 48 50 52 53 58 57 66 81 89 91 90 91 82 68 60 53 51 48 44 40 35 29 25 24 25 24 23 22 21 22 22
25 22 20 24 26 29 32 34 35 37 40 43 48 47 48 52 58 58 61 76 90 94 94 88 82 69 63 59 52 48 45 41 35 29 26 27 28 25 25 24 24 24 23
27 27 24 19 24 28 30 32 34 36 38 40 43 48 48 52 55 58 62 73 89 94 91 88 86 69 54 54 53 50 46 41 35 31 29 27 26 26 26 28 28 27 27
27 26 27 24 20 25 31 32 34 36 37 39 44 49 54 58 57 62 70 78 86 89 93 89 72 58 54 55 54 51 47 42 37 34 30 28 28 28 30 28 29 29 29
26 28 27 28 24 22 28 32 32 34 35 39 44 52 55 59 63 69 74 81 84 91 84 75 61 55 56 55 54 51 47 42 40 35 31 30 30 31 30 28 29 29 27
22 25 27 27 29 25 25 33 35 36 36 40 45 53 60 66 70 74 78 82 89 76 79 64 58 57 57 57 55 52 48 44 41 35 32 31 30 30 30 31 29 27 25
22 22 25 28 29 29 26 35 38 40 41 45 48 54 62 67 69 75 77 73 69 71 67 58 57 58 59 59 56 52 48 46 40 37 33 30 30 30 30 31 29 26 25
32 28 25 29 33 32 30 36 43 45 47 49 52 57 67 69 69 75 70 67 64 61 57 57 61 61 62 60 55 52 51 44 43 37 35 34 30 28 30 30 30 28 25
53 44 33 29 34 36 35 42 49 50 52 53 57 62 68 72 74 73 74 70 64 59 61 62 63 64 63 59 57 55 49 46 42 39 38 33 29 29 30 31 30 28 25
60 54 42 30 35 39 41 47 52 52 56 59 60 68 73 74 72 78 77 69 63 62 62 64 66 66 63 61 59 54 49 45 41 37 33 28 29 29 30 30 28 25 24
55 52 47 35 38 46 45 50 54 56 62 63 66 70 73 76 77 78 71 66 64 62 65 67 68 67 65 64 58 52 50 43 38 32 29 30 30 29 30 28 26 24 26
66 58 51 37 45 53 50 53 57 63 66 68 69 73 75 79 76 70 66 67 63 65 68 70 70 69 68 60 56 55 44 38 31 32 31 30 30 30 28 26 25 31 30
70 55 47 44 50 56 57 58 61 67 72 74 77 77 76 77 70 66 68 65 66 69 72 73 72 72 62 60 57 44 36 33 33 31 30 30 29 29 26 25 31 29 30
54 51 54 58 53 59 60 67 72 76 80 81 81 75 76 70 67 69 66 67 71 74 76 76 74 63 65 58 44 36 35 35 33 32 32 31 29 21 25 27 31 30 30
63 66 68 62 61 63 71 73 75 77 80 83 76 71 67 68 70 66 69 73 77 79 79 70 67 68 57 41 37 36 33 33 32 33 31 27 23 23 25 31 31 31 33
72 71 69 65 69 74 77 81 83 84 83 79 73 68 70 69 67 72 76 79 80 79 70 73 67 52 40 39 37 34 32 32 32 31 25 23 23 28 30 31 30 31 34
79 75 73 74 78 82 89 89 90 87 82 74 70 68 67 72 77 78 79 80 75 78 74 63 47 42 40 37 35 32 31 34 32 25 24 23 28 30 31 31 31 34 36
87 90 92 93 94 94 94 92 87 82 76 68 67 72 78 79 80 80 76 84 80 70 56 43 42 41 39 35 32 31 31 31 26 24 24 30 31 31 31 32 33 35 44
81 84 89 91 91 89 87 81 75 71 70 76 79 80 80 79 77 84 86 77 62 45 42 42 42 41 35 33 32 29 28 26 24 23 25 29 31 31 33 35 36 46 72
84 82 83 82 81 80 79 79 78 78 79 80 80 78 79 85 85 83 69 53 42 42 43 44 41 35 33 32 29 23 23 24 24 27 29 30 31 32 33 34 47 68 66
90 89 87 87 85 83 79 76 76 77 78 79 83 87 86 82 72 60 46 42 41 43 44 41 36 34 34 30 23 19 23 24 26 30 31 29 32 27 28 43 63 62 61
87 84 84 81 79 78 78 79 82 84 88 89 86 80 75 66 51 43 40 42 43 43 41 37 36 35 30 24 20 20 24 24 31 31 30 29 26 22 38 57 59 59 64
87 86 83 80 79 78 80 84 87 87 82 78 76 68 54 46 41 41 43 43 43 41 37 38 36 30 26 24 22 23 25 32 32 30 26 25 24 41 55 58 61 65 66
86 82 83 82 84 85 85 81 78 77 74 69 57 50 44 42 42 42 40 42 42 39 38 35 29 26 23 22 23 24 26 31 28 26 26 25 39 53 56 61 64 65 68
85 87 87 87 82 77 74 74 73 70 62 53 49 44 42 41 40 39 42 43 43 39 34 29 24 19 17 18 22 25 25 26 26 24 26 38 51 55 61 62 64 68 73

GFSMW_prec_cthk_051.txt.gz
RH
24 23 24 26 29 32 32 34 36 37 40 44 49 54 59 59 62 67 60 58 60 69 70 73 81 90 90 77 59 56 55 53 48 42 37 33 29 27 25 23 23 24 21
24 24 24 22 24 30 32 33 35 36 38 40 45 51 56 54 61 66 64 66 67 68 84 90 92 94 88 70 59 56 57 57 49 44 40 36 33 31 27 26 24 22 23
22 23 24 24 23 24 28 33 36 37 38 41 45 52 50 50 53 56 57 63 71 71 77 87 91 96 87 76 67 62 56 52 49 44 39 38 34 30 27 26 26 25 27
22 23 24 23 22 23 26 28 34 37 39 42 43 40 41 44 48 54 59 62 67 71 71 84 87 88 88 79 70 65 56 52 49 45 40 36 32 30 28 28 29 29 28
23 23 24 25 25 24 26 30 32 37 40 42 43 40 43 43 46 52 59 67 69 73 77 84 85 88 83 72 65 62 57 53 49 44 40 39 36 33 32 32 31 28 26
19 21 24 26 28 27 27 29 34 33 38 41 42 41 45 41 47 55 61 68 73 77 79 82 84 86 74 62 62 60 56 52 47 45 44 41 37 35 33 32 30 28 27
19 21 22 27 28 30 29 31 34 38 38 38 43 45 43 44 48 56 65 71 78 81 84 83 81 76 67 61 60 57 54 51 48 46 47 42 38 37 35 34 32 29 27
25 22 22 23 30 31 33 34 38 43 42 42 44 44 44 47 53 61 71 75 78 80 78 75 75 62 56 58 56 56 54 53 49 50 48 42 39 36 33 33 32 30 29
36 32 28 26 26 33 37 39 41 46 47 47 46 44 47 52 59 66 73 77 74 74 74 69 62 55 57 59 59 57 56 52 52 53 46 42 38 35 34 31 31 32 30
51 51 49 42 36 32 39 43 43 45 55 53 51 51 54 58 69 72 73 76 75 72 74 67 61 62 63 60 59 58 56 55 57 50 44 39 36 33 30 31 32 32 30
61 58 57 52 48 41 41 47 48 48 57 58 56 58 61 67 72 74 79 78 78 80 81 68 67 64 62 62 61 59 59 61 54 47 42 38 33 31 31 32 31 29 27
73 68 63 63 54 49 47 50 49 51 60 60 62 65 70 71 74 77 77 78 80 81 71 70 69 64 64 63 63 64 64 55 50 44 39 33 33 33 33 31 28 27 25
73 72 61 60 67 54 54 50 49 51 63 66 68 72 73 75 77 77 78 77 80 72 69 71 67 66 65 66 67 66 56 53 46 39 34 34 34 33 30 29 27 25 26
74 86 80 74 75 64 49 52 52 53 68 72 75 74 75 74 78 81 76 79 74 71 71 69 68 68 70 70 67 57 57 46 37 36 37 35 33 30 29 26 26 25 26
75 87 93 88 76 63 52 54 54 62 74 75 76 78 75 77 82 79 77 75 72 72 69 69 71 74 72 67 61 58 43 36 36 36 35 32 31 29 27 27 27 30 30
62 67 78 78 71 57 58 60 58 70 76 80 82 79 79 85 83 76 74 72 74 70 71 76 76 73 65 65 56 41 37 35 34 32 31 31 29 25 26 31 30 30 34
66 65 60 58 58 66 70 62 66 76 81 83 82 83 86 83 75 73 74 75 71 74 80 77 72 69 65 52 40 38 35 33 30 32 32 29 25 25 27 28 30 30 32
80 82 79 75 74 75 71 73 79 82 90 85 84 86 82 77 75 77 73 74 80 82 78 73 71 61 47 41 38 36 32 29 31 31 29 26 24 25 29 30 29 29 31
78 80 80 75 71 75 81 84 81 83 83 85 85 82 80 78 75 75 81 84 84 77 75 66 54 43 41 39 37 30 29 30 31 28 24 23 26 29 31 32 31 30 26
95 89 80 80 83 84 92 96 90 86 91 87 81 78 75 77 83 85 85 83 81 71 59 45 42 42 40 35 30 30 29 28 27 24 22 23 29 30 31 34 32 29 41
98 98 98 97 97 96 95 95 94 88 81 76 75 80 85 86 83 87 88 76 62 48 42 42 43 41 35 32 31 29 25 27 24 22 22 23 30 31 32 32 29 44 59
90 92 94 94 91 89 85 81 79 78 82 85 85 81 83 90 92 79 66 52 41 39 42 44 41 36 34 34 32 27 28 25 24 22 23 24 30 31 27 27 45 55 56
91 90 88 86 86 86 87 85 81 79 80 84 89 92 92 82 71 57 41 38 39 43 45 39 35 35 35 32 30 27 26 24 22 22 23 23 23 23 26 46 54 56 57
89 89 87 86 84 82 79 80 85 89 91 90 87 82 75 62 44 38 39 41 43 43 38 35 37 34 31 28 24 20 21 21 22 22 22 22 23 25 45 52 55 56 61
87 84 85 84 83 84 87 88 87 85 82 79 75 66 53 44 39 40 42 43 43 39 36 36 33 30 24 20 20 22 22 23 23 23 19 20 23 43 51 55 56 60 64
89 87 88 88 88 85 81 82 80 78 75 67 58 52 44 40 40 42 43 43 40 39 36 33 29 23 20 20 19 20 23 23 23 20 21 23 39 50 55 57 60 64 69

GFSMW_prec_cthk_054.txt.gz
RH
22 21 21 20 22 27 32 33 35 33 36 40 43 46 51 53 56 57 60 59 61 62 61 63 63 66 74 78 75 73 67 60 57 52 50 48 46 39 36 32 30 28 26
21 22 23 22 21 23 27 31 33 33 33 36 39 46 52 54 54 54 58 62 64 69 70 71 74 76 84 87 81 81 66 65 62 56 51 45 42 41 38 33 32 30 27
18 19 21 23 24 24 27 30 31 36 35 35 42 46 49 53 52 55 56 59 62 62 68 73 78 81 84 84 81 79 74 70 64 60 56 47 43 40 37 35 34 31 29
18 19 20 20 21 24 26 30 34 36 41 38 42 44 44 46 49 55 56 55 59 62 68 73 76 79 83 79 76 80 75 70 69 64 57 49 42 39 37 38 35 33 32
19 20 20 22 22 23 24 25 30 34 42 43 42 44 45 47 46 51 54 55 60 63 69 74 79 82 84 81 76 76 66 63 61 58 50 45 42 40 41 39 36 34 32
18 18 20 21 23 25 25 28 29 30 38 45 44 46 42 45 47 50 53 54 60 64 70 75 79 82 84 85 83 75 65 64 59 53 48 45 43 45 43 37 35 32 31
21 20 18 17 17 23 28 28 33 36 38 46 53 48 45 50 48 50 52 55 59 64 70 76 81 84 83 81 76 66 58 58 55 51 49 47 47 46 42 37 34 32 29
23 24 23 23 23 22 23 30 32 47 47 44 52 48 48 51 51 51 54 57 62 64 74 80 82 83 76 75 62 57 58 59 57 53 51 49 50 47 40 37 34 32 29
32 35 35 34 31 29 27 27 34 40 54 54 52 52 49 49 49 52 57 61 66 70 79 81 80 78 75 74 64 63 64 59 56 54 53 53 53 44 39 36 33 31 30
45 44 45 45 44 42 39 33 34 41 48 55 53 55 51 53 52 56 60 64 71 79 80 80 79 77 80 68 66 68 61 58 57 56 56 57 46 41 37 32 30 31 31
51 53 56 58 58 55 53 44 36 44 61 54 53 59 59 57 56 62 68 72 78 78 79 81 77 77 73 71 70 67 61 59 58 60 59 48 44 38 31 31 32 30 30
74 70 69 73 70 68 69 63 52 42 62 55 55 65 67 66 68 69 73 81 78 79 83 82 82 81 73 71 69 64 61 62 63 62 50 46 37 32 33 32 31 30 29
72 66 55 55 58 70 83 76 66 48 54 61 58 71 75 76 75 78 80 78 80 84 83 82 78 76 72 72 68 63 65 65 62 51 47 36 34 34 32 30 30 27 25
64 52 62 72 66 71 81 83 73 56 47 59 66 78 83 83 82 84 80 82 80 84 85 78 78 75 75 70 66 69 67 62 53 45 35 35 35 32 31 31 28 27 24
54 56 76 96 84 83 86 83 73 56 49 60 74 84 87 89 87 84 84 79 85 85 81 82 76 76 72 68 71 68 61 55 41 35 34 34 30 31 32 29 28 28 28
62 57 79 97 96 93 90 87 66 53 57 67 78 90 89 89 86 82 80 81 84 83 79 76 77 73 72 73 69 61 52 38 35 34 31 29 30 29 28 26 28 30 30
74 66 65 82 84 83 75 64 59 61 65 77 84 89 91 87 86 79 83 88 84 78 78 79 74 76 75 68 61 46 38 36 34 29 29 31 29 26 23 24 26 28 29
77 73 67 65 68 71 70 67 67 73 79 84 87 90 90 85 86 89 84 82 80 81 80 79 79 73 67 53 42 38 36 33 28 29 30 30 26 24 24 28 30 29 28
80 82 75 70 70 73 73 71 76 81 83 87 88 90 92 89 85 83 83 82 82 83 84 77 72 59 48 40 38 37 31 28 29 29 27 24 23 24 30 30 29 29 27
79 79 82 78 78 78 76 79 83 84 90 93 94 87 81 84 86 85 83 87 89 81 77 63 50 42 40 39 35 30 29 29 28 26 21 22 25 25 31 31 30 30 27
91 87 82 80 80 83 83 90 95 93 93 93 92 90 88 85 84 91 92 87 81 66 53 42 41 40 38 34 31 32 31 30 29 26 24 23 23 31 31 31 30 30 49
97 97 94 96 96 98 98 98 98 98 97 91 84 83 88 92 92 92 84 71 56 42 40 42 40 36 33 32 34 34 34 29 27 25 24 23 24 26 24 25 30 48 55
93 97 97 96 96 97 97 94 84 83 84 87 88 87 92 95 86 76 60 44 38 40 43 41 35 33 33 32 30 26 23 20 23 22 23 23 23 20 21 26 48 54 53
89 90 91 91 91 90 90 88 85 84 86 90 94 92 89 79 65 47 39 39 40 44 41 35 34 34 32 28 24 21 20 19 21 21 21 19 17 19 24 44 53 55 57
88 87 86 85 84 82 82 85 87 90 89 89 88 81 70 54 43 39 39 41 44 40 35 35 34 31 27 24 22 21 23 24 24 24 20 17 18 20 40 54 57 58 61
91 90 90 87 84 84 84 83 85 85 85 80 71 58 51 45 41 41 41 44 39 35 36 34 31 26 23 22 21 21 24 24 24 21 18 19 20 36 54 59 59 62 68

GFSMW_prec_cthk_057.txt.gz
RH
21 21 22 22 22 22 28 31 36 42 44 46 39 44 51 54 50 54 54 54 54 58 61 63 64 68 71 69 74 77 75 71 69 68 60 57 57 52 47 43 40 38 36
21 21 22 22 22 22 24 31 35 38 43 47 48 44 47 53 57 59 59 54 53 55 61 65 70 72 70 75 80 80 76 69 69 68 73 67 61 57 54 49 43 39 37
16 17 19 21 23 24 25 26 32 38 40 41 43 48 50 54 54 60 59 57 52 54 61 65 69 70 72 78 81 78 75 70 67 71 67 64 63 58 54 52 47 42 38
16 16 17 18 20 22 25 27 29 35 42 42 40 39 42 49 53 46 54 59 60 63 62 65 67 70 74 78 81 79 77 75 71 74 65 60 55 49 45 43 41 41 41
17 17 18 18 20 22 23 25 28 31 37 42 44 42 46 49 53 56 60 61 62 64 66 64 68 70 75 81 83 82 78 79 82 73 66 60 51 47 45 45 45 45 38
19 19 19 19 21 24 25 25 25 27 30 40 41 44 44 48 56 60 61 59 62 64 66 64 66 71 77 82 86 83 82 76 65 61 54 52 50 50 49 47 45 43 40
18 17 17 17 18 18 20 25 27 28 33 32 34 44 48 50 54 59 61 61 63 65 63 66 66 73 76 83 88 81 77 72 63 58 58 57 55 52 49 45 45 41 37
21 22 22 22 22 22 21 19 20 27 30 37 35 37 48 61 58 63 62 66 68 69 67 65 69 72 75 83 83 80 74 73 64 63 64 59 55 52 49 49 47 39 35
31 32 33 33 32 30 29 29 25 24 29 35 41 45 48 58 60 78 75 73 72 68 65 68 70 72 82 82 77 80 76 72 68 68 66 60 57 53 54 51 42 38 34
37 40 42 43 45 43 42 39 38 34 28 38 43 47 57 66 63 72 72 70 69 68 68 68 75 81 79 79 83 78 85 73 72 69 65 60 57 58 54 44 38 33 31
49 50 52 53 54 51 52 52 51 49 37 35 41 49 59 64 72 70 72 68 69 69 69 75 78 84 78 78 83 76 75 75 72 69 64 59 60 56 46 39 33 33 32
67 68 68 66 62 61 60 61 63 58 54 46 39 45 60 61 68 71 73 74 74 74 74 80 81 79 80 79 81 78 76 73 71 66 62 64 56 48 38 34 33 31 29
70 65 55 50 43 42 49 60 64 64 65 64 52 46 60 58 74 73 76 78 78 79 82 83 80 81 79 80 79 79 75 72 69 66 66 57 48 36 35 34 31 31 31
77 62 55 47 47 58 61 67 70 73 75 78 68 56 57 69 80 80 81 84 80 87 85 81 83 83 86 83 81 75 73 70 70 68 57 45 35 35 35 31 34 33 30
71 66 61 57 71 70 67 70 82 81 85 88 66 59 67 79 83 85 83 83 85 90 83 84 86 87 88 80 76 74 72 74 67 55 39 35 34 33 31 35 33 31 29
74 70 60 72 82 82 79 85 94 95 96 82 65 67 81 84 85 89 87 86 89 82 82 86 88 85 78 74 74 78 73 63 50 36 34 33 30 31 32 32 30 30 34
76 71 63 69 85 97 97 98 97 92 78 70 70 79 85 89 88 94 94 86 88 75 86 90 85 76 76 79 79 70 59 42 36 35 32 29 31 30 29 26 27 30 29
77 75 67 63 74 77 78 76 81 73 70 70 75 85 95 96 95 94 88 85 81 89 87 81 79 81 81 74 65 49 38 37 35 29 29 30 28 26 26 28 30 31 30
77 78 75 67 66 70 70 69 69 68 71 78 83 94 98 97 91 88 89 95 89 85 84 86 83 77 70 55 40 37 36 32 30 30 29 28 25 25 27 33 31 30 27
72 79 76 69 67 69 73 73 72 71 81 91 90 98 96 95 93 91 87 83 87 90 88 78 71 59 44 38 38 35 30 31 30 28 25 23 24 26 30 32 31 28 23
82 75 71 77 77 75 74 75 82 92 98 97 96 93 96 97 90 91 93 94 91 82 71 58 47 40 38 38 34 32 35 33 30 25 22 21 22 24 26 26 25 24 32
93 89 82 92 92 92 89 98 98 97 98 98 98 98 96 95 96 95 94 84 72 58 47 42 40 39 38 33 32 31 29 27 25 23 22 22 23 23 22 22 23 29 44
92 97 94 98 97 94 98 98 97 98 98 98 97 97 97 97 96 85 71 56 45 42 41 40 39 36 32 32 30 28 25 23 22 22 23 23 22 17 17 18 26 43 53
92 94 96 98 98 98 97 97 97 96 92 91 94 98 96 86 72 54 44 41 41 43 41 38 34 32 32 29 27 24 22 21 21 21 22 20 18 18 18 26 46 56 59
91 91 93 94 94 95 95 94 91 92 95 96 93 87 73 57 46 43 43 44 45 41 36 34 34 31 28 25 24 22 23 25 25 24 18 17 17 17 25 47 57 61 61
90 88 88 88 86 84 85 87 86 85 86 87 76 62 55 49 45 43 44 45 40 36 36 34 30 27 25 24 21 20 24 24 21 18 18 18 19 24 46 57 61 63 66

GFSMW_prec_cthk_060.txt.gz
RH
17 19 19 19 24 27 30 32 35 35 46 56 57 59 60 56 48 48 50 48 49 55 55 56 58 60 63 69 73 74 75 73 72 70 66 63 65 60 62 68 62 56 53
20 21 21 22 21 22 23 24 30 34 33 42 45 52 54 60 63 62 57 56 58 58 59 58 60 63 65 69 72 74 77 74 73 69 65 64 66 67 66 62 60 58 53
20 21 22 23 24 23 23 22 22 30 33 37 44 48 58 63 64 65 66 67 64 65 66 63 61 66 69 69 72 72 76 77 73 73 71 69 70 70 66 59 55 51 48
18 18 17 17 19 21 22 23 23 24 30 35 42 44 45 49 51 55 59 62 61 64 69 71 71 73 75 70 73 75 78 78 75 73 80 72 72 65 58 57 49 47 46
18 17 16 17 17 18 19 21 23 24 26 29 34 41 45 50 54 51 58 65 67 71 72 74 76 77 74 71 71 76 79 78 76 74 76 67 60 53 52 51 51 52 51
19 19 18 17 17 18 20 21 22 24 27 28 29 35 41 53 51 53 53 59 67 70 74 77 75 76 74 71 73 75 78 75 80 73 69 64 59 57 57 57 56 53 51
19 18 18 17 17 17 17 19 23 24 26 27 29 32 36 46 51 54 57 60 68 75 77 79 78 78 77 75 72 74 74 78 79 78 69 70 62 61 60 59 54 51 50
24 23 22 21 20 20 20 20 19 19 21 26 27 30 34 42 49 56 58 63 66 71 79 83 83 83 81 78 73 75 75 81 82 73 73 67 66 62 61 57 53 49 49
27 28 28 28 28 27 26 25 25 24 22 19 21 26 33 38 42 48 58 61 69 71 78 83 88 91 88 79 73 75 78 78 74 76 74 69 67 64 60 57 54 52 50
32 33 34 35 36 37 37 37 35 34 32 28 23 23 30 36 44 49 55 67 74 81 86 88 94 94 85 74 74 82 75 78 86 78 69 69 68 63 61 59 57 54 46
41 40 41 45 47 48 48 47 46 44 38 39 36 33 40 43 50 62 62 68 74 83 92 92 92 83 73 81 79 78 81 71 77 73 69 70 68 63 61 60 57 48 38
52 56 57 56 57 52 51 55 57 53 52 56 51 44 47 66 69 71 67 75 78 82 85 89 83 76 77 78 79 75 72 76 78 73 74 70 66 65 62 57 47 35 35
60 60 63 57 48 45 44 41 40 49 50 54 64 62 56 56 69 71 75 73 81 88 87 81 79 80 77 79 76 87 78 77 77 78 72 67 69 63 55 42 35 35 34
65 70 62 55 49 48 45 47 51 54 59 63 62 70 75 67 56 57 72 72 85 88 84 80 80 76 90 84 76 83 83 83 79 72 72 67 62 51 37 34 35 33 34
73 71 60 56 49 62 64 63 64 68 75 76 76 85 89 81 60 71 64 79 83 84 82 79 77 79 87 82 89 84 77 78 74 70 65 57 44 35 33 34 33 35 34
75 68 65 55 56 71 72 73 71 79 88 92 90 92 94 78 67 68 84 83 83 82 84 86 95 91 91 84 76 78 81 76 69 61 50 37 33 31 29 30 31 33 33
80 71 67 56 63 74 81 84 86 93 95 98 98 94 83 80 65 91 87 87 84 87 89 96 95 96 91 91 88 81 73 66 53 42 34 32 29 29 30 29 29 30 29
81 75 68 58 60 66 74 78 82 88 96 97 97 78 82 72 96 94 99 93 97 92 98 97 90 81 83 85 77 68 59 46 35 33 31 29 30 28 28 30 30 30 28
80 74 70 59 57 62 64 66 78 81 76 74 75 78 78 95 97 98 99 98 98 98 93 84 86 89 79 71 63 51 37 34 33 30 29 29 27 26 30 28 28 26 23
84 72 70 63 59 61 64 64 65 69 73 75 76 88 97 98 98 98 98 95 94 90 94 91 80 74 66 54 40 35 34 33 30 30 28 26 24 24 27 28 26 24 21
80 71 70 71 67 67 67 66 66 69 81 92 98 98 98 98 98 98 94 92 95 93 79 73 65 55 43 38 35 35 33 30 30 28 25 23 22 26 24 23 22 20 25
83 85 76 79 80 78 74 80 89 94 96 97 98 98 98 98 98 97 97 93 78 69 61 51 44 39 37 37 34 30 30 29 26 24 22 21 24 24 17 16 16 23 32
84 86 85 88 88 86 89 91 97 98 98 97 96 96 96 97 97 91 78 66 53 47 44 42 41 40 34 31 31 30 27 25 23 22 23 22 19 16 15 16 19 34 45
86 88 91 92 92 91 94 96 96 96 98 98 97 97 97 90 73 55 46 43 44 46 46 41 36 32 32 32 29 26 23 21 22 21 17 16 15 15 16 19 37 47 55
88 88 90 92 92 92 93 94 94 94 94 94 94 89 69 55 48 44 46 47 47 44 39 35 34 33 30 27 24 23 23 25 22 18 15 15 14 15 19 38 48 57 62
91 89 88 88 90 92 93 92 88 86 86 83 69 55 51 50 47 46 45 47 43 38 35 35 32 29 26 24 23 20 19 18 17 15 15 15 16 19 37 50 58 62 68

GFSMW_prec_cthk_063.txt.gz
RH
16 18 19 20 23 25 28 31 33 33 32 33 38 51 62 63 60 56 51 51 52 57 58 55 55 59 60 62 62 64 67 70 72 64 63 61 62 60 58 60 60 58 61
18 19 20 20 20 19 20 26 31 35 35 33 33 43 53 61 62 64 66 59 51 54 57 62 59 60 64 64 64 67 69 71 71 66 68 64 63 64 64 65 66 66 60
19 19 21 21 21 21 20 21 25 32 36 37 37 39 45 52 56 58 61 66 67 69 72 73 71 69 68 70 71 76 77 76 75 72 71 65 64 68 66 65 61 57 53
20 20 20 20 20 21 23 23 23 23 25 28 30 33 35 41 48 51 53 61 62 66 74 79 78 77 76 78 82 85 83 80 76 75 74 69 68 68 66 61 53 51 52
20 20 20 20 20 20 21 22 23 22 22 24 24 25 33 38 48 56 53 54 53 63 68 73 79 82 83 87 88 88 88 83 78 75 73 66 70 70 64 60 56 56 57
22 20 20 19 18 18 18 18 18 20 22 23 25 27 30 38 46 55 70 69 65 60 60 65 74 84 87 88 90 91 88 82 80 77 67 70 72 67 65 64 61 60 59
23 22 20 19 18 16 16 17 18 20 21 23 24 27 30 34 44 47 63 68 66 60 56 59 68 76 85 89 90 93 93 89 82 76 71 71 71 67 68 66 61 62 63
27 26 24 22 20 19 18 17 16 17 20 22 24 26 29 31 35 38 43 54 60 64 58 59 66 75 84 90 92 93 94 93 81 77 70 69 73 71 71 65 65 61 61
30 29 29 28 26 24 23 22 21 20 20 20 19 20 23 27 31 37 42 48 58 67 68 69 75 79 80 90 95 94 96 93 84 74 72 73 70 78 71 65 64 63 57
32 31 32 32 32 33 32 31 30 28 27 26 25 26 25 23 24 31 41 46 52 59 66 70 76 81 86 90 94 96 92 89 78 71 71 74 74 71 71 68 66 61 56
38 39 40 40 40 40 42 42 44 43 38 37 37 37 37 35 28 28 36 48 53 57 63 76 84 89 90 92 96 94 92 79 76 81 80 73 72 76 72 69 70 64 58
48 50 51 51 52 50 48 45 41 38 43 49 49 52 51 44 43 42 43 50 53 57 70 84 87 90 95 97 93 92 87 77 79 80 77 78 75 76 74 71 68 61 51
56 57 57 55 54 51 48 46 43 40 39 43 51 55 65 65 62 58 64 67 73 70 75 84 84 86 87 88 87 77 67 73 79 92 86 84 79 78 76 67 59 47 38
60 60 62 63 55 53 49 46 46 46 46 43 45 51 61 71 79 73 74 80 81 80 80 84 87 90 90 87 81 73 85 91 91 84 81 79 76 72 65 50 40 37 34
66 70 69 63 55 51 44 54 56 56 56 59 68 71 73 76 80 82 78 82 83 80 82 78 82 89 87 86 82 84 96 95 82 83 82 76 68 57 44 38 34 32 32
73 72 68 61 56 46 62 63 64 62 66 67 75 87 89 87 86 86 87 75 68 71 77 72 91 82 84 86 96 95 92 86 87 79 71 59 48 40 35 31 28 30 34
74 73 68 64 52 50 60 68 68 72 74 76 84 96 98 94 94 96 83 86 75 71 76 87 90 93 95 90 97 98 95 82 71 63 52 43 38 33 29 29 30 30 29
75 72 67 63 54 54 58 65 71 75 80 91 93 95 96 94 97 83 96 75 79 88 88 89 93 97 96 93 89 82 71 60 53 45 40 36 32 30 29 28 29 30 27
75 74 69 62 56 56 59 59 64 70 76 81 95 95 95 93 95 89 82 88 96 99 97 97 92 89 91 83 73 65 55 49 42 38 34 32 30 27 25 30 29 27 21
77 76 68 66 61 62 64 65 64 62 62 65 67 71 77 81 78 85 96 96 97 98 98 98 96 83 73 65 56 49 41 37 34 33 31 28 26 26 30 28 25 20 16
76 74 69 67 65 67 68 67 66 70 77 79 88 89 91 91 95 98 98 98 98 97 89 79 71 62 53 47 42 38 36 34 31 29 27 24 24 28 26 23 18 16 20
75 79 75 75 73 73 73 74 78 82 83 88 96 96 96 97 98 98 97 96 85 75 66 57 51 45 42 40 38 34 30 30 29 26 24 23 23 19 16 15 14 14 22
78 79 76 76 76 78 79 88 88 90 93 93 95 97 96 95 95 93 84 72 62 55 50 47 44 42 39 33 31 31 30 27 24 23 21 18 16 15 14 14 15 25 36
79 80 81 81 82 84 84 90 92 92 95 96 96 96 96 91 77 57 48 46 47 48 48 44 37 33 32 32 30 27 25 23 21 19 17 17 16 16 16 17 30 39 46
81 83 84 84 84 86 88 90 91 93 95 95 93 87 65 52 47 45 46 50 50 44 38 35 33 32 31 29 26 24 23 21 19 17 16 16 15 15 17 30 40 49 57
85 85 86 86 88 89 89 91 92 91 88 78 63 53 48 48 51 50 47 47 42 36 34 33 31 29 27 26 24 22 20 19 18 17 16 16 16 17 27 41 50 59 63

GFSMW_prec_cthk_066.txt.gz
RH
17 18 21 24 26 28 29 30 31 32 33 32 33 37 39 45 53 59 62 60 58 56 57 55 56 59 59 56 60 62 61 62 65 67 67 62 59 60 60 59 59 59 58
17 17 17 19 21 23 25 28 29 31 32 32 32 33 34 37 41 54 65 66 67 65 63 65 65 65 63 62 65 68 68 69 70 69 72 67 66 65 63 60 62 61 59
19 19 19 19 19 19 20 22 25 28 29 31 31 33 33 33 37 43 56 64 68 74 74 71 69 70 71 72 75 77 79 80 84 84 78 74 69 66 62 62 62 63 60
18 18 18 19 18 19 20 21 23 23 23 25 27 30 33 34 35 39 42 51 59 68 74 74 75 76 77 78 80 82 87 91 94 94 88 80 80 67 60 62 64 62 59
21 21 20 20 20 20 20 21 23 24 25 25 25 27 29 31 32 34 38 44 50 55 64 69 75 76 77 80 82 83 87 90 93 96 94 91 80 72 62 59 66 63 60
25 24 23 23 22 22 22 22 23 25 26 26 26 26 25 26 27 27 30 40 42 52 59 64 70 72 75 77 80 84 86 88 89 92 94 91 87 77 66 65 61 65 62
26 24 23 22 22 21 21 21 22 22 22 22 24 25 26 26 28 30 32 38 49 59 63 69 69 69 69 72 79 83 85 89 91 91 92 93 91 81 74 68 62 69 68
29 27 26 24 23 22 20 20 19 18 19 20 22 22 24 25 28 30 33 36 44 57 62 70 74 75 71 68 74 83 89 93 94 92 93 91 89 83 77 67 73 74 73
32 30 29 28 27 26 25 24 23 21 20 19 19 20 21 22 25 28 32 36 39 47 56 68 73 81 78 76 76 82 92 93 92 93 90 90 88 79 75 79 77 69 67
36 34 32 30 30 29 28 27 27 26 24 24 24 24 24 24 23 24 26 28 33 38 43 54 63 73 86 84 86 87 88 89 91 88 86 87 88 80 80 81 77 76 71
36 35 34 35 37 37 34 32 31 33 34 36 36 37 36 34 32 32 31 28 32 39 44 48 63 77 83 87 89 89 88 88 85 84 86 89 87 72 71 81 81 73 72
40 40 42 45 43 41 40 39 38 36 35 34 34 40 42 45 48 48 45 43 41 46 53 55 60 72 73 79 82 85 88 84 90 92 88 92 78 88 86 86 84 77 68
48 49 51 50 47 46 44 43 42 39 38 38 40 37 41 46 53 63 63 65 60 59 61 67 68 73 72 77 83 87 91 88 92 88 90 88 91 93 90 79 76 75 64
54 55 54 51 53 50 48 45 42 41 42 43 44 44 47 47 48 65 73 77 78 75 75 78 79 78 76 80 85 85 82 85 90 92 88 87 92 87 86 79 67 54 46
63 60 59 61 60 52 52 49 47 48 50 49 51 52 55 60 65 67 73 83 87 90 88 88 89 87 84 83 84 88 90 97 91 89 93 95 87 78 68 56 47 42 38
67 67 65 64 62 54 49 45 50 55 58 58 60 63 70 72 77 81 85 82 84 91 94 92 90 87 85 85 88 93 98 95 98 97 90 79 68 58 49 43 40 37 32
71 70 67 64 60 51 49 51 52 57 63 65 65 75 78 77 94 99 97 93 90 89 83 80 84 87 87 86 96 96 94 96 86 79 70 58 50 43 40 36 31 32 32
73 71 69 64 59 53 53 54 55 57 65 70 74 85 90 92 98 97 96 96 89 92 92 94 91 82 85 95 98 93 88 79 69 59 51 48 43 37 32 31 34 30 26
72 71 72 64 60 56 58 56 60 63 65 67 70 76 92 91 93 93 96 92 91 96 94 89 84 98 97 89 86 78 70 60 53 48 42 37 33 32 31 35 31 26 19
71 73 71 62 62 60 61 60 61 68 70 74 78 79 79 84 88 92 92 87 90 89 97 98 97 89 82 78 69 60 51 46 40 36 35 32 29 27 31 29 25 20 18
70 72 71 66 69 69 66 66 66 67 75 80 86 88 91 85 85 90 96 98 98 97 95 87 78 70 65 60 52 44 40 37 36 33 30 27 23 21 19 20 21 19 23
73 75 74 73 75 74 72 72 77 81 81 85 86 89 90 92 95 96 97 97 89 81 73 64 57 52 47 43 40 38 35 33 32 27 23 21 19 19 19 18 17 18 20
75 77 74 75 73 75 76 79 85 86 86 84 85 87 91 93 94 95 88 80 67 56 52 51 49 46 42 36 33 33 31 27 23 21 20 19 18 18 17 16 16 21 32
77 77 75 74 75 77 81 83 87 87 88 89 90 93 94 90 75 55 49 48 49 51 49 43 38 34 33 32 30 27 24 22 20 19 18 18 17 17 16 16 23 34 41
81 80 80 81 82 83 83 85 86 89 91 92 91 86 64 50 46 47 51 52 48 43 39 35 32 31 30 28 25 23 21 20 19 19 17 16 15 14 15 22 35 44 54
85 85 85 85 86 87 87 87 85 82 81 76 61 51 47 48 49 50 49 46 42 37 33 33 31 29 27 24 22 22 20 20 18 17 15 14 14 15 20 37 48 59 64

GFSMW_prec_cthk_069.txt.gz
RH
16 18 24 25 25 25 25 26 28 30 35 37 39 40 41 46 49 53 56 59 58 60 60 57 54 54 55 56 57 60 61 64 65 65 66 65 62 59 59 59 57 55 54
19 18 18 20 22 22 23 24 25 27 30 32 32 33 36 43 43 45 49 56 59 61 66 65 62 60 62 65 66 66 69 73 73 72 76 72 70 71 68 66 64 58 57
18 18 18 18 18 18 20 22 24 24 26 28 31 32 34 34 34 35 37 41 48 57 66 68 67 65 67 68 70 70 72 77 80 81 84 83 80 80 76 71 68 61 60
18 17 18 18 18 17 17 18 20 21 21 22 25 27 29 31 33 36 37 40 42 48 56 68 69 69 70 70 72 75 77 81 85 88 90 91 87 85 86 82 74 68 62
22 21 20 20 19 19 18 19 20 21 21 22 22 23 24 25 28 33 37 38 41 46 50 56 60 66 70 74 76 81 82 85 86 87 89 90 87 90 91 85 82 74 69
26 25 24 23 22 22 21 21 21 22 23 23 24 25 24 25 27 30 33 36 39 43 49 53 57 64 62 68 75 81 82 83 84 88 90 91 89 86 90 86 84 79 76
30 28 26 25 23 23 23 23 23 23 23 24 25 27 27 27 27 29 30 30 31 32 37 48 54 60 64 67 69 74 80 82 86 88 90 90 90 89 88 87 90 78 77
32 30 29 27 26 25 24 23 22 21 21 22 23 23 23 24 25 27 28 30 32 34 37 42 53 61 73 78 78 80 82 84 88 90 92 92 94 92 87 84 83 79 81
36 33 31 29 28 27 26 25 23 22 22 21 20 20 21 22 22 24 27 29 32 34 38 47 53 66 75 82 89 90 90 90 92 90 91 89 91 86 89 86 91 87 88
38 36 35 33 32 30 30 29 27 24 24 23 23 22 22 22 23 24 24 25 27 31 37 41 48 58 68 79 87 93 95 95 94 92 88 88 85 84 90 83 86 85 80
38 38 36 34 33 33 35 34 33 31 29 28 28 30 32 32 31 31 31 32 30 31 34 40 46 49 55 63 73 80 91 96 95 90 85 88 87 86 90 85 92 92 89
40 40 39 38 39 39 37 35 34 34 33 33 33 34 34 36 42 42 43 44 46 46 44 45 49 54 58 62 66 72 82 89 93 88 82 85 90 92 98 97 99 97 86
40 42 42 43 44 42 40 39 38 38 36 34 34 35 36 38 41 44 45 49 57 60 62 60 59 63 69 69 71 75 82 84 78 78 85 91 97 94 98 98 97 91 83
47 48 49 49 47 45 44 46 45 42 39 39 39 38 39 41 44 49 54 56 60 64 72 73 73 75 76 79 82 79 79 79 84 86 91 97 94 98 98 93 79 76 68
55 54 54 53 53 52 50 49 43 38 38 41 43 45 46 49 54 57 61 66 71 76 76 82 84 85 85 87 86 86 87 85 86 91 95 98 98 90 80 73 67 59 54
61 61 59 57 58 56 51 45 41 40 43 46 48 50 54 62 66 65 66 74 80 83 89 93 94 89 87 96 94 92 93 95 94 98 98 95 87 74 67 61 56 49 41
65 64 64 61 59 55 50 47 45 45 47 49 54 56 64 70 71 72 76 86 91 92 90 92 97 96 96 98 96 98 96 96 93 86 82 74 67 64 57 50 41 37 36
70 67 65 63 58 55 51 51 52 49 52 58 62 61 64 72 75 82 88 92 97 97 97 90 88 95 98 93 92 92 90 85 81 76 69 62 56 46 38 35 36 33 31
70 66 66 66 58 54 55 53 54 56 59 64 65 68 71 78 81 84 90 96 92 94 97 98 98 98 98 96 88 83 78 72 67 61 54 46 39 37 35 37 34 26 21
70 69 68 68 56 57 57 56 57 58 62 67 69 73 79 77 81 85 93 90 93 94 96 96 95 95 88 84 79 70 65 58 50 43 39 36 34 31 33 29 22 20 18
73 70 70 63 62 65 59 60 60 63 68 73 76 78 81 80 83 88 94 96 97 97 97 95 86 80 72 64 56 51 46 42 38 33 31 29 24 21 19 19 18 16 18
72 72 72 72 72 71 71 65 70 73 78 80 80 81 85 88 90 90 92 95 95 87 77 69 62 55 52 49 44 38 34 33 30 27 24 21 19 18 17 15 14 13 15
72 74 73 73 72 72 75 77 78 82 82 81 80 83 86 88 90 90 83 76 63 55 53 50 46 41 36 33 32 32 30 27 24 21 20 18 16 15 13 13 14 17 26
74 74 72 70 70 76 79 79 80 83 85 87 87 85 85 84 66 49 49 52 52 48 43 38 36 34 33 32 30 27 24 22 20 19 18 16 14 13 12 13 19 29 40
78 78 76 74 76 79 80 81 84 86 86 85 82 76 53 48 48 50 51 50 45 41 37 34 33 32 31 29 26 24 23 21 19 17 16 14 12 12 14 20 34 45 52
84 84 84 82 81 83 85 85 81 79 78 74 60 47 48 47 48 49 49 47 41 36 34 34 33 31 29 27 24 23 21 20 18 16 14 12 12 14 20 40 47 53 56

GFSMW_prec_cthk_072.txt.gz
RH
19 19 23 27 29 30 30 31 31 31 34 32 36 35 33 38 44 47 48 50 55 57 57 56 55 56 57 58 56 54 54 55 61 64 66 64 63 64 63 62 62 63 60
19 18 17 20 22 25 26 27 27 27 27 28 31 33 35 35 38 40 44 49 57 59 58 58 59 58 60 65 63 61 61 62 66 69 68 68 67 69 70 72 74 72 69
19 18 18 17 17 20 22 24 24 24 24 25 28 31 36 35 34 35 35 41 49 53 53 56 60 60 61 64 67 66 65 65 69 71 72 74 73 72 75 76 75 74 76
19 18 17 17 16 16 17 19 20 21 22 23 29 31 29 29 30 31 33 35 38 41 43 49 57 65 70 71 68 68 69 69 69 73 76 79 79 78 77 78 78 79 81
22 21 19 18 17 16 16 16 17 17 18 19 21 28 30 26 26 29 32 33 35 37 41 44 54 59 59 69 74 74 72 70 73 74 78 81 84 86 84 81 82 81 82
26 25 23 22 21 19 18 18 19 19 20 21 21 22 29 29 28 26 26 28 31 34 38 39 47 54 58 60 67 72 78 81 82 81 82 85 87 88 90 86 83 81 81
30 29 27 25 23 22 21 21 21 22 22 22 23 23 24 31 33 32 28 29 30 31 35 38 43 48 56 62 67 70 75 79 83 86 87 89 89 89 90 88 86 85 87
33 32 29 27 26 25 24 23 22 21 22 22 23 23 24 26 27 30 30 30 30 32 34 34 37 41 47 54 65 69 73 79 83 84 86 90 91 91 92 87 84 91 92
36 34 31 30 29 28 28 27 26 24 23 22 21 21 22 22 22 23 23 24 27 28 32 35 37 41 46 49 59 69 75 85 86 89 96 92 93 92 88 98 91 81 87
39 37 35 34 32 31 30 29 28 27 26 25 24 23 22 21 21 22 23 24 25 27 30 35 40 44 48 52 58 68 78 88 93 96 97 95 96 89 92 88 89 93 90
41 40 38 36 35 33 32 32 31 32 31 31 30 27 26 26 26 25 25 27 29 32 35 38 40 44 46 50 56 63 71 79 84 89 92 90 96 88 86 89 94 89 88
40 42 40 39 37 36 36 36 35 34 33 32 32 33 34 34 36 39 40 39 40 43 46 47 51 52 53 57 59 63 66 70 75 81 86 84 82 94 89 92 90 93 98
42 44 43 41 42 43 42 40 39 38 38 37 35 33 34 34 35 34 35 39 42 44 49 55 61 62 62 65 70 74 75 75 78 80 82 79 81 87 89 87 93 98 97
46 49 47 46 47 48 46 45 43 44 43 40 39 38 36 36 36 37 41 45 50 54 58 62 67 70 71 73 79 83 88 90 81 80 80 80 82 90 90 90 95 90 84
51 51 51 51 53 54 52 49 49 46 40 35 35 38 38 39 41 43 45 50 56 61 63 69 76 78 80 81 86 87 92 94 88 86 85 89 87 95 94 95 84 74 71
56 55 58 57 58 57 57 55 49 42 39 40 41 42 43 45 49 52 53 56 59 61 71 77 80 86 86 89 87 97 93 97 91 97 97 97 96 88 80 76 75 69 60
60 61 62 63 63 59 60 54 45 45 44 46 46 49 53 53 56 58 60 65 70 74 79 82 87 98 98 98 98 98 96 98 99 98 93 83 81 77 73 66 55 47 44
66 68 67 65 64 62 56 50 48 48 51 55 57 56 57 58 62 63 65 69 74 79 85 90 93 93 92 96 94 97 97 94 89 84 76 72 69 62 53 47 44 40 38
71 69 67 66 67 59 54 53 51 53 56 60 60 59 62 62 65 68 71 75 78 81 85 91 95 94 93 97 93 91 84 79 78 75 66 56 47 41 36 42 34 27 22
72 68 68 68 68 58 54 54 55 55 58 60 64 62 65 64 66 70 72 77 78 83 88 92 95 95 94 88 84 79 72 62 53 48 44 39 34 31 28 23 20 18 16
72 70 70 68 64 59 61 59 58 59 62 66 66 68 70 70 70 72 78 83 86 88 90 94 92 86 76 68 59 55 51 42 36 34 31 27 24 21 18 17 16 14 12
71 71 69 70 67 68 69 66 63 66 70 74 73 75 75 75 75 77 79 82 85 83 76 70 61 55 49 43 37 33 31 29 28 26 23 21 19 17 15 13 12 11 12
73 70 71 71 71 71 73 74 72 74 76 75 78 76 76 76 77 78 75 63 51 47 46 42 38 35 33 31 31 30 28 27 24 22 20 19 17 15 13 11 11 14 23
73 70 70 69 69 71 75 75 74 78 77 79 80 78 76 74 61 45 45 46 45 42 38 35 32 31 31 31 29 28 26 24 22 21 20 18 15 12 10 11 16 30 39
75 75 74 73 73 75 76 76 77 79 81 80 78 72 54 45 43 44 45 44 42 38 34 32 32 32 31 29 27 26 25 24 22 21 18 16 12 12 13 20 35 40 43
82 80 78 77 79 79 79 81 81 79 75 71 61 44 45 45 45 46 45 43 39 34 32 32 32 32 30 28 28 27 25 24 22 19 16 12 12 14 23 37 41 43 46

GFSMW_prec_cthk_075.txt.gz
RH
29 28 29 33 35 37 38 39 42 45 49 41 39 36 34 41 40 39 42 44 49 54 55 55 54 55 55 56 55 57 60 59 59 56 56 59 63 64 62 63 60 59 62
30 27 26 27 30 33 34 34 33 34 39 43 34 35 35 36 37 38 38 39 43 48 51 51 57 61 63 62 61 61 61 63 64 62 63 64 64 67 67 67 68 68 69
28 26 25 23 22 22 25 27 30 30 33 35 37 33 35 32 30 31 31 33 39 41 44 47 54 62 67 66 65 63 60 62 67 69 69 68 67 67 68 72 73 72 71
25 24 22 20 19 18 18 20 22 25 27 29 33 33 32 29 26 28 31 32 34 38 40 44 47 52 57 59 64 67 68 69 70 75 73 71 69 70 69 72 75 76 75
22 21 21 20 18 17 16 16 17 19 21 23 25 28 30 31 28 31 34 32 31 34 40 43 47 48 55 57 59 63 70 76 78 78 80 77 74 74 75 72 77 79 81
29 26 24 22 20 18 18 17 17 17 18 18 18 19 23 27 30 28 29 32 34 32 34 38 40 45 51 56 59 65 68 71 78 82 86 86 86 84 87 88 83 87 85
31 29 27 26 24 22 21 20 19 20 19 19 20 21 22 26 30 31 32 32 33 34 32 32 37 42 47 50 59 60 68 74 74 77 79 81 86 86 87 90 90 86 84
34 32 30 29 27 24 23 22 21 21 21 21 21 22 22 23 26 30 34 36 36 35 35 37 38 41 45 51 55 57 59 62 71 77 82 81 82 88 88 92 94 88 87
37 34 33 31 29 28 26 25 24 23 22 21 20 21 21 22 23 24 28 28 32 35 36 37 38 40 43 47 51 53 56 58 60 62 74 79 85 86 87 93 98 94 97
40 37 36 35 33 32 30 29 27 26 25 24 23 23 22 22 21 21 22 25 26 27 29 34 35 38 41 46 52 55 57 58 61 64 72 80 84 94 89 98 98 94 94
43 41 39 38 36 35 33 31 29 29 28 27 28 30 29 27 26 25 25 25 25 25 28 33 39 43 46 48 53 58 62 67 71 76 78 83 84 93 92 88 97 98 95
42 43 42 40 39 37 35 33 33 34 34 33 32 32 32 33 33 33 34 35 36 35 36 40 44 47 51 57 61 64 69 72 73 76 78 82 84 84 89 89 93 94 83
45 45 44 43 41 39 38 39 40 40 39 37 36 35 36 36 35 36 36 36 37 38 41 43 44 47 53 57 62 67 71 72 78 81 83 85 85 82 81 78 78 77 79
46 46 47 46 43 42 44 46 45 43 41 40 40 40 39 38 37 35 36 37 37 39 42 45 50 53 59 64 69 78 78 83 80 84 88 87 87 81 82 79 80 79 81
46 47 49 48 46 49 52 50 47 46 46 43 39 38 36 36 38 38 40 41 42 44 48 50 56 61 67 73 78 81 82 83 87 87 87 96 95 94 91 88 90 83 74
51 54 53 52 52 54 53 53 52 52 46 43 40 39 41 42 43 44 45 47 48 50 53 57 60 65 70 78 84 91 97 92 98 99 97 98 97 95 93 83 78 78 73
58 59 58 58 58 59 57 58 56 51 47 44 43 45 47 51 53 51 51 53 55 57 60 63 65 70 74 82 86 97 96 98 98 98 98 98 91 87 83 77 75 65 54
63 62 62 62 61 62 62 61 55 51 47 48 53 54 55 55 53 56 57 57 59 62 64 66 73 77 80 80 82 87 90 93 92 89 83 80 76 71 64 54 46 42 37
67 66 64 65 65 66 66 58 54 53 51 54 59 58 57 58 58 60 61 62 64 64 69 71 74 77 80 83 86 83 78 80 82 80 68 58 53 45 38 32 29 24 23
71 69 68 68 68 67 63 56 56 55 54 55 60 61 61 62 60 63 65 67 67 68 69 71 73 77 78 76 75 72 66 57 52 46 43 38 31 25 22 20 18 16 16
74 72 70 69 70 66 64 59 59 58 58 62 64 64 66 65 64 66 67 69 71 72 73 75 73 70 63 57 54 49 42 37 32 29 27 24 21 19 18 17 15 12 10
75 72 70 71 70 65 61 63 61 62 65 68 69 69 69 70 70 69 70 71 73 71 58 47 41 37 34 32 30 29 28 26 24 23 21 20 20 19 17 14 11 10 10
78 74 73 72 70 70 71 72 68 70 73 73 74 73 73 72 72 71 70 57 43 40 39 36 32 30 28 28 27 25 23 22 23 22 22 21 19 16 14 11 11 11 19
77 75 72 69 70 71 74 74 74 75 75 74 73 74 75 73 67 48 42 42 41 38 35 32 29 28 27 27 27 25 25 25 24 23 22 19 17 14 12 11 13 24 32
78 75 73 70 70 71 74 74 76 76 77 78 78 76 72 51 41 42 43 42 39 36 33 30 29 29 29 28 26 25 25 24 24 23 21 19 15 13 13 15 27 32 36
79 79 78 75 73 77 78 78 78 78 79 79 75 60 41 41 44 45 43 42 38 34 31 30 30 30 30 28 26 26 27 26 25 23 21 19 15 14 17 29 33 36 39

GFSMW_prec_cthk_078.txt.gz
RH
39 35 33 33 36 40 47 53 60 54 47 45 45 45 46 46 43 44 40 39 37 35 39 40 42 47 50 52 52 53 56 56 57 58 58 60 61 60 60 63 63 62 58
42 37 33 31 32 34 36 45 48 54 57 47 46 45 44 48 47 43 43 43 39 36 36 38 41 45 47 51 52 56 61 64 64 62 63 59 60 66 67 66 67 67 67
44 41 37 31 30 31 33 36 42 44 45 48 43 42 40 38 37 37 40 38 40 41 40 38 40 44 45 49 53 55 59 64 69 66 66 65 65 68 71 71 72 72 70
43 39 37 32 30 28 27 29 31 34 35 38 39 35 35 36 33 34 33 33 37 38 39 49 49 46 51 50 56 57 58 62 66 71 68 69 71 72 74 76 76 75 71
36 35 33 30 28 26 24 23 22 21 24 27 30 35 37 35 31 31 29 26 28 31 36 42 46 49 50 53 59 65 69 68 66 68 71 74 78 84 82 82 83 81 79
35 33 33 29 25 23 21 20 20 19 19 19 20 21 25 27 34 35 31 30 30 29 30 35 40 44 48 51 56 61 61 67 68 68 69 71 77 83 88 87 87 88 87
35 31 32 31 25 23 22 21 20 20 19 19 19 19 20 21 24 28 33 34 32 33 32 33 34 36 40 44 50 55 59 61 63 64 65 72 78 85 89 92 93 91 88
37 33 32 31 30 27 24 23 22 21 21 20 20 20 20 21 22 25 30 34 38 38 38 38 37 38 39 42 45 50 57 62 66 70 75 75 76 79 82 87 94 90 87
44 35 34 33 29 27 26 25 24 23 22 21 21 20 21 21 22 23 26 29 33 36 38 36 36 38 39 41 44 49 52 56 64 70 72 74 76 76 81 81 84 87 86
42 39 37 37 33 30 29 28 26 26 25 24 23 23 22 22 22 22 22 24 25 26 27 31 32 32 34 36 39 43 51 56 62 65 72 78 79 78 82 86 89 87 91
43 42 40 37 35 34 32 31 29 28 26 26 25 25 24 25 25 27 26 25 25 25 26 26 28 34 36 38 41 47 54 58 65 72 76 80 85 89 91 94 92 95 92
45 43 41 40 39 37 36 34 32 31 30 29 29 29 29 30 31 33 33 34 34 33 33 35 36 37 38 39 41 42 45 50 62 66 68 76 86 87 89 90 95 89 86
44 44 44 43 41 40 39 37 35 34 34 35 35 35 35 34 35 35 37 38 39 38 36 36 38 40 41 42 44 49 54 59 69 74 76 80 82 92 93 91 87 99 86
48 48 47 46 46 44 42 40 39 40 41 41 39 39 39 39 38 37 37 34 34 35 36 37 38 40 42 46 48 55 60 66 75 78 81 87 91 90 86 92 94 95 92
49 50 49 51 49 47 45 44 46 45 46 45 44 42 40 38 38 36 36 37 38 39 40 41 43 46 48 50 52 57 59 67 71 75 79 81 83 97 90 93 94 93 83
48 51 50 53 52 50 49 49 50 51 50 48 48 43 42 40 39 40 40 41 42 43 45 46 48 51 54 53 55 60 62 72 79 86 86 94 96 96 97 90 89 87 81
53 54 54 56 57 56 54 55 55 54 53 50 45 45 44 46 47 47 46 46 47 49 51 52 55 56 58 60 63 63 67 70 77 82 92 96 95 91 85 77 74 66 56
55 58 60 61 60 58 58 58 58 57 54 51 53 50 53 52 50 48 50 52 52 55 55 57 59 62 64 66 66 70 73 73 75 71 73 75 79 73 63 50 41 36 30
59 61 64 63 61 62 62 62 61 59 52 54 54 58 57 54 54 53 55 56 57 60 60 61 62 66 68 69 69 68 67 68 67 61 51 44 39 36 31 26 22 19 19
66 68 68 66 64 66 66 65 60 55 55 54 55 59 59 59 59 56 59 60 62 62 63 63 64 67 67 65 60 50 44 39 34 31 28 26 25 22 20 19 18 16 13
70 70 68 66 68 70 69 66 57 58 59 57 60 64 64 64 63 61 61 64 64 63 63 63 61 50 38 31 28 26 26 25 24 23 22 21 20 20 20 18 15 13 10
74 70 69 71 70 70 68 65 63 61 60 62 67 67 67 67 67 67 67 67 66 64 52 38 34 31 29 26 25 25 24 23 22 22 21 21 21 19 17 15 13 11 10
77 75 74 73 72 71 68 65 64 64 66 68 71 71 71 70 69 70 69 64 43 37 35 33 31 28 27 26 26 24 23 22 22 23 21 21 20 18 17 14 12 12 15
81 78 76 72 71 70 69 72 74 71 72 73 74 73 71 72 72 66 45 39 39 36 34 32 30 28 28 27 26 25 24 23 23 23 22 22 21 19 17 16 15 18 28
83 79 75 72 68 68 71 74 73 73 74 76 75 75 76 72 53 42 41 41 38 37 35 32 30 29 29 29 27 25 25 25 26 25 24 24 23 20 19 18 22 30 31
85 81 78 73 71 72 74 74 75 77 77 76 77 77 69 47 40 42 43 41 39 36 34 32 30 30 30 30 28 27 26 26 26 25 25 24 22 20 20 23 32 31 34

GFSMW_prec_cthk_081.txt.gz
RH
48 45 41 36 38 44 48 46 46 48 48 50 48 47 46 44 41 45 43 41 37 37 36 36 37 38 39 41 44 46 47 49 52 55 57 58 57 57 57 58 61 64 66
52 46 44 41 36 36 43 48 49 54 56 54 58 57 53 52 49 48 48 46 42 39 38 38 39 40 38 39 42 44 47 49 52 55 58 61 62 64 63 63 64 65 69
54 51 46 44 42 36 36 38 43 48 48 52 60 63 65 60 55 47 42 39 40 44 44 43 42 46 46 48 49 51 53 56 56 61 64 61 56 58 60 62 65 70 73
49 51 47 43 40 39 37 36 38 40 43 43 45 50 52 49 44 44 45 47 48 46 46 43 41 45 50 56 52 53 54 58 63 66 70 72 69 67 68 72 73 75 79
42 45 48 44 43 40 38 37 37 38 43 41 40 41 42 41 40 39 39 39 41 41 41 40 45 50 51 48 51 55 57 59 59 61 69 71 74 77 76 74 76 80 86
32 37 42 45 42 39 38 35 35 34 31 31 32 31 30 30 31 31 31 31 31 30 32 33 35 37 44 48 52 56 58 58 61 61 61 65 68 74 79 81 81 85 87
30 32 37 41 39 34 33 31 29 27 24 24 24 23 22 21 23 28 31 29 29 33 29 29 31 33 36 42 46 49 52 57 62 64 71 75 78 80 81 86 86 86 91
34 31 33 36 37 36 35 32 26 23 22 22 21 21 21 21 21 22 25 31 32 31 31 35 39 39 41 42 43 45 48 48 53 56 63 65 67 76 78 88 94 96 96
37 34 34 37 38 35 33 32 25 24 23 22 22 21 21 21 21 21 22 23 27 31 35 39 41 43 39 39 40 40 42 46 47 50 55 61 67 77 76 82 85 90 90
41 39 38 41 42 35 31 30 30 28 26 24 24 23 22 21 20 20 21 22 22 25 28 32 35 35 33 32 35 37 40 41 43 46 48 55 61 70 81 85 90 93 97
46 42 42 43 46 38 35 36 31 29 27 26 25 24 24 23 23 24 23 23 23 23 24 25 26 26 31 33 34 36 38 37 44 48 50 56 66 73 78 80 83 87 95
48 45 44 46 48 44 40 40 37 33 30 29 28 27 27 26 27 27 28 30 31 31 32 33 33 33 35 36 36 37 38 40 44 46 50 55 61 70 76 77 77 81 87
54 50 47 45 43 41 42 42 39 36 34 32 31 30 30 31 31 32 33 34 35 37 38 39 40 37 36 37 38 40 42 43 43 47 52 57 62 68 75 76 79 85 89
52 51 49 47 46 45 44 42 40 39 36 36 35 36 38 38 38 37 37 38 38 37 35 33 34 35 36 38 40 42 45 46 48 52 55 62 66 73 75 78 81 89 95
55 54 52 51 51 50 48 46 44 42 41 40 42 42 42 41 40 39 38 38 36 35 35 36 38 40 42 44 45 45 46 49 52 55 60 67 71 78 84 87 95 96 96
59 58 56 55 55 55 54 51 48 47 46 47 47 49 48 46 42 41 40 39 39 39 40 41 43 44 46 45 47 49 51 53 57 56 61 69 74 80 86 91 92 90 83
58 59 58 58 59 57 56 55 52 51 51 52 51 51 48 44 43 42 42 42 43 43 46 47 49 49 50 53 53 54 56 60 65 66 69 73 78 78 73 71 64 51 41
61 63 64 67 64 61 59 57 56 56 56 55 55 55 52 50 49 47 48 47 47 49 50 52 53 55 57 57 58 60 62 65 64 62 61 59 48 39 32 30 28 26 23
58 59 64 64 63 62 61 60 60 60 59 57 57 55 55 55 55 53 53 53 54 57 58 58 58 59 59 60 58 56 54 48 38 31 27 25 23 22 20 19 18 19 18
66 64 65 68 67 65 65 65 64 62 61 56 57 57 58 58 57 59 58 58 62 63 62 60 60 60 59 54 39 30 26 24 24 22 22 21 20 19 18 18 17 16 15
72 72 70 69 68 68 69 68 67 63 58 56 58 59 63 63 64 63 62 63 65 64 62 62 57 44 32 28 26 24 24 23 21 21 20 20 20 20 19 18 17 16 15
81 77 74 72 71 71 72 72 68 62 59 59 62 65 67 68 68 68 67 67 66 63 57 41 33 30 28 26 25 25 24 22 22 22 22 22 21 21 20 19 19 18 16
84 81 78 74 73 75 74 72 67 66 63 63 67 70 71 73 73 71 69 68 61 45 36 32 31 29 28 27 27 26 25 24 23 23 23 23 22 22 22 21 19 18 18
87 83 80 77 74 74 74 72 69 68 66 66 71 75 76 76 73 72 68 50 42 37 34 33 31 29 29 28 28 27 26 25 24 24 24 23 23 23 21 20 19 19 24
89 86 83 80 77 73 73 73 73 75 73 73 74 76 75 73 73 61 46 44 40 37 35 33 31 31 30 29 29 29 28 27 27 26 24 24 24 23 22 22 22 26 32
90 89 86 82 77 74 70 71 74 74 74 75 77 76 76 75 57 45 44 42 40 38 37 34 33 32 31 30 30 30 30 28 27 26 25 25 24 22 22 23 25 33 35

GFSMW_prec_cthk_084.txt.gz
RH
56 52 51 48 43 40 41 49 55 57 56 55 53 50 46 45 43 42 40 37 38 40 41 39 38 38 37 36 37 36 37 41 46 49 49 49 49 50 54 59 65 66 67
55 52 49 49 43 38 37 42 48 53 52 54 52 52 52 52 49 49 46 44 44 46 46 44 43 40 41 42 43 44 44 47 51 55 58 56 55 58 60 60 58 60 64
59 56 50 49 48 42 37 38 44 48 52 56 58 59 61 61 63 62 56 52 55 54 54 44 43 47 47 48 45 43 47 53 57 55 59 58 60 58 61 68 72 73 73
46 56 53 48 48 50 45 39 37 40 48 51 54 59 61 61 60 61 64 61 56 49 48 51 49 49 50 47 46 49 51 55 53 56 58 63 66 63 61 65 71 71 76
35 43 50 50 48 49 50 45 43 39 37 41 47 52 51 50 53 53 54 52 46 44 42 42 43 43 43 46 55 46 47 48 51 54 59 63 67 68 67 64 69 75 81
34 34 40 46 50 51 49 48 46 45 43 38 39 41 44 48 51 50 49 47 44 43 41 40 40 38 43 46 42 44 42 47 52 58 63 64 67 69 72 78 78 82 87
37 34 35 40 45 51 52 51 50 50 46 42 39 38 37 37 35 33 31 28 26 28 30 32 34 35 33 32 35 38 45 48 51 58 62 58 60 63 71 75 74 78 76
37 38 37 37 41 46 49 50 48 46 43 41 35 34 32 29 26 25 24 24 25 25 28 30 33 34 37 38 41 44 45 45 48 48 49 50 53 55 59 62 71 72 87
39 40 40 39 37 39 45 48 45 38 37 36 32 27 26 25 24 24 23 23 24 26 31 36 39 38 37 41 43 44 40 43 41 44 44 45 48 55 55 59 62 70 71
44 47 44 41 37 36 39 41 41 38 37 35 33 28 26 24 23 23 23 23 23 24 25 30 36 39 36 39 39 36 33 38 40 41 42 44 48 49 47 54 58 68 71
54 54 51 45 38 34 37 41 41 39 36 35 33 27 26 25 24 24 24 23 23 23 24 25 28 31 34 33 33 34 36 40 41 43 43 44 47 45 50 53 60 62 66
63 58 52 46 39 37 39 43 48 36 34 35 30 29 27 27 26 26 26 27 27 28 27 27 28 30 31 32 34 38 38 37 40 44 46 47 45 46 50 52 55 58 67
64 60 53 49 44 42 43 44 54 42 37 38 35 32 31 30 29 29 30 31 32 33 35 36 37 38 39 43 41 39 38 39 40 42 43 44 45 49 52 57 59 65 72
64 61 55 51 47 45 45 45 55 56 55 50 45 41 35 34 34 36 37 37 37 38 38 39 40 39 37 35 35 37 38 40 42 43 46 48 51 51 56 60 65 72 76
64 58 57 52 50 48 49 49 48 47 46 47 50 46 44 42 41 40 41 40 40 40 40 39 38 36 37 37 38 40 42 44 45 47 50 53 55 58 58 63 69 76 80
63 60 56 54 53 52 53 53 53 51 50 48 46 44 44 47 47 46 46 45 43 42 41 40 40 40 39 41 44 46 47 48 49 51 55 58 60 64 68 71 74 74 71
65 64 61 61 60 59 60 59 58 57 55 53 52 50 49 50 50 48 46 43 41 40 41 42 44 46 46 47 49 50 50 50 53 57 58 59 62 62 56 45 30 22 20
63 61 66 65 65 65 64 62 59 57 57 56 55 52 57 57 54 53 46 45 45 46 47 49 50 51 51 53 54 55 54 54 54 50 43 33 27 22 19 19 18 17 17
65 68 69 70 71 72 69 67 65 62 61 60 62 63 60 58 54 53 51 51 52 53 54 54 54 55 56 57 54 51 46 37 30 25 22 21 20 19 17 17 16 16 16
70 72 66 64 68 71 72 69 66 65 64 64 64 63 62 58 58 58 58 58 59 60 62 61 59 58 56 52 39 31 26 24 23 22 20 19 19 18 18 17 18 18 17
75 72 72 70 71 72 70 70 69 68 69 67 66 63 62 62 62 62 62 63 65 66 64 61 60 54 38 30 26 25 24 23 22 21 21 20 20 20 20 20 20 20 19
80 80 78 75 73 73 74 73 74 73 73 66 61 61 63 67 67 68 66 66 68 66 64 58 42 34 29 27 26 25 25 24 23 22 22 22 22 22 21 21 21 20 19
95 91 85 82 80 78 79 79 78 75 73 64 62 66 68 71 72 72 72 71 70 65 48 39 34 30 29 28 27 26 25 25 24 25 24 24 23 22 21 21 20 19 20
93 91 88 85 83 79 79 80 78 73 72 68 67 69 73 74 77 77 75 72 62 45 39 35 32 31 30 29 28 27 27 27 27 26 25 25 23 22 22 21 20 21 22
92 91 90 88 85 82 79 78 79 76 72 71 69 73 77 80 80 78 73 59 44 41 38 34 34 32 31 30 29 28 28 29 29 28 27 26 25 24 23 22 23 25 26
92 92 91 89 86 82 79 76 78 78 79 80 78 79 80 80 78 74 56 45 44 40 36 36 36 35 33 32 31 31 32 32 32 31 30 29 27 27 26 25 26 28 32

GFSMW_prec_cthk_087.txt.gz
RH
70 71 72 72 68 58 54 56 64 66 67 66 63 56 53 48 45 43 42 39 38 38 38 37 38 40 40 39 38 37 40 41 44 45 45 47 50 53 55 56 59 63 66
67 63 63 65 57 59 52 48 48 56 61 64 61 60 59 58 53 48 45 44 45 43 42 41 44 46 47 45 43 46 46 46 44 44 50 53 52 49 53 57 62 65 67
58 57 57 55 56 53 51 50 44 46 53 59 60 58 60 60 54 51 52 54 52 51 50 52 54 57 54 44 52 53 52 47 47 49 52 55 51 49 51 56 63 64 66
53 55 53 53 51 52 50 48 48 48 52 57 58 55 55 57 60 62 64 68 72 71 70 67 64 63 57 54 51 53 51 50 53 55 51 53 55 60 61 62 64 68 72
37 46 52 56 52 51 52 50 49 49 55 56 59 59 58 56 58 61 64 62 63 67 70 70 65 56 51 49 49 48 49 54 52 52 50 51 53 56 60 61 63 66 68
33 33 38 50 54 52 50 53 54 53 49 47 48 52 55 56 56 55 58 62 62 64 58 54 51 49 46 44 44 45 44 43 43 46 48 47 60 66 69 68 61 66 72
38 35 33 35 44 51 53 53 57 59 57 54 49 45 44 41 44 50 54 57 57 53 52 49 43 38 37 37 38 38 36 38 40 40 51 63 58 63 62 60 60 56 57
33 37 36 35 36 42 47 55 56 55 55 55 53 50 46 43 40 38 36 37 38 36 32 29 28 31 31 33 34 34 34 40 41 45 50 49 52 50 51 56 56 54 53
23 28 37 38 38 38 40 43 51 53 54 55 53 50 46 42 39 37 34 32 29 27 26 25 27 31 35 37 39 41 37 43 44 43 44 43 42 43 47 47 47 54 52
28 29 32 38 41 42 42 42 44 49 51 51 49 46 42 38 36 31 29 29 26 25 24 24 26 32 37 44 41 41 36 40 38 35 38 40 41 43 45 48 46 50 52
39 39 39 41 43 45 45 43 41 41 45 47 48 43 37 36 35 33 30 26 25 24 23 23 25 29 33 37 39 40 38 37 40 37 43 43 44 43 44 46 53 47 56
49 50 51 48 47 47 46 45 41 38 39 44 46 44 41 39 36 34 32 27 27 28 27 27 27 28 30 33 35 40 43 42 39 44 42 44 44 45 44 44 43 47 50
62 62 62 58 50 49 48 46 43 38 38 46 46 43 39 33 34 35 32 31 32 31 31 32 33 34 35 36 37 39 43 43 43 40 40 42 43 44 44 46 46 50 52
69 67 66 62 56 53 52 51 46 42 41 43 52 54 39 39 37 35 35 35 36 36 36 37 38 40 41 43 44 44 42 37 37 38 40 43 44 46 49 52 53 56 58
70 70 70 66 64 59 56 54 50 46 46 47 58 61 55 52 50 46 42 40 40 41 40 41 42 42 42 41 40 39 38 38 40 42 43 45 48 51 54 56 59 63 64
72 73 70 66 64 58 56 56 53 51 51 50 56 60 55 53 58 55 50 50 49 48 48 46 44 44 43 41 40 40 41 43 44 47 48 50 53 56 58 59 60 58 49
74 72 70 66 62 62 61 58 57 56 55 54 53 53 51 51 49 49 51 52 51 49 46 45 45 43 44 43 45 46 47 46 48 50 53 54 54 50 42 31 22 18 17
73 72 70 70 72 70 67 66 65 63 60 58 57 56 55 54 54 54 55 53 51 49 47 46 46 47 48 50 50 51 52 52 53 52 46 34 26 21 18 18 17 16 16
71 71 69 68 70 70 71 68 66 63 62 61 60 62 62 60 58 58 58 56 55 51 49 52 53 53 53 55 55 53 51 46 36 29 23 21 20 18 18 17 17 17 17
67 70 75 72 74 75 74 74 71 71 69 67 65 65 65 65 62 60 59 57 57 56 58 59 59 57 55 51 51 41 34 30 25 22 21 21 19 19 19 18 18 18 18
70 66 74 79 77 76 76 78 76 73 72 70 69 71 72 74 71 63 61 62 63 64 64 64 62 57 53 41 36 30 27 24 23 22 22 22 21 21 21 20 20 20 19
76 76 78 77 81 77 76 73 73 74 74 74 73 70 69 67 66 65 66 67 68 68 67 64 62 49 37 31 30 28 26 24 24 23 24 24 23 22 21 21 21 21 20
80 82 84 86 83 81 81 79 78 78 79 78 77 70 65 65 67 70 70 71 70 69 67 63 44 35 32 31 29 28 27 26 25 25 26 26 25 23 23 22 22 21 22
97 97 95 92 88 87 85 81 82 84 83 80 76 68 67 70 73 75 74 74 72 71 63 42 36 34 33 32 30 30 28 28 27 28 28 27 26 25 25 25 25 25 25
93 94 94 92 91 89 86 83 82 84 82 77 76 73 70 73 76 76 78 77 75 65 42 38 36 35 33 33 33 31 30 30 30 31 31 30 28 28 28 28 28 28 29
95 93 93 94 91 90 86 83 81 82 82 80 76 75 73 76 77 81 81 77 66 46 42 39 38 35 36 37 36 35 33 33 34 34 34 33 32 32 32 32 32 31 32

GFSMW_prec_cthk_090.txt.gz
RH
76 75 78 79 77 78 74 71 79 74 74 73 71 68 62 59 54 50 47 45 43 42 41 40 39 38 37 39 42 43 44 41 46 46 45 40 39 43 50 54 54 55 59
76 75 78 78 79 76 75 68 68 73 77 78 77 73 71 68 62 56 50 45 45 44 42 41 42 41 42 44 47 52 49 48 52 51 47 43 46 48 48 50 50 51 53
63 66 70 74 76 77 73 68 64 63 69 74 77 75 76 72 65 61 61 55 53 51 49 48 48 49 51 54 57 58 54 56 56 54 52 51 48 48 47 49 51 58 62
59 61 63 64 66 65 67 65 63 62 60 62 66 69 72 70 67 67 69 66 68 62 66 67 68 68 68 68 69 68 66 62 57 54 54 56 53 54 48 43 43 50 54
60 62 62 57 59 58 58 60 60 58 62 56 56 59 62 66 65 65 64 67 74 75 74 75 74 78 77 78 78 71 69 67 62 54 52 52 49 47 48 50 53 66 67
45 53 54 52 55 53 54 56 57 56 54 60 62 61 60 62 66 64 63 64 68 69 69 67 69 73 74 76 74 67 57 50 48 47 47 47 49 48 49 60 62 61 66
33 35 35 41 46 50 54 56 57 58 57 56 58 61 65 63 62 62 62 61 63 64 66 68 69 69 65 57 54 46 40 38 38 39 40 41 44 44 55 59 52 55 55
32 35 32 32 33 37 44 52 57 59 61 61 58 57 57 55 53 52 49 47 47 48 50 55 55 50 46 40 36 34 35 38 35 34 38 43 45 49 51 46 51 50 51
27 31 36 36 36 35 35 41 50 60 63 64 64 61 57 55 53 48 44 42 40 39 37 35 33 32 31 32 37 39 38 39 39 40 39 44 43 41 42 43 44 45 50
22 23 26 32 37 40 39 37 39 42 48 57 59 59 59 58 55 51 46 43 39 38 35 32 31 30 29 31 35 37 38 47 43 38 37 38 36 36 40 42 44 46 45
30 29 27 28 30 35 40 42 43 41 40 42 48 54 55 54 52 50 45 39 37 37 33 30 30 27 26 29 36 38 39 42 44 39 39 37 41 42 45 44 43 45 46
36 37 37 37 37 36 37 39 43 44 43 41 39 45 50 51 50 46 44 41 39 37 36 35 31 29 29 33 33 35 38 39 41 43 45 46 43 45 43 43 44 43 44
42 42 44 45 45 45 45 46 43 42 45 44 41 38 39 42 44 47 44 42 40 38 38 37 36 31 31 32 33 35 37 38 41 43 44 45 41 43 44 45 45 47 48
49 49 52 55 57 58 56 52 49 46 45 47 46 42 38 38 45 48 48 43 40 35 37 38 36 35 36 37 38 39 42 43 45 44 41 40 41 44 45 48 50 50 50
59 60 62 62 59 61 61 60 58 55 50 51 50 47 42 42 46 55 55 50 44 42 38 37 38 38 40 41 42 43 43 44 42 40 40 42 44 47 49 52 54 54 55
62 64 65 64 64 64 66 63 63 57 53 53 55 52 48 46 51 56 59 54 51 51 50 46 47 46 45 45 45 44 44 43 42 42 46 47 50 51 54 55 53 46 38
66 69 71 70 69 68 68 67 65 64 62 62 60 56 51 50 53 60 59 54 54 58 58 57 55 53 51 47 46 45 45 45 46 49 50 52 54 54 47 37 25 20 17
67 69 71 73 74 72 72 71 72 69 67 66 61 58 55 55 55 57 55 54 53 54 59 55 51 48 48 48 49 48 49 51 52 53 54 52 39 28 22 19 18 17 16
65 67 71 74 74 77 79 78 78 77 73 69 65 62 58 58 59 59 61 59 59 58 57 53 52 50 51 52 54 54 56 55 53 43 34 28 23 21 20 19 18 18 18
69 69 72 74 75 73 76 78 81 78 80 73 70 66 65 65 65 65 63 61 60 60 58 56 55 56 60 59 58 54 50 40 34 29 25 23 22 21 21 21 20 20 19
69 69 67 67 74 81 81 83 80 78 76 75 74 72 70 71 71 70 67 64 62 62 61 62 63 64 59 55 50 41 36 30 26 26 24 24 23 23 23 22 21 20 20
72 77 77 75 72 82 87 84 85 84 82 80 79 77 76 76 73 75 76 75 73 71 67 68 68 63 57 46 39 33 29 28 27 26 25 25 25 25 25 24 22 21 21
81 80 79 79 88 86 90 91 81 84 81 84 87 84 78 76 76 74 73 70 70 71 73 72 68 60 47 37 32 31 30 29 28 28 27 27 27 28 27 25 24 24 25
93 92 91 93 96 95 92 89 88 85 84 84 84 83 80 77 70 71 74 75 74 76 75 70 64 47 38 34 33 33 31 30 30 30 30 30 31 30 28 27 27 28 29
98 96 97 97 95 95 94 93 91 87 86 88 88 84 81 74 73 75 78 79 79 78 76 70 51 40 37 36 35 33 32 33 33 33 34 36 39 34 31 31 32 32 33
94 96 94 94 95 95 94 93 91 88 87 87 88 83 81 77 75 78 81 81 81 80 77 57 44 39 38 37 35 36 37 37 36 37 38 40 39 37 37 38 39 39 38

GFSMW_prec_cthk_093.txt.gz
RH
82 80 81 81 77 75 76 79 83 83 89 87 83 78 70 68 69 73 70 61 57 52 47 46 46 45 42 39 37 37 39 42 46 43 44 45 43 41 41 48 49 48 50
85 81 78 77 83 82 74 81 85 87 88 92 93 89 83 84 81 73 66 61 56 52 48 46 44 42 42 41 42 43 45 48 51 52 51 49 47 43 45 47 49 50 53
81 80 82 79 81 81 82 80 82 85 87 86 87 90 87 82 79 74 68 62 59 55 52 51 49 48 48 48 49 52 58 63 65 65 63 61 54 47 47 48 46 46 46
70 81 83 81 80 81 79 80 79 75 76 77 78 83 85 85 79 80 80 75 71 70 62 60 62 63 62 64 69 74 79 83 82 75 72 68 60 54 50 47 41 42 46
60 67 72 72 74 77 78 77 75 76 76 75 76 76 79 78 80 81 79 78 80 82 78 75 79 79 80 82 83 84 83 85 84 81 72 60 54 50 52 46 55 45 51
47 55 64 62 65 64 66 70 68 69 71 71 72 71 72 78 78 79 76 78 77 76 75 77 81 79 77 76 75 78 78 76 71 67 55 46 45 44 47 47 49 54 54
44 45 56 58 60 61 59 62 58 58 62 64 62 65 69 69 69 71 71 70 69 69 66 65 67 69 71 75 76 74 70 62 58 49 40 37 43 43 45 49 51 49 59
35 37 40 47 55 61 55 56 55 54 55 57 56 56 58 65 65 65 67 63 60 57 55 54 57 59 61 63 63 59 54 48 41 36 39 38 38 40 44 45 51 49 52
30 29 32 34 35 44 42 43 48 53 57 58 59 59 61 62 61 61 62 60 59 55 52 49 47 45 44 39 36 34 36 39 41 42 41 42 45 41 40 44 42 39 49
30 31 32 33 35 35 35 35 34 40 47 55 62 64 66 67 65 59 59 56 52 50 47 46 44 42 40 38 34 34 39 41 45 42 43 49 43 38 37 37 40 42 45
23 23 25 28 30 34 38 40 41 39 39 41 45 52 60 64 62 60 58 57 53 50 47 42 40 38 36 35 34 35 39 43 46 42 48 45 46 40 40 43 45 47 43
28 27 26 26 26 28 31 35 37 40 41 42 41 40 41 41 44 51 54 53 52 49 47 45 41 39 37 37 41 40 40 45 52 40 43 44 46 45 48 48 45 43 43
36 36 35 35 35 35 36 37 38 37 37 37 38 42 44 43 41 40 42 46 47 47 46 44 42 43 43 42 43 42 43 42 38 43 44 47 46 48 47 43 44 43 43
43 41 41 42 42 42 43 44 46 46 45 44 43 41 40 41 44 42 39 37 41 46 48 46 43 44 43 42 42 42 43 40 41 43 45 48 48 44 42 44 44 45 47
49 49 48 48 48 48 48 49 50 51 52 54 52 50 46 44 42 44 44 41 40 43 52 53 50 47 42 40 41 43 43 44 45 47 47 46 46 43 42 44 47 51 52
53 54 54 55 54 54 54 55 57 56 58 57 55 55 53 51 47 47 47 46 45 47 51 57 54 53 51 47 45 46 47 48 47 48 48 44 44 45 48 51 53 52 43
51 54 57 58 59 61 61 60 60 61 62 61 61 61 57 55 53 54 52 50 48 53 58 58 59 58 58 60 59 55 57 55 54 51 46 46 48 51 53 51 41 29 21
55 58 60 61 62 64 67 68 70 70 69 69 69 68 65 62 59 58 54 52 51 58 58 55 55 53 57 61 60 59 57 52 49 48 49 52 53 49 34 26 22 20 19
58 60 61 62 65 68 71 73 73 73 75 75 77 74 68 67 64 61 58 58 58 60 59 59 57 56 55 56 55 53 49 51 53 55 54 44 33 28 23 22 21 21 21
61 62 61 62 63 68 73 72 74 77 81 80 78 81 77 74 68 65 64 62 61 62 61 63 60 60 58 57 57 56 57 56 51 41 35 31 26 24 23 23 23 23 23
67 66 64 62 63 64 68 78 81 80 82 80 80 81 79 78 73 71 71 70 68 66 65 65 62 62 61 62 62 58 52 44 39 35 29 27 26 25 24 24 25 24 23
65 65 66 67 69 68 68 74 82 86 88 90 88 83 82 80 79 78 78 76 72 70 69 70 68 68 67 62 57 49 42 39 32 29 29 28 27 27 27 27 26 25 24
73 73 72 74 76 77 77 80 86 91 90 89 87 89 88 85 82 82 80 78 75 78 82 80 80 76 68 59 49 43 37 32 31 30 30 29 29 29 30 30 28 27 26
77 82 85 83 78 81 90 96 94 92 93 93 90 90 87 87 89 88 85 82 81 81 78 78 80 74 66 52 44 36 34 32 32 32 31 31 32 33 34 36 35 31 31
79 89 96 95 96 97 97 97 96 96 96 96 92 92 92 92 89 84 79 79 80 82 83 85 81 74 56 45 39 36 34 34 34 34 35 36 37 38 38 39 37 37 38
74 82 89 94 94 96 96 96 95 95 94 92 92 91 92 93 90 83 79 81 84 86 87 85 80 66 51 42 39 37 37 36 36 37 39 39 40 41 41 40 41 43 44

GFSMW_prec_cthk_096.txt.gz
RH
51 68 74 74 76 74 79 80 82 88 85 84 82 75 73 71 72 74 73 74 69 64 67 62 55 48 44 43 44 41 37 36 37 40 45 44 46 48 47 46 45 47 50
50 61 70 78 79 81 82 80 88 95 93 86 85 86 90 84 77 79 76 71 67 69 70 63 56 51 48 46 43 41 40 42 44 47 52 56 59 57 59 56 48 48 48
45 61 74 77 81 83 89 84 79 84 91 94 88 88 93 91 87 89 84 75 75 81 76 65 58 52 49 47 47 47 48 50 52 57 68 75 73 70 65 57 52 47 46
43 68 76 81 79 83 90 86 84 82 80 82 90 92 91 92 94 93 91 89 87 80 73 68 63 58 55 55 55 56 59 68 74 80 85 86 85 82 69 54 43 41 43
44 62 76 85 85 83 83 84 89 87 85 79 90 92 90 86 88 89 88 89 89 89 84 86 81 82 72 69 74 81 80 79 82 82 86 85 81 77 66 53 44 43 42
48 58 83 83 84 85 81 82 83 82 79 84 85 85 86 89 87 87 84 86 88 86 89 85 79 80 84 84 82 85 82 81 81 82 81 75 69 64 54 45 48 47 53
43 52 60 65 69 75 77 80 78 75 76 77 79 81 81 83 87 85 88 87 83 85 90 90 85 80 82 82 77 74 76 76 76 78 72 66 61 50 44 47 44 46 52
39 44 51 60 61 64 71 71 68 71 72 76 74 76 79 75 77 78 84 80 80 84 82 82 74 71 73 73 70 69 66 65 65 60 55 50 45 44 45 44 44 49 49
35 38 47 50 54 60 62 68 67 64 64 65 64 67 72 72 71 76 74 74 76 76 68 65 60 56 52 51 50 48 47 47 45 42 43 44 45 45 45 46 44 43 48
31 32 36 41 42 45 51 55 59 59 54 55 58 60 63 70 69 71 71 69 67 64 61 59 58 55 52 50 49 46 44 43 42 46 47 47 49 46 47 47 41 40 43
31 31 32 31 32 33 35 37 38 44 43 40 43 48 55 60 66 68 68 65 63 61 57 54 52 49 48 46 43 42 41 41 44 46 52 58 50 46 49 48 49 44 47
29 30 30 32 34 36 37 37 38 40 42 40 41 42 45 48 52 55 57 59 58 56 54 54 52 50 48 46 45 43 40 44 47 44 55 69 56 47 49 48 51 48 50
28 26 25 25 25 26 27 28 31 33 35 37 37 38 40 41 42 42 42 42 41 41 44 47 47 48 47 47 46 46 43 48 46 52 55 55 57 44 50 52 51 51 46
37 34 32 31 31 32 33 34 34 35 36 36 35 36 37 37 37 39 40 41 42 41 39 37 37 40 44 47 48 47 47 45 45 50 53 51 52 51 51 51 49 46 44
45 44 42 40 39 38 38 38 39 40 41 41 42 44 46 45 46 44 41 40 38 38 41 41 40 38 41 46 51 52 49 50 45 45 46 48 51 52 53 49 50 43 46
47 47 47 46 46 46 46 46 46 45 45 47 49 49 49 49 50 50 48 47 44 40 41 44 45 43 44 49 53 53 54 53 52 49 50 51 52 51 56 54 46 49 53
52 53 52 51 50 49 49 49 50 51 51 52 51 52 54 56 55 54 53 51 50 47 44 47 50 49 50 53 57 59 60 62 62 61 58 58 61 58 51 51 54 54 45
47 46 47 48 50 51 51 52 53 55 56 58 60 62 65 66 63 61 60 55 54 52 51 53 54 53 55 59 60 61 61 61 64 64 64 65 56 52 53 52 39 30 23
51 50 50 51 53 57 59 60 62 64 67 69 71 71 71 72 72 70 67 64 61 60 62 61 58 58 63 62 60 59 59 59 64 66 61 55 54 50 37 31 27 24 23
53 51 52 51 54 57 58 60 64 67 70 73 76 77 77 76 76 76 72 71 69 67 67 63 61 62 63 62 63 62 62 61 59 59 57 49 38 33 31 27 25 25 24
60 58 58 60 60 59 60 62 64 67 72 76 76 78 80 78 81 79 78 77 74 72 69 67 66 64 64 67 68 64 64 63 59 50 44 37 34 30 28 27 26 26 26
68 68 64 61 61 63 64 65 67 68 70 80 81 85 87 88 82 84 83 82 79 77 74 73 72 70 69 70 71 67 62 55 50 42 38 34 31 30 29 28 28 28 27
67 65 66 67 67 71 71 70 74 71 71 78 86 89 91 91 91 89 87 85 84 83 81 77 75 73 76 77 72 65 57 48 43 39 34 32 31 31 30 30 30 29 29
70 70 73 78 77 80 84 82 79 82 92 90 90 91 94 93 91 89 89 88 86 87 85 80 80 86 86 80 73 63 52 45 39 35 34 34 33 33 33 33 34 35 35
68 70 78 81 88 90 88 89 93 95 97 97 96 95 98 95 93 92 92 91 90 90 88 89 87 88 85 79 63 53 48 40 37 36 36 35 35 36 38 39 39 39 40
68 67 75 81 89 92 94 95 94 94 95 96 97 95 94 94 92 96 95 93 86 83 83 85 88 90 87 73 61 52 44 40 39 37 37 37 38 40 40 41 42 42 42

GFSMW_prec_cthk_102.txt.gz
RH
57 57 53 55 57 58 58 66 73 80 84 89 81 83 89 82 82 75 71 66 65 61 56 55 56 58 60 59 57 60 56 50 44 44 42 35 36 39 43 49 54 63 67
60 63 54 55 59 56 54 56 67 72 77 82 78 83 81 84 82 82 82 77 74 73 73 69 67 65 64 66 65 65 63 55 49 49 43 41 42 46 51 62 72 79 79
47 60 58 57 57 58 59 58 59 68 71 79 80 82 88 91 81 84 79 82 84 84 82 84 79 73 68 69 68 67 66 62 58 55 50 51 51 56 69 77 81 82 77
46 52 53 50 56 56 61 64 59 68 74 79 81 84 91 89 86 89 89 84 89 92 95 93 89 83 78 74 72 77 76 75 68 61 62 64 64 75 81 84 86 82 80
47 45 52 50 46 51 56 62 63 68 71 78 85 88 90 88 85 88 87 80 93 90 90 92 95 93 90 86 83 89 87 85 80 75 70 75 83 91 92 89 87 82 77
50 49 48 52 47 44 46 59 63 67 69 72 76 79 84 87 85 90 91 90 94 87 89 92 93 96 97 93 89 93 94 91 87 82 84 88 88 87 87 87 81 76 71
44 46 41 47 47 38 38 41 52 58 70 75 78 77 81 81 85 93 94 93 93 93 91 97 95 96 97 95 91 89 93 86 82 82 83 82 84 85 82 81 78 76 63
45 42 41 42 41 41 42 40 47 53 59 67 74 77 81 82 80 86 88 86 88 91 91 94 97 96 93 95 92 89 88 86 83 82 83 81 75 79 78 74 68 63 59
43 41 45 41 41 44 47 49 53 54 57 68 75 78 82 83 82 89 87 88 81 80 83 88 89 87 88 87 89 85 79 76 76 73 70 69 68 64 64 64 63 60 64
42 42 43 43 44 49 52 56 56 60 59 66 78 83 86 85 87 88 90 85 84 85 83 85 85 86 85 84 82 75 72 65 62 64 65 62 62 63 64 60 58 61 72
44 44 44 42 39 44 50 55 50 55 59 70 78 79 80 79 78 83 83 83 78 80 82 83 84 85 84 83 79 76 71 65 60 57 56 57 57 59 64 61 60 75 66
44 43 44 43 38 42 44 45 48 55 60 65 72 74 76 74 70 70 68 70 71 69 69 67 71 74 73 72 69 66 64 60 59 58 56 54 53 57 56 68 57 56 71
35 37 40 38 36 37 43 45 47 50 50 54 58 61 66 60 59 57 57 59 59 59 56 56 60 62 59 57 56 54 52 50 48 49 49 46 49 51 51 55 63 62 68
42 38 35 35 35 35 38 40 44 48 49 49 47 48 52 52 47 49 47 45 45 48 50 48 46 45 45 43 43 42 41 42 41 39 39 42 43 52 55 54 59 69 73
40 39 39 38 39 39 39 39 41 42 43 44 39 37 37 35 35 36 37 38 38 40 40 42 42 40 41 41 40 38 36 36 37 41 43 45 45 50 55 63 66 65 63
40 36 35 37 36 34 33 33 33 33 33 35 36 38 41 43 43 43 42 43 44 43 44 44 42 41 42 42 42 41 41 41 40 42 43 47 50 51 55 61 67 70 67
48 46 42 40 40 40 40 40 40 40 41 42 43 45 47 47 47 47 47 47 47 46 46 44 44 46 46 46 46 46 45 46 47 46 49 51 53 54 56 64 67 70 68
54 53 51 50 50 51 52 51 51 50 48 48 48 48 49 49 50 50 50 50 50 50 53 54 53 54 53 53 54 53 51 51 51 52 53 54 56 57 60 66 65 65 63
61 57 55 55 55 54 51 49 48 47 48 49 50 51 53 55 56 58 60 60 61 60 60 60 60 60 59 58 60 62 59 57 57 60 58 62 62 61 67 64 61 61 62
66 62 59 58 55 53 52 51 50 48 49 51 52 54 56 58 58 59 60 61 63 65 68 70 68 66 64 63 66 65 63 64 64 64 67 66 65 68 68 62 57 50 42
68 65 60 57 54 54 54 53 52 51 53 54 54 56 57 57 57 60 64 66 69 72 75 75 73 72 72 70 70 71 69 69 70 71 68 67 67 68 62 49 40 35 35
65 61 61 61 60 59 57 55 56 56 56 57 60 60 59 60 61 62 65 70 72 76 79 79 78 76 78 80 79 77 75 74 75 74 72 69 64 54 46 42 38 39 39
70 67 65 65 64 62 60 60 60 60 62 62 65 67 66 65 68 69 68 74 79 82 83 84 83 82 83 85 86 83 80 79 77 75 69 58 49 45 40 41 46 42 38
74 70 68 65 63 62 62 65 66 69 73 70 73 75 76 74 75 82 85 85 83 85 89 90 89 86 86 88 86 88 83 79 74 67 59 50 45 48 46 47 42 39 41
73 71 71 71 71 71 70 71 71 74 75 77 81 80 80 84 85 85 85 87 88 90 91 94 92 90 88 90 92 89 91 81 75 68 60 55 52 48 45 43 43 44 43
75 74 73 70 66 65 64 69 74 79 84 86 89 88 88 88 87 87 86 87 88 89 92 94 95 96 90 89 89 91 91 82 72 69 62 59 56 54 48 47 47 44 44

GFSMW_prec_cthk_105.txt.gz
RH
68 72 67 61 63 68 82 86 84 79 87 83 80 90 88 90 81 74 68 65 62 59 58 55 53 50 50 54 56 58 59 57 60 57 50 45 44 36 39 42 47 54 64
71 70 64 62 60 62 72 82 86 85 87 83 77 80 80 83 85 86 81 79 78 73 68 64 63 62 61 59 57 58 61 63 61 61 59 53 49 41 43 48 55 66 74
73 64 59 57 57 59 57 62 67 69 76 88 84 81 88 85 86 85 80 84 86 83 79 81 80 77 73 72 72 71 68 67 64 63 64 65 58 50 51 55 69 79 82
57 60 55 57 54 55 58 60 64 65 65 71 78 78 78 79 79 75 82 83 88 89 85 83 87 92 90 85 82 81 80 77 73 68 71 78 72 65 64 66 73 85 87
49 53 53 50 52 52 50 56 63 66 61 63 68 70 70 71 73 77 81 87 92 93 94 92 89 91 94 93 89 87 86 87 88 85 85 86 82 78 72 74 85 89 85
50 46 49 48 44 50 51 51 59 67 72 68 65 68 73 75 79 81 88 86 89 91 94 96 92 82 96 98 95 95 94 94 93 93 88 89 90 84 83 83 87 88 86
54 52 49 47 43 40 49 54 57 61 62 66 66 69 69 71 76 78 82 86 86 85 85 95 92 93 93 92 97 95 95 97 96 92 92 90 88 89 84 84 80 79 82
53 49 46 43 47 40 38 44 46 53 57 61 66 66 64 63 65 72 75 75 79 81 78 87 92 97 98 98 97 96 95 94 93 91 93 91 92 85 84 85 80 78 76
53 51 49 43 43 44 42 44 42 44 48 54 57 57 58 62 68 69 73 76 79 80 84 82 84 92 95 91 88 90 95 91 90 89 86 86 81 79 72 71 71 71 73
52 57 52 50 46 44 44 44 45 45 48 51 50 52 55 60 64 65 68 73 73 78 83 83 85 85 84 82 84 81 82 80 79 79 77 74 66 64 64 65 71 71 75
47 48 49 48 44 44 45 46 50 50 51 54 59 59 58 62 67 68 72 73 79 80 82 85 90 87 84 84 86 86 84 83 81 81 78 70 64 61 63 64 60 63 66
47 48 47 47 48 44 46 50 54 54 58 56 56 60 62 65 67 70 74 80 83 80 80 80 81 75 75 75 76 78 81 78 74 71 67 63 60 58 59 58 59 65 64
50 49 49 47 48 47 44 49 55 56 52 51 56 56 59 65 67 71 73 74 76 73 74 72 72 70 68 66 63 60 58 55 53 53 52 52 47 49 48 47 49 55 63
55 52 53 53 51 49 45 45 51 52 53 54 54 52 49 53 56 60 64 65 63 61 59 57 54 56 54 50 45 44 44 42 41 41 39 39 38 41 42 44 45 49 53
55 56 55 52 49 47 42 41 43 48 51 50 47 46 46 47 49 48 49 48 48 47 42 38 38 41 43 42 40 41 41 40 39 39 38 37 38 38 40 42 49 56 51
53 51 46 45 44 41 39 39 40 40 40 41 44 44 43 38 37 38 42 42 42 44 43 43 43 44 43 42 40 40 40 40 39 39 40 42 41 43 46 47 49 54 59
58 54 53 51 51 47 43 41 41 40 40 38 38 38 39 42 43 46 48 48 47 47 46 48 47 46 45 45 44 44 44 45 47 47 46 47 47 49 50 49 52 53 60
60 53 49 47 45 44 42 40 38 37 39 42 45 46 48 49 50 50 50 49 49 49 49 51 51 52 51 52 50 50 49 50 52 52 52 52 52 52 53 55 57 57 64
60 58 56 53 51 50 49 49 49 50 52 53 52 52 51 50 51 51 53 54 55 56 59 60 60 60 61 59 56 55 57 54 57 58 58 60 60 60 59 60 59 64 67
71 67 63 60 57 55 55 54 53 50 47 47 49 51 52 53 54 55 57 59 59 58 58 59 62 63 63 65 66 64 62 63 62 62 62 64 63 63 63 65 68 70 72
77 75 72 68 63 61 59 56 53 52 52 53 53 53 54 55 55 56 59 61 61 60 62 66 65 68 72 74 72 70 70 68 68 68 67 68 69 70 70 69 69 66 59
78 76 73 68 66 63 60 58 57 56 56 56 56 57 59 59 60 62 64 64 64 65 65 67 74 77 79 81 78 77 74 73 76 77 75 74 75 74 70 67 59 49 45
80 77 74 72 67 65 66 65 64 63 62 62 61 61 62 64 69 73 72 70 72 73 77 81 82 83 85 84 84 81 80 82 83 84 80 77 76 70 64 52 48 43 42
78 79 79 76 72 71 68 65 65 66 67 68 70 73 76 76 78 79 80 76 79 85 86 86 87 86 86 87 86 85 87 87 87 87 86 75 65 59 55 50 48 46 45
83 79 78 77 74 72 70 66 70 70 73 74 74 76 80 83 84 84 85 85 87 87 86 86 86 88 88 89 90 89 88 91 90 89 84 79 70 58 52 50 50 49 49
87 84 80 78 74 72 72 71 71 71 76 75 77 81 85 89 91 90 88 89 86 83 82 83 85 88 89 92 92 94 92 91 93 88 88 79 71 63 56 54 53 48 48

GFSMW_prec_cthk_108.txt.gz
RH
84 78 75 78 84 90 85 86 85 90 83 83 91 88 81 78 74 70 64 60 59 57 55 55 57 59 58 56 55 55 54 54 54 56 58 57 55 55 49 41 39 41 47
90 84 78 72 87 87 87 84 89 83 85 81 91 92 97 86 84 81 75 69 67 66 66 63 63 62 62 61 61 62 61 60 59 60 60 59 56 58 59 53 52 49 53
83 87 83 78 79 84 83 86 84 87 92 92 96 94 86 86 96 88 87 83 79 80 78 77 74 74 73 73 74 73 72 69 70 72 68 67 61 61 64 63 66 67 66
80 79 83 79 76 73 73 76 80 83 82 92 90 84 87 88 88 84 88 84 82 80 84 84 79 85 86 86 89 89 85 84 81 79 77 77 76 78 78 79 76 73 77
77 75 78 78 74 72 66 64 66 73 78 88 93 89 88 93 87 90 84 84 79 80 76 81 80 89 93 93 92 92 94 94 91 86 88 86 85 84 87 85 82 80 78
72 63 77 71 68 68 65 61 63 70 71 66 71 79 79 80 74 77 75 76 75 77 88 89 83 86 94 94 96 94 91 96 94 93 92 94 94 91 94 92 89 88 86
58 60 62 63 61 61 61 59 58 60 64 68 69 66 66 66 67 71 80 86 87 87 87 85 84 86 91 90 85 96 97 98 99 97 95 95 95 93 94 93 92 90 85
59 55 55 55 51 49 49 54 57 59 60 57 62 68 69 71 67 67 69 71 71 73 77 77 76 78 83 86 88 96 98 99 98 97 94 94 94 95 95 94 93 89 82
58 56 55 53 48 40 40 44 51 52 56 55 58 61 60 60 61 63 62 64 66 64 66 67 70 73 75 83 86 88 89 91 96 97 98 95 94 92 91 93 93 92 82
62 56 55 56 52 47 46 45 46 45 48 52 53 54 58 56 54 53 54 56 58 58 56 60 65 71 75 79 79 81 84 85 87 85 90 89 86 87 90 85 79 73 69
50 55 58 57 56 52 49 47 43 44 50 51 54 54 50 49 50 53 55 56 57 57 59 64 67 73 79 79 80 81 82 86 87 91 90 86 86 83 80 76 73 69 69
43 49 54 58 57 55 50 44 45 45 49 49 53 55 56 56 62 60 58 62 62 63 65 71 72 74 82 83 84 82 79 87 89 85 86 86 83 77 74 71 68 66 70
42 45 50 57 61 60 53 46 45 47 49 55 59 61 62 63 60 65 64 59 61 64 68 73 79 82 85 84 79 76 75 70 69 67 65 64 61 58 55 55 55 58 57
49 46 50 52 53 54 53 51 49 50 55 58 59 59 59 57 51 55 56 60 59 57 62 68 71 68 68 67 65 62 57 53 47 44 44 44 42 41 40 39 40 42 46
58 61 59 57 57 58 57 56 54 57 60 62 60 57 56 55 54 52 49 49 50 57 61 57 55 52 51 50 48 47 43 41 39 39 39 39 40 40 41 42 44 46 48
61 68 67 62 61 60 60 58 56 52 51 55 56 55 57 53 50 46 46 44 41 39 38 41 41 44 46 44 42 42 42 39 40 39 40 41 40 41 43 46 48 51 51
59 60 64 63 62 62 60 56 51 48 46 48 51 51 49 47 46 46 40 36 37 38 41 42 43 44 47 47 46 46 45 44 43 43 43 45 47 48 51 51 53 55 60
67 64 61 59 58 56 53 51 49 49 48 48 47 46 46 45 41 39 39 40 42 45 47 46 45 47 50 51 51 51 50 50 49 49 49 50 50 51 53 55 59 61 62
74 71 66 66 64 60 58 57 55 54 50 47 45 43 42 44 44 45 46 47 47 47 48 50 53 55 55 56 56 55 55 56 55 55 55 56 59 60 60 61 63 63 63
73 73 70 65 63 60 57 54 52 50 48 47 48 50 52 52 51 48 47 48 51 53 54 56 56 56 57 56 56 58 60 62 64 63 61 63 64 63 62 66 67 66 65
73 74 72 67 63 60 58 56 55 54 54 54 54 53 51 49 48 49 51 52 54 56 57 59 60 59 57 58 60 63 67 70 70 69 67 67 71 72 69 69 72 71 71
79 76 74 73 71 69 66 65 63 61 60 58 56 54 53 53 52 53 54 56 58 59 60 61 59 61 63 64 68 69 73 77 77 76 74 74 78 80 77 74 75 75 72
85 83 82 78 76 73 69 67 66 66 64 61 60 59 58 58 58 58 58 59 61 66 69 70 68 69 76 78 79 78 80 81 81 81 81 82 82 85 81 73 67 63 54
81 79 78 77 78 77 75 72 71 69 69 68 66 65 64 65 67 68 70 72 72 74 73 74 77 79 81 81 81 83 84 85 85 85 85 87 86 86 78 70 61 51 50
84 81 80 79 78 78 78 76 72 69 69 67 67 68 68 68 70 73 76 76 76 78 79 80 80 79 79 79 80 82 84 87 88 88 89 91 88 85 77 67 60 53 48
88 86 83 81 79 78 77 74 70 69 69 69 73 73 73 75 75 76 79 80 83 84 84 84 82 82 81 78 78 84 88 91 91 89 90 90 92 86 77 67 57 54 52

GFSMW_prec_cthk_111.txt.gz
RH
80 81 86 89 90 97 97 88 83 89 81 76 72 68 59 57 56 56 54 54 54 53 53 54 54 54 55 56 57 55 55 56 57 56 54 52 53 56 55 57 57 55 53
84 81 80 79 84 91 92 88 92 94 85 76 74 73 69 68 65 65 66 65 63 62 61 61 63 64 63 65 66 65 63 63 65 63 62 62 62 60 56 57 60 61 61
82 77 76 79 89 84 88 88 95 96 92 87 86 88 85 76 73 75 77 74 74 72 70 70 70 73 75 76 75 73 73 75 76 74 74 74 69 69 68 69 70 73 75
79 76 72 73 75 81 89 98 96 98 90 91 78 89 92 86 76 82 89 87 89 84 82 80 81 80 79 83 85 83 85 87 88 89 86 83 79 82 78 80 79 79 82
81 79 74 77 77 84 94 99 96 94 90 83 97 98 99 92 89 84 84 91 90 86 82 85 86 88 86 89 89 88 92 95 95 97 92 89 89 84 83 85 85 85 86
84 87 83 81 75 80 84 92 93 97 84 80 90 91 88 88 94 93 92 89 83 85 87 87 87 87 86 89 88 88 83 91 91 97 96 95 94 91 89 89 91 94 92
86 82 80 79 74 76 81 79 78 74 79 82 86 82 85 88 95 93 93 95 95 95 89 92 90 91 87 87 92 85 83 96 92 93 98 98 98 98 97 93 94 96 94
80 75 79 82 79 78 72 71 69 70 72 76 81 80 82 83 88 85 84 84 83 83 81 77 84 81 74 75 74 77 78 79 87 93 96 99 98 98 98 98 96 96 95
79 68 65 66 70 73 73 73 71 74 70 69 71 73 73 79 80 73 73 74 72 69 70 66 66 64 61 62 62 64 68 83 82 85 90 93 97 99 98 98 97 97 95
73 66 59 59 62 67 65 65 62 63 66 67 67 68 69 64 62 67 66 62 59 60 61 59 57 58 58 58 60 60 62 70 77 82 85 89 94 96 95 96 96 96 96
69 65 63 65 62 60 58 55 57 59 62 61 62 64 64 62 62 63 59 56 53 50 49 49 53 55 59 63 67 68 68 68 73 81 87 92 91 92 94 94 95 93 89
60 61 63 61 63 60 59 59 61 57 54 56 60 57 58 61 58 57 56 56 54 52 56 60 64 65 67 68 71 74 71 73 83 86 92 95 92 86 79 82 79 78 75
49 52 54 57 63 63 59 55 55 52 48 49 53 53 58 60 61 58 62 60 61 62 61 62 64 65 67 70 73 77 83 88 87 78 67 67 69 67 64 58 58 60 59
44 42 45 50 56 62 66 59 55 54 49 53 55 58 58 61 62 60 59 56 57 59 58 56 58 61 62 61 65 68 66 63 60 58 55 50 51 47 42 40 41 45 46
46 44 46 51 56 61 59 58 53 52 52 54 56 56 59 58 58 56 52 52 54 53 48 49 53 56 56 53 51 48 48 50 49 48 48 44 40 38 38 38 41 42 43
57 55 48 53 57 54 58 59 56 58 57 59 61 60 60 59 55 58 61 59 52 46 44 42 43 43 43 46 47 47 47 45 42 40 39 40 40 41 41 43 44 45 48
56 59 66 69 68 67 66 58 57 57 54 52 54 60 61 60 58 58 54 50 45 43 43 41 39 38 40 43 44 42 42 42 43 43 43 44 44 45 45 48 49 49 51
57 58 64 72 71 69 66 64 62 60 58 54 52 52 53 54 52 50 46 45 45 41 39 39 40 42 43 47 46 44 45 46 46 45 46 48 49 49 50 53 54 57 60
71 65 63 64 65 65 63 61 58 55 53 52 51 51 49 47 46 47 46 44 41 41 43 44 46 47 49 49 48 46 45 45 46 48 49 51 53 54 56 60 61 62 62
76 77 75 72 68 67 63 59 59 57 55 55 53 51 49 48 48 46 45 45 45 47 49 50 50 51 50 49 48 46 46 48 50 51 55 59 63 63 64 65 65 65 65
75 75 76 76 75 74 72 66 65 64 63 62 61 60 57 53 51 49 49 50 51 51 51 51 51 51 51 51 50 51 52 54 53 58 63 66 70 69 68 70 70 72 72
79 77 77 76 73 69 66 65 64 62 59 56 55 53 52 52 51 52 52 52 52 53 53 53 54 54 54 56 57 59 58 59 66 68 70 72 73 73 74 76 76 78 79
86 83 80 78 76 74 72 71 69 66 63 61 61 60 60 59 59 57 56 56 56 57 58 58 58 58 60 62 63 64 68 71 74 73 73 76 77 78 79 82 83 77 73
91 90 87 86 83 81 80 79 76 73 71 70 70 69 68 66 65 63 63 63 65 66 67 66 64 62 65 67 68 71 73 73 73 73 76 79 80 83 84 87 84 76 67
83 84 84 85 84 82 80 79 80 81 80 79 79 78 76 74 71 70 69 69 69 68 67 67 68 70 73 72 73 73 73 73 72 73 79 81 82 84 87 88 83 74 68
93 92 88 86 83 83 82 81 81 80 81 79 77 75 76 76 75 71 70 71 71 71 72 73 72 75 78 79 79 79 79 76 72 73 78 83 85 87 88 88 78 73 66

GFSMW_prec_cthk_114.txt.gz
RH
92 92 92 90 81 96 84 77 75 68 68 74 68 64 56 49 43 41 40 40 39 39 38 40 40 42 43 45 48 54 57 56 57 58 58 57 57 56 56 58 57 57 57
78 83 84 88 82 84 98 90 86 72 75 75 69 68 61 56 50 47 47 47 46 46 46 47 48 51 53 59 65 66 69 68 65 64 66 67 65 64 65 65 65 67 68
81 79 85 86 88 81 91 98 87 80 81 81 79 73 72 64 58 57 57 58 59 59 57 57 60 63 66 69 72 77 79 77 78 80 82 80 79 79 79 71 70 72 72
81 78 82 77 81 91 89 92 94 91 85 87 87 78 78 66 63 63 65 67 68 69 69 69 70 74 79 82 84 80 85 88 87 86 87 87 88 90 88 84 78 77 77
83 76 78 74 76 86 94 95 94 96 99 96 94 91 95 91 77 74 75 80 83 85 84 83 84 83 88 88 86 89 84 88 92 89 92 87 92 95 95 88 84 84 85
79 84 80 76 74 83 90 89 83 89 91 99 98 97 93 99 93 89 91 93 92 87 87 86 85 88 94 91 89 89 84 78 89 87 88 88 90 93 96 94 93 93 93
87 84 80 78 78 80 80 74 85 91 96 95 96 97 93 96 89 92 95 91 93 91 94 95 94 93 96 92 84 84 81 78 79 81 86 89 90 93 94 98 97 98 98
82 80 79 75 72 77 78 76 82 88 95 94 97 98 93 91 95 96 91 91 95 90 93 89 89 91 90 92 88 78 70 69 67 67 74 79 88 92 96 98 97 97 98
83 77 78 77 79 83 83 81 80 87 90 87 93 91 90 88 92 92 88 91 91 93 95 94 92 81 80 80 72 65 57 57 62 61 68 79 76 83 94 93 97 97 98
80 76 83 82 83 87 84 84 85 83 83 84 85 86 87 88 87 88 86 85 82 80 80 74 66 62 63 57 57 55 54 56 60 66 67 69 75 80 85 94 95 96 97
79 79 75 76 79 86 85 84 80 76 73 75 74 76 81 83 83 81 76 70 66 63 66 62 56 54 51 53 58 59 62 67 65 65 68 69 75 81 86 91 93 92 94
78 68 73 74 76 78 82 73 67 66 64 61 62 68 69 76 79 73 68 68 64 57 59 57 55 59 62 62 63 63 68 68 71 72 73 74 75 78 81 81 80 77 75
65 71 71 73 73 79 74 66 61 59 59 58 57 63 69 70 68 65 63 61 58 58 60 59 62 63 64 65 68 68 70 71 77 74 63 59 61 60 60 54 53 53 53
63 65 65 67 72 75 71 65 60 58 57 59 60 63 65 62 62 57 56 55 57 54 55 56 57 59 58 57 60 60 62 59 54 49 45 43 46 47 46 43 41 40 39
53 56 55 56 64 68 71 71 65 60 58 59 61 66 67 64 61 62 61 57 54 52 53 51 52 54 52 53 50 50 48 45 45 46 47 46 47 45 40 37 37 36 38
54 50 50 51 54 59 60 62 64 66 61 57 57 62 63 63 64 63 59 56 54 53 52 47 45 44 42 40 39 38 39 41 40 40 39 39 39 39 41 40 39 39 40
47 52 55 52 52 59 67 65 63 60 62 59 56 60 61 66 65 64 61 60 60 59 53 48 46 44 42 39 37 40 42 41 41 43 42 42 41 41 42 41 41 43 45
50 51 55 56 59 62 63 62 61 60 59 56 55 54 55 58 63 65 66 63 61 57 51 46 44 42 38 40 41 43 45 44 46 44 43 42 40 43 45 44 46 49 50
53 53 54 59 65 67 66 64 64 64 64 60 58 57 55 54 55 59 58 57 53 48 48 47 46 43 43 45 47 51 50 47 45 44 43 43 43 45 49 49 52 56 58
66 64 62 61 60 63 66 66 64 61 61 60 56 57 57 58 60 59 58 54 52 53 52 54 49 48 48 52 53 53 50 48 48 47 48 49 50 53 58 59 58 60 62
68 66 69 72 67 64 62 60 58 57 58 59 59 60 58 58 59 60 59 57 54 54 54 53 52 51 54 54 54 52 50 51 53 54 52 54 56 60 62 63 62 63 65
73 74 73 72 74 73 71 71 71 69 66 66 66 65 63 62 63 63 61 59 59 56 53 52 53 55 56 57 55 52 52 55 56 59 60 61 63 64 63 64 64 66 71
81 79 76 76 77 76 75 72 71 73 71 69 67 66 65 63 63 63 61 57 55 54 54 58 60 61 62 59 58 59 58 60 62 63 64 66 65 63 63 66 68 70 72
88 91 89 88 83 79 78 78 77 76 76 72 70 68 67 66 64 64 64 64 63 64 65 66 70 67 60 60 62 62 63 64 65 66 70 71 68 66 66 68 71 73 70
83 85 93 93 92 90 89 87 86 84 82 82 81 80 78 76 75 75 75 74 74 74 72 72 70 64 62 62 63 66 68 70 70 74 76 75 72 69 68 70 71 71 70
87 90 90 91 90 90 89 89 88 86 85 84 83 83 82 81 82 81 80 79 78 76 76 75 74 69 66 66 69 70 71 73 74 76 77 73 72 72 72 74 75 76 72

GFSMW_prec_cthk_117.txt.gz
RH
81 74 76 91 97 88 99 98 87 84 78 63 63 64 58 47 43 37 29 29 30 29 28 30 34 38 42 45 45 46 46 48 53 56 55 55 58 57 57 58 60 62 63
79 74 82 87 94 92 87 96 95 82 79 71 67 63 59 51 46 44 39 34 31 32 32 34 38 43 45 45 45 47 52 60 65 68 69 67 65 64 67 73 75 74 68
78 77 76 79 89 92 98 98 88 94 86 82 79 72 68 62 56 46 44 41 39 39 39 40 42 42 45 48 51 58 69 73 77 79 80 79 77 79 81 81 80 80 79
81 77 71 75 86 93 87 89 93 90 93 88 82 75 69 67 59 48 49 49 48 50 52 52 51 52 56 61 65 72 78 82 82 82 86 84 86 87 84 85 84 86 83
78 78 78 82 89 90 92 84 84 95 97 98 82 84 85 77 69 55 47 52 59 62 62 64 66 67 69 76 81 85 85 85 86 82 82 85 84 85 85 84 87 87 85
78 78 79 86 94 94 96 88 78 82 86 92 93 88 96 91 83 71 59 59 65 67 70 72 78 80 82 87 90 89 91 87 84 81 73 76 79 82 87 82 90 89 88
91 87 79 84 80 83 86 86 84 79 90 97 97 92 99 98 96 88 76 70 74 82 84 86 89 90 90 90 90 90 88 86 82 78 76 70 73 74 74 79 81 84 90
89 89 83 85 86 84 81 89 91 93 96 89 90 92 94 96 98 98 93 88 93 97 98 97 95 89 86 87 87 88 90 87 83 73 67 61 69 65 69 74 77 85 84
93 94 82 84 85 83 79 80 83 93 89 91 98 92 92 93 93 94 96 95 93 95 97 90 90 89 86 87 90 89 93 74 65 60 59 59 65 63 77 76 77 78 86
95 86 83 83 86 87 82 82 82 80 83 90 93 95 92 96 96 92 91 88 86 86 87 89 89 90 90 88 87 77 65 57 53 54 60 64 69 70 72 74 78 78 81
91 89 90 88 83 86 85 84 82 79 77 86 94 93 93 92 91 91 91 90 89 90 89 87 85 78 76 64 58 55 55 55 56 60 65 66 67 65 66 69 73 75 79
83 80 81 82 89 88 83 79 78 77 77 83 85 88 85 86 87 88 89 86 87 85 84 77 68 66 63 56 55 57 61 63 65 69 70 67 66 67 66 64 60 56 57
78 77 81 81 90 91 89 84 79 76 71 72 75 78 81 82 83 80 76 74 73 75 71 65 63 63 62 61 61 63 65 65 65 67 66 63 56 50 46 43 40 39 41
70 75 82 88 86 86 88 84 75 70 70 70 69 70 75 80 75 70 70 70 70 65 62 63 62 60 59 60 61 62 64 61 58 51 50 48 45 42 41 39 39 36 33
66 67 74 81 84 82 85 83 75 70 70 70 71 69 74 81 75 71 67 64 65 64 61 60 59 57 58 59 57 54 54 52 46 43 42 41 39 37 36 34 35 34 33
64 64 64 66 70 77 80 81 78 69 65 68 69 70 74 76 78 69 65 68 61 60 58 57 56 54 52 50 47 45 44 42 39 38 38 38 39 38 38 36 34 32 32
49 52 56 56 62 67 70 76 76 72 68 67 62 60 62 63 63 65 64 65 66 63 60 58 57 52 47 45 47 46 44 40 40 41 41 41 41 38 36 35 36 34 35
44 46 51 53 57 59 65 74 74 69 66 60 59 62 62 63 64 67 66 67 65 65 65 62 61 55 49 48 46 45 44 44 44 44 44 43 40 39 38 38 42 39 40
44 42 45 55 59 61 63 66 67 66 66 66 63 63 62 60 59 60 61 64 66 67 65 62 57 52 50 49 48 47 48 46 47 48 46 44 45 45 41 43 47 44 49
59 56 54 51 52 58 61 64 67 68 66 65 65 64 63 60 58 57 57 60 63 64 62 60 57 54 52 52 53 53 52 52 52 49 49 48 49 51 50 51 52 54 54
64 63 63 63 63 60 59 60 61 64 68 67 62 61 59 59 62 63 62 62 60 61 62 61 60 56 55 56 57 57 56 53 51 51 49 52 53 53 54 53 55 56 55
68 68 67 66 64 68 69 67 64 62 63 65 66 68 69 71 72 70 67 66 64 62 61 63 63 60 59 59 60 58 59 58 57 58 58 58 58 58 56 55 54 55 57
63 68 70 70 68 67 71 72 71 71 71 71 72 71 72 73 73 75 73 70 71 71 69 66 63 60 59 60 66 65 60 63 66 63 64 63 61 63 60 59 57 58 59
70 71 73 74 72 72 72 75 77 77 77 77 77 78 76 73 74 74 72 72 72 70 67 68 70 67 70 73 71 65 65 69 68 69 68 65 65 64 63 61 60 61 62
73 74 75 76 78 78 79 80 82 83 83 84 81 82 84 82 82 80 78 77 76 78 83 82 80 80 80 76 73 72 72 72 72 71 69 68 68 67 66 63 62 64 65
75 78 81 82 85 83 87 90 88 87 87 87 86 85 85 86 86 87 88 86 85 88 90 89 88 87 84 80 79 78 78 75 72 69 70 70 69 68 67 65 63 63 66

GFSMW_prec_cthk_120.txt.gz
RH
76 77 77 76 81 88 89 94 98 90 88 82 73 62 48 38 34 31 31 34 35 34 34 33 32 28 32 39 42 43 45 47 47 47 48 47 47 47 48 51 54 60 62
79 77 83 76 78 90 83 89 93 99 91 85 79 66 54 42 34 31 30 35 34 33 34 31 32 33 38 42 44 46 48 48 47 52 58 62 70 68 66 65 70 73 75
79 81 86 76 75 82 87 90 90 93 97 91 87 78 67 55 46 37 31 32 32 32 34 32 33 38 44 45 47 49 47 48 54 60 72 80 80 78 78 78 80 78 78
81 78 78 78 80 82 83 84 99 92 99 91 92 81 70 61 50 44 38 33 33 34 35 35 36 41 45 48 49 46 49 58 70 76 80 80 82 87 82 81 81 79 79
86 78 75 78 79 80 82 87 89 98 87 96 92 84 79 71 65 57 52 43 38 36 36 37 39 43 45 47 49 56 62 70 78 84 86 81 76 79 80 79 80 78 80
83 78 78 80 72 80 90 81 90 93 99 98 94 89 83 83 78 67 54 52 46 44 46 49 51 52 54 59 64 68 75 79 84 82 82 82 80 74 73 66 69 74 72
85 79 79 85 89 83 86 78 90 85 90 97 98 90 96 88 85 79 65 56 55 53 55 57 60 63 67 71 76 83 87 87 89 88 82 80 77 73 66 60 65 54 62
86 80 83 83 77 82 81 86 91 89 90 94 89 92 89 90 91 96 86 68 59 60 62 65 69 74 79 85 87 90 89 88 88 84 84 82 73 64 58 59 67 61 63
88 82 82 78 74 74 76 87 88 88 89 89 86 93 95 93 96 98 98 89 76 71 70 76 81 83 86 87 91 91 90 89 88 91 95 69 63 57 60 64 68 69 71
96 86 85 79 79 77 80 84 86 82 82 78 85 88 88 89 90 97 94 98 95 90 88 93 89 90 91 92 92 88 90 90 92 93 72 59 54 60 63 66 66 68 68
88 93 92 90 85 78 77 74 77 83 86 90 84 85 88 87 84 93 95 91 99 97 93 91 94 92 91 92 90 88 94 92 69 63 58 56 60 66 67 66 64 62 62
97 98 98 93 90 87 85 81 76 75 78 81 82 85 89 90 86 88 88 90 89 89 88 89 89 91 94 96 88 79 71 66 63 61 63 65 68 69 63 56 57 50 44
97 95 94 96 94 91 87 84 76 74 73 79 79 82 84 83 85 86 89 88 87 88 90 92 90 90 87 82 77 70 68 64 65 66 66 67 68 60 55 48 43 38 37
97 96 98 97 95 92 84 80 81 75 72 70 70 77 80 83 83 83 87 85 83 83 76 73 75 70 64 63 63 64 65 65 63 62 61 55 49 44 42 41 39 35 33
90 96 98 95 88 89 88 86 81 74 73 70 70 70 72 78 75 71 68 67 68 67 64 62 64 64 65 67 67 67 67 63 61 59 54 50 44 41 39 37 35 35 35
82 85 89 92 92 88 84 79 78 77 72 67 69 68 70 72 74 72 70 65 64 67 64 64 63 62 64 63 61 60 60 56 51 47 44 43 39 38 37 36 36 35 31
74 72 72 72 84 90 91 88 82 77 74 70 65 68 68 71 72 74 74 69 63 65 64 61 61 58 58 60 56 50 46 44 44 45 44 41 40 39 38 37 37 34 34
53 56 58 59 61 65 74 79 82 78 73 70 68 70 68 67 66 65 66 66 64 67 63 62 61 60 60 58 54 48 47 47 48 46 45 43 42 42 40 39 38 40 39
43 43 48 55 57 58 61 63 69 73 71 70 68 67 63 61 64 67 64 65 64 66 65 62 61 62 62 62 58 53 51 51 49 47 46 45 44 42 43 45 45 45 45
55 50 45 44 50 54 56 60 64 66 69 72 67 66 65 64 64 62 59 60 61 65 62 64 65 66 64 62 57 55 54 52 52 51 49 48 47 46 47 49 50 48 49
58 60 60 55 51 50 52 57 60 63 64 65 66 66 67 67 64 60 59 58 58 60 63 70 70 69 66 62 60 60 58 57 58 54 51 50 51 51 53 53 54 51 51
58 58 61 63 66 72 72 68 66 64 62 65 66 65 66 64 64 63 62 60 61 64 65 66 66 66 67 66 64 66 63 60 59 57 57 56 57 59 58 57 60 55 55
55 55 58 60 62 64 66 64 66 68 72 74 72 70 67 67 69 72 72 71 71 72 72 72 72 69 68 70 68 65 66 64 64 62 62 62 65 64 63 63 61 60 60
54 57 60 63 66 67 70 71 73 72 74 76 80 82 81 83 82 80 82 82 81 79 77 75 75 76 73 75 75 71 67 70 68 68 67 67 67 67 69 70 67 62 63
55 58 59 60 62 66 71 74 75 76 77 77 79 86 90 90 90 89 88 85 84 84 84 83 80 79 81 81 80 81 79 79 76 69 67 70 71 71 73 73 69 67 64
61 64 65 66 69 72 75 75 77 82 85 90 94 94 94 93 95 95 94 95 96 95 93 93 92 92 92 89 89 87 87 85 79 79 77 74 72 73 70 74 70 68 65